     2              OBSERVATION DATA    GPS                 RINEX VERSION / TYPE
teqc 1997Jul24 19970814                                     PGM / RUN BY / DATE
                                                            COMMENT
Original Marker Name: 0804                                  COMMENT
Campaign Name: HPGN 1991                                    COMMENT
4-Character Station Name: 0804                              COMMENT
6-Character Antenna Code: TRMSST                            COMMENT
Vertical Measurement Point: BPA                             COMMENT
Vertical Offset to Rinex Ref. Point: 0.0000                 COMMENT
Radial Measurement Point: RRP                               COMMENT
Radial Offset to Rinex Ref. Point: 0.0000                   COMMENT
Antenna Height from Field Measurement: 2.2200 m             COMMENT
Original XYZ: 0.0000 0.0000 0.0000                          COMMENT
New XYZ position is based on association with SCEC monument COMMENT
E1F2P0X2+0011. Position of that monument is believed to be  COMMENT
valid to within 1 m horizontally; vertical accuracy         COMMENT
should be no worse than 3-times this value.                 COMMENT
                                                            COMMENT
Revised Rinex header created by UCSD GPS archive for        COMMENT
GSAC on 19-Apr-1999 (1999:109) 04:46:27 GMT                 COMMENT
For assistance contact dagnew@ucsd.edu or hjohnson@ucsd.edu COMMENT
                                                            COMMENT
HPGN 08-4 GPS SOAP 1990                                     MARKER NAME
unknown NATIONAL GEODETIC SURVEY                            OBSERVER / AGENCY
484 TRIMBLE 4000 SST NP 4.30 / SP 4.20                      REC # / TYPE / VERS
18 TR 4000SST L1/L2 GEO                                     ANT # / TYPE
 -2376019.0000 -4667070.0000  3629502.0000                  APPROX POSITION XYZ
        2.2200        0.0000        0.0000                  ANTENNA: DELTA H/E/N
     1     1     0                                          WAVELENGTH FACT L1/2
     3    C1    L1    L2                                    # / TYPES OF OBSERV
     0                                                      INTERVAL
  1991     4    22    20    11   45.000000                  TIME OF FIRST OBS
  1991     4    23     1    59   60.000000                  TIME OF LAST OBS
     0                                                      # OF SATELLITES
                                                            END OF HEADER
 91  4 22 20 11 45.0000000  0  4G18G 2G19G11
  20868775.391          -0.16718
  23489653.852          -0.89216
  20873237.0704         -0.68957
  23403887.977          -0.76016
 91  4 22 20 12  0.0000000  0  4G18G 2G19G11
  20871178.156       12627.621 8        -0.17633
  23479073.6564     -55608.80246
  20870817.9774     -12699.17947        -0.29773
  23396790.4304     -37302.80846        -0.07071
 91  4 22 20 12 15.0000000  0  4G18G 2G19G11
  20873591.945       25311.563 8      9883.36723
  23468491.2974    -111218.92846        -0.33671
  20868401.1884     -25408.43347     -9903.61363
  23389705.648      -74545.157 6    -29020.00721
 91  4 22 20 12 30.0000000  0  4G18G 2G19G11
  20876015.117       38041.028 8     19802.38523
  23457904.6884    -166841.58346    -43342.48261
  20865976.4454     -38138.70147    -19823.30462
  23382632.7424    -111737.88846    -58001.26761
 91  4 22 20 12 45.0000000  0  4G18G 2G19G11
  20878457.023       50877.968 8     29805.14623
  23447330.8834    -222414.71746    -86646.03961
  20863564.1334     -50828.13047    -29711.17562
  23375572.2194    -148818.89446    -86895.47561
 91  4 22 20 13  0.0000000  0  4G18G 2G19G11
  20880919.375       63817.035 8     39887.48723
  23436762.8204    -277943.57446   -129915.08861
  20861154.4384     -63482.20447    -39571.49463
  23368535.367     -185793.202 6   -115706.53721
 91  4 22 20 13 15.0000000  0  4G18G 2G19G11
  20883396.914       76834.722 8     50031.09023
  23426200.227     -333451.080 6   -173167.51821
  20858751.3594     -76124.08747    -49422.31662
  23361512.258     -222683.715 6   -144452.31621
 91  4 22 20 13 30.0000000  0  4G18G 2G19G11
  20885894.633       89961.311 8     60259.55023
  23415648.656     -388906.850 6   -216379.61421
  20856351.0234     -88723.30447    -59239.88862
  23354517.891     -259459.831 6   -173108.94821
 91  4 22 20 13 45.0000000  0  4G18G 2G19G11
  20888408.141      103171.981 8     70553.53023
  23405101.2034    -444335.44546   -259570.55261
  20853959.1954    -101304.62147    -69043.52062
  23347535.750     -296145.754 6   -201695.30321
 91  4 22 20 14  0.0000000  0  4G18G 2G19G11
  20890937.109      116460.294 8     80908.00823
  23394554.6724    -499743.40046   -302745.40561
  20851565.0004    -113874.63447    -78838.33662
  23340571.250     -332747.762 6   -230216.27921
 91  4 22 20 14 15.0000000  0  4G18G 2G19G11
  20893491.102      129877.320 8     91362.78423
  23384024.8984    -555079.17546   -345864.01061
  20849187.3914    -126382.05647    -88584.37862
  23333629.0234    -369214.36346   -258631.73761
 91  4 22 20 14 30.0000000  0  4G18G 2G19G11
  20896063.539      143397.529 8    101897.96223
  23373503.898     -610368.195 6   -388946.18821
  20846813.4844    -138852.34847    -98301.49463
  23326707.555     -405570.680 6   -286961.26221
 91  4 22 20 14 45.0000000  0  4G18G 2G19G11
  20898654.047      157011.787 8    112506.42523
  23362990.7504    -665619.20146   -431998.73561
  20844446.5314    -151294.38047   -107996.58862
  23319816.1174    -441825.30646   -315211.54661
 91  4 22 20 15  0.0000000  0  4G18G 2G19G11
  20901264.688      170730.777 8    123196.49623
  23352484.6094    -720821.60546   -475013.42361
  20842083.7034    -163697.57847   -117661.42262
  23312935.641     -477967.439 6   -343374.17521
 91  4 22 20 15 15.0000000  0  4G18G 2G19G11
  20903894.875      184555.199 8    133968.72023
  23341990.2274    -775974.16646   -517989.26861
  20839732.3834    -176061.09247   -127295.33162
  23306077.4924    -513995.82846   -371448.17461
 91  4 22 20 15 30.0000000  0  4G18G 2G19G11
  20906548.938      198497.639 8    144832.90723
  23331507.3594    -831063.91846   -560916.17261
  20837387.7034    -188371.90347   -136888.16962
  23299250.000     -549897.270 6   -399423.25021
 91  4 22 20 15 45.0000000  0  4G18G 2G19G11
  20909220.352      212533.383 8    155769.79523
  23321029.547     -886115.313 6   -603813.19021
  20835054.0864    -200654.46047   -146459.00162
  23292435.4614    -585695.97246   -427318.27861
 91  4 22 20 16  0.0000000  0  4G18G 2G19G11
  20911913.539      226694.725 7    166804.55423
  23310569.5004    -941096.30846   -646655.34261
  20832724.2584    -212876.87747   -155982.96462
  23285650.1254    -621359.60746   -455108.05561
 91  4 22 20 16 15.0000000  0  5G18G 2G19G11G16
  20914627.945      240950.880 8    177913.19723
  23300113.4454    -996037.60046   -689466.56861
  20830407.1884    -225070.08247   -165484.16662
  23278882.9534    -656918.76346   -482816.41961
  24279391.6954     -36359.39145
 91  4 22 20 16 30.0000000  0  5G18G 2G19G11G16
  20917360.555      255314.039 8    189105.21223
  23289668.7114   -1050926.37846   -732236.86661
  20828095.2734    -237221.44247   -174952.75862
  23272137.2114    -692360.51846   -510433.30261
  24272491.328      -72599.936 5
 91  4 22 20 16 45.0000000  0  5G18G 2G19G11G16
  20920111.070      269770.058 7    200369.59023
  23279231.4304   -1105776.51246   -774977.05461
  20825788.5704    -249345.01547   -184399.69862
  23265411.2974    -727698.66946   -537969.45961
  24265616.8754    -108736.37745
 91  4 22 20 17  0.0000000  0  5G18G 2G19G11G16
  20922878.992      284313.011 8    211701.70823
  23268799.7504   -1160593.70746   -817691.58061
  20823483.1414    -261446.69147   -193829.57762
  23258704.7584    -762938.85446   -565429.28161
  24258759.1414    -144774.55245
 91  4 22 20 17 15.0000000  0  5G18G 2G19G11G16
  20925666.469      298960.879 8    223115.57423
  23258376.8834   -1215359.63846   -860366.15261
  20821189.3524    -273508.05147   -203228.04262
  23252019.766     -798062.423 6   -592798.23821
  24251921.719     -180696.262 5        -0.21231
 91  4 22 20 17 30.0000000  0  5G18G 2G19G11G16
  20928473.359      313712.045 7    234609.93823
  23247965.180    -1270075.711 6   -903001.88621
  20818899.2974    -285530.76247   -212596.38362
  23245363.313     -833070.744 6   -620077.38421
  24245108.320     -216502.901 5    -27901.45321
 91  4 22 20 17 45.0000000  0  5G18G 2G19G11G16
  20931303.320      328579.025 7    246194.54723
  23237565.750    -1324729.276 6   -945588.90421
  20816624.7664    -297502.20447   -221924.78462
  23238725.938     -867950.918 6   -647256.66821
  24238317.742     -252181.508 5    -55702.95621
 91  4 22 20 18  0.0000000  0  5G18G 2G19G11G16
  20934149.367      343536.382 8    257849.57423
  23227171.5554   -1379345.62446   -988146.92261
  20814353.1884    -309447.87947   -231233.10662
  23232104.6484    -902728.05846   -674355.67961
  24231549.469     -287757.533 5    -83424.51621
 91  4 22 20 18 15.0000000  0  5G18G 2G19G11G16
  20937017.641      358605.791 8    269591.91723
  23216788.375    -1433902.781 6  -1030658.82321
  20812087.1884    -321346.00147   -240504.37162
  23225514.1724    -937380.08546   -701357.19561
  24224803.0864    -323208.66445   -111048.74761
 91  4 22 20 18 30.0000000  0  5G18G 2G19G11G16
  20939907.852      373797.512 8    281429.56823
  23206418.711    -1488390.233 6  -1073116.41121
  20809833.7894    -333185.97147   -249730.32362
  23218943.2814    -971896.32546   -728252.90061
  24218082.8524    -358524.32245   -138567.43561
 91  4 22 20 18 45.0000000  0  5G18G 2G19G11G16
  20942819.813      389100.788 8    293354.14223
  23196060.695    -1542818.498 6  -1115527.87121
  20807589.5234    -344978.39247   -258919.22662
  23212399.4454   -1006286.96746   -755050.73761
  24211386.2114    -393715.41745   -165989.03061
 91  4 22 20 19  0.0000000  0  5G18G 2G19G11G16
  20945747.445      404484.404 7    305341.32123
  23185710.648    -1597218.571 6  -1157917.36821
  20805345.6644    -356754.37947   -268095.32362
  23205873.477    -1040582.888 6   -781774.76221
  24204709.570     -428812.725 5   -193337.55321
 91  4 22 20 19 15.0000000  0  5G18G 2G19G11G16
  20948694.742      419975.690 7    317412.39923
  23175369.7194   -1651562.73846  -1200263.29861
  20803115.8914    -368486.48847   -277237.22462
  23199369.961    -1074756.291 6   -808403.31221
  24198049.0084    -463788.49445   -220591.39661
 91  4 22 20 19 30.0000000  0  5G18G 2G19G11G16
  20951664.4614     435578.42848    329570.32263
  23165041.664    -1705847.027 6  -1242562.57121
  20800894.0634    -380170.92147   -286341.97962
  23192889.648    -1108803.023 6   -834933.15421
  24191419.867     -498638.746 5   -247747.41821
 91  4 22 20 19 45.0000000  0  5G18G 2G19G11G16
  20954653.555      451282.109 8    341806.90023
  23154719.758    -1760081.895 6  -1284823.33321
  20798676.2814    -391818.21447   -295417.79162
  23186431.8594   -1142733.48846   -861372.40861
  24184808.516     -533373.937 5   -274813.76921
 91  4 22 20 20  0.0000000  0  5G18G 2G19G11G16
  20957663.602      467102.016 7    354134.04423
  23144409.781    -1814251.500 6  -1327033.24121
  20796467.9454    -403412.58547   -304452.36762
  23180002.047    -1176531.671 6   -887708.57521
  24178224.2974    -567978.00145   -301777.95661
 91  4 22 20 20 15.0000000  0  5G18G 2G19G11G16
  20960692.3134     483020.42248    366537.93863
  23134111.813    -1868373.542 6  -1369206.08721
  20794270.8134    -414971.79847   -313459.55062
  23173586.266    -1210215.073 6   -913955.30121
  24171661.8834    -602468.71445   -328653.82461
 91  4 22 20 20 30.0000000  0  5G18G 2G19G11G16
  20963740.8284     499036.15548    379017.67363
  23123821.539    -1922449.000 6  -1411342.63921
  20792076.0784    -426496.95447   -322440.18662
  23167203.328    -1243784.418 6   -940113.15821
  24165119.3674    -636847.21945   -355442.23861
 91  4 22 20 20 45.0000000  0  5G18G 2G19G11G16
  20966808.7974     515163.50347    391584.38163
  23113542.695    -1976463.369 6  -1453431.58421
  20789892.2344    -437973.59547   -331383.02562
  23160838.852    -1277225.078 6   -966170.73721
  24158603.8284    -671098.90945   -382131.84561
 91  4 22 20 21  0.0000000  0  5G18G 2G19G11G16
  20969897.9534     531392.91648    404230.61763
  23103273.141    -2030426.088 6  -1495480.28321
  20787715.0944    -449411.28047   -340295.50662
  23154497.8524   -1310546.47146   -992135.38461
  24152105.8834    -705233.15245   -408729.95461
 91  4 22 20 21 15.0000000  0  5G18G 2G19G11G16
  20973002.7114     547711.37447    416946.24363
  23093011.055    -2084349.683 6  -1537498.50021
  20785545.3444    -460822.59747   -349187.44262
  23148179.523    -1343760.917 6  -1018016.69521
  24145629.8984    -739262.56045   -435246.35861
 91  4 22 20 21 30.0000000  0  5G18G 2G19G11G16
  20976131.0004     564149.38948    429755.02963
  23082762.117    -2138203.427 6  -1579462.29221
  20783385.0784    -472176.92247   -358034.96962
  23141884.820    -1376837.386 6  -1043790.49821
  24139182.391     -773156.092 5   -461656.87621
 91  4 22 20 21 45.0000000  0  5G18G 2G19G11G16
  20979281.8364     580705.18448    442655.59063
  23072530.070    -2191988.567 6  -1621372.62421
  20781234.0084    -483475.81647   -366839.30462
  23135616.1484   -1409777.15146  -1069457.76161
  24132757.2424    -806915.07745   -487962.56561
 91  4 22 20 22  0.0000000  0  5G18G 2G19G11G16
  20982448.8834     597347.64147    455623.67963
  23062301.836    -2245736.156 6  -1663253.69021
  20779087.3674    -494750.61247   -375624.86062
  23129367.8444   -1442611.20946  -1095042.66961
  24126352.7424    -840570.77645   -514187.77461
 91  4 22 20 22 15.0000000  0  5G18G 2G19G11G16
  20985632.6174     614078.12547    468660.35863
  23052081.016    -2299444.854 6  -1705104.45221
  20776949.1024    -505999.76047   -384390.43762
  23123138.672    -1475337.893 6  -1120543.90121
  24119971.852     -874121.806 5   -540331.43721
 91  4 22 20 22 30.0000000  0  5G18G 2G19G11G16
  20988834.4614     630903.46447    481770.95063
  23041869.000    -2353107.385 6  -1746919.24721
  20774811.8984    -517216.16747   -393130.49462
  23116934.336    -1507949.717 6  -1145955.62821
  24113601.414     -907560.696 5   -566387.68721
 91  4 22 20 22 45.0000000  0  5G18G 2G19G11G16
  20992052.4534     647818.61047    494951.52263
  23031663.594    -2406728.724 6  -1788701.94321
  20772684.4774    -528404.91047   -401849.00062
  23110750.039    -1540451.637 6  -1171281.72521
  24107260.703     -940892.580 5   -592360.56221
 91  4 22 20 23  0.0000000  0  5G18G 2G19G11G16
  20995297.6414     664871.35347    508239.31063
  23021478.633    -2460260.493 6  -1830414.84921
  20770567.4534    -539517.67747   -410508.29962
  23104593.117    -1572795.118 6  -1196484.36321
  24100955.250     -974068.920 5   -618212.25721
 91  4 22 20 23 15.0000000  0  5G18G 2G19G11G16
  20998562.4774     682021.99147    521603.38063
  23011300.539    -2513742.498 6  -1872088.97721
  20768461.2274    -550594.28447   -419139.42662
  23098465.555    -1605019.714 6  -1221594.35821
  24094658.1024   -1007129.70945   -643973.90061
 91  4 22 20 23 30.0000000  0  5G18G 2G19G11G16
  21001840.8134     699252.50047    535029.68663
  23001129.8834   -2567192.34246  -1913738.04561
  20766354.6024    -561652.52047   -427756.23662
  23092350.516    -1637142.961 6  -1246625.38421
  24088386.641    -1040092.392 5   -669659.10721
 91  4 22 20 23 45.0000000  0  5G18G 2G19G11G16
  21005135.8054     716571.40747    548524.86863
  22990966.1174   -2620601.27346  -1955355.23761
  20764259.2194    -572683.89947   -436352.11562
  23086258.1724   -1669155.96346  -1271570.49561
  24082134.1174   -1072948.14345   -695260.95561
 91  4 22 20 24  0.0000000  0  5G18G 2G19G11G16
  21008451.2194     733989.64647    562097.45863
  22980809.2034   -2673958.07246  -1996931.81061
  20762163.7424    -583677.19047   -444918.31862
  23080190.641    -1701047.460 6  -1296420.93421
  24075902.969    -1105685.729 5   -720770.75521
 91  4 22 20 24 15.0000000  0  5G18G 2G19G11G16
  21011786.5004     751517.22947    575755.24963
  22970668.9614   -2727252.53446  -2038459.80261
  20760085.0634    -594622.16247   -453446.86862
  23074146.328    -1732806.982 6  -1321168.53221
  24069698.3284   -1138295.02545   -746180.60761
 91  4 22 20 24 30.0000000  0  5G18G 2G19G11G16
  21015143.3524     769159.84747    589502.67663
  22960541.2114   -2780478.56946  -2079934.48461
  20758008.9614    -605512.95447   -461933.19962
  23068126.305    -1764428.255 6  -1345808.41521
  24063513.8594   -1170769.84445   -771485.62461
 91  4 22 20 24 45.0000000  0  5G18G 2G19G11G16
  21018522.5944     786909.92947    603333.84063
  22950425.3914   -2833643.83646  -2121361.80261
  20755947.8914    -616357.27647   -470383.32362
  23062134.320    -1795918.887 6  -1370346.49221
  24057364.047    -1203117.802 5   -796691.81221
 91  4 22 20 25  0.0000000  0  5G18G 2G19G11G16
  21021919.8054     804765.77047    617247.41463
  22940318.0474   -2886749.59946  -2162742.77361
  20753891.1884    -627156.70447   -478798.46562
  23056167.656    -1827279.971 6  -1394783.62921
  24051234.2034   -1235340.26445   -821800.21861
 91  4 22 20 25 15.0000000  0  5G18G 2G19G11G16
  21025338.5784     822730.47647    631245.81963
  22930225.1094   -2939792.22646  -2204074.54661
  20751848.0704    -637907.64847   -487175.83062
  23050225.3594   -1858507.99846  -1419117.08961
  24045119.789    -1267434.112 5   -846808.42821
 91  4 22 20 25 30.0000000  0  5G18G 2G19G11G16
  21028771.6884     840777.49647    645308.36163
  22920137.7424   -2992798.11046  -2245377.68361
  20749803.0084    -648636.52147   -495535.98862
  23044303.3914   -1889628.99046  -1443367.15261
  24039033.0004   -1299425.19345   -871736.52661
 91  4 22 20 25 45.0000000  0  5G18G 2G19G11G16
  21032227.0784     858930.97847    659453.86163
  22910061.609    -3045743.137 6  -2286633.41121
  20747773.1724    -659319.14247   -503860.11462
  23038401.7504   -1920618.67446  -1467514.89161
  24032972.148    -1331289.091 5   -896565.50821
 91  4 22 20 26  0.0000000  0  5G18G 2G19G11G16
  21035703.9844     877202.31447    673691.19563
  22900000.336    -3098615.638 6  -2327832.61321
  20745748.8054    -669943.98147   -512139.21162
  23032530.5314   -1951465.18846  -1491551.06761
  24026937.0864   -1363014.30845   -921286.48061
 91  4 22 20 26 15.0000000  0  5G18G 2G19G11G16
  21039202.6174     895584.95047    688015.25763
  22889952.586    -3151421.859 6  -2368980.18121
  20743738.2504    -680517.44147   -520378.27762
  23026691.9064   -1982174.82646  -1515480.57861
  24020923.3914   -1394607.33245   -945904.40761
 91  4 22 20 26 30.0000000  0  5G18G 2G19G11G16
  21042721.6094     914077.07847    702424.63763
  22879915.3594   -3204163.27746  -2410077.24161
  20741733.4614    -691040.92047   -528578.39662
  23020870.9304   -2012748.73746  -1539304.34261
  24014937.4774   -1426069.45145   -970420.33961
 91  4 22 20 26 45.0000000  0  5G18G 2G19G11G16
  21046260.8524     932674.48047    716916.04763
  22869890.898    -3256844.029 6  -2451127.04221
  20739741.9924    -701518.74247   -536742.93762
  23015078.5784   -2043190.88446  -1563025.43361
  24008972.1564   -1457405.00345   -994837.61261
 91  4 22 20 27  0.0000000  0  5G18G 2G19G11G16
  21049817.2034     951370.95347    731484.65763
  22859877.6804   -3309469.94746  -2492134.10861
  20737755.4844    -711956.85547   -544876.53462
  23009313.797    -2073507.168 6  -1586648.44121
  24003032.5784   -1488619.63645  -1019160.71361
 91  4 22 20 27 15.0000000  0  5G18G 2G19G11G16
  21053397.648      970177.873 8    746139.32723
  22849873.906    -3362029.332 6  -2533089.33521
  20735778.3984    -722343.73947   -552970.21562
  23003570.719    -2103685.797 6  -1610164.18921
  23997119.7974   -1519701.67845  -1043380.45861
 91  4 22 20 27 30.0000000  0  5G18G 2G19G11G16
  21056993.555      989081.854 7    760869.63223
  22839883.2344   -3414535.36146  -2574002.99161
  20733806.3444    -732692.72347   -561034.36662
  22997852.4694   -2133739.69346  -1633582.74961
  23991226.2274   -1550664.40645  -1067507.26461
 91  4 22 20 27 45.0000000  0  5G18G 2G19G11G16
  21060611.023     1008087.807 7    775679.39223
  22829901.852    -3466982.849 6  -2614871.02521
  20731849.4454    -742998.56247   -569064.89462
  22992154.6484   -2163663.60746  -1656900.02961
  23985356.6254   -1581502.58745  -1091537.01361
 91  4 22 20 28  0.0000000  0  5G18G 2G19G11G16
  21064244.5704    1027181.09447    790557.20763
  22819929.797    -3519386.041 6  -2655704.54521
  20729891.7344    -753275.75247   -577073.09862
  22986482.859    -2193471.741 6  -1680127.09721
  23979512.6334   -1612230.48645  -1115480.82361
 91  4 22 20 28 15.0000000  0  5G18G 2G19G11G16
  21067894.6254    1046363.37147    805504.36363
  22809967.516    -3571743.283 6  -2696502.26421
  20727941.8524    -763522.58547   -585057.65062
  22980831.1024   -2223162.14146  -1703262.41861
  23973685.5234   -1642846.46745  -1139337.43061
 91  4 22 20 28 30.0000000  0  5G18G 2G19G11G16
  21071564.828     1065649.341 7    820532.31823
  22800013.7034   -3624039.62046  -2737252.52161
  20725999.0784    -773724.06247   -593006.85862
  22975204.6334   -2252719.69646  -1726294.21561
  23967882.195    -1673335.418 5  -1163095.06021
 91  4 22 20 28 45.0000000  0  5G18G 2G19G11G16
  21075256.078     1085043.767 7    835644.78423
  22790076.305    -3676269.910 6  -2777951.31821
  20724070.2504    -783875.19447   -600916.84162
  22969609.4144   -2282139.14646  -1749218.40461
  23962106.1094   -1703692.10445  -1186749.60561
 91  4 22 20 29  0.0000000  0  5G18G 2G19G11G16
  21078969.727     1104559.569 7    850851.82923
  22780151.141    -3728420.979 6  -2818588.38021
  20722150.5474    -793963.00347   -608777.47762
  22964041.211    -2311407.302 6  -1772024.70021
  23956360.5004   -1733903.52245  -1210290.96061
 91  4 22 20 29 15.0000000  0  5G18G 2G19G11G16
  21082700.523     1124165.955 7    866129.46223
  22770238.039    -3780523.251 6  -2859187.41921
  20720236.6644    -804018.00247   -616612.54662
  22958493.4064   -2340554.53046  -1794736.77761
  23950629.039    -1764000.288 5  -1233743.01921
 91  4 22 20 29 30.0000000  0  5G18G 2G19G11G16
  21086452.5634    1143881.38447    881492.06163
  22760336.055    -3832558.164 6  -2899733.96621
  20718330.453     -814021.764 7   -624407.69522
  22952974.344    -2369562.033 6  -1817339.96621
  23944925.5314   -1793963.72945  -1257091.14161
 91  4 22 20 29 45.0000000  0  5G18G 2G19G11G16
  21090221.781     1163691.687 7    896928.59323
  22750444.500    -3884539.525 6  -2940238.79321
  20716437.8204    -823988.12047   -632173.69262
  22947477.563    -2398443.584 6  -1839845.03121
  23939248.1644   -1823807.87545  -1280346.32961
 91  4 22 20 30  0.0000000  0  5G18G 2G19G11G16
  21094009.7734    1183601.78147    912442.87963
  22740563.305    -3936462.164 6  -2980697.85921
  20714545.0394    -833911.90747   -639906.52262
  22942004.883    -2427193.866 6  -1862247.80021
  23933594.1024   -1853527.26645  -1303504.29061
 91  4 22 20 30 15.0000000  0  5G18G 2G19G11G16
  21097817.602     1203607.130 7    928031.38923
  22730692.195    -3988330.351 6  -3021114.49221
  20712667.1334    -843797.50947   -647609.59662
  22936560.203    -2455816.992 6  -1884551.48221
  23927966.3984   -1883126.45845  -1326568.60961
 91  4 22 20 30 29.9990000  0  5G18G 2G19G11G16
  21101647.347     1223730.508 7    943711.87323
  22720837.370    -4040116.111 6  -3061466.89821
  20710798.5584    -853619.98647   -655263.47962
  22931141.8784   -2484286.54846  -1906735.49161
  23922352.9804   -1912578.93545  -1349518.59061
 91  4 22 20 30 44.9990000  0  5G18G 2G19G11G16
  21105496.0344    1243958.48147    959473.85863
  22710995.8154   -4091842.56046  -3101773.09361
  20708935.7454    -863396.90247   -662881.86262
  22925749.659    -2512622.202 6  -1928815.17421
  23916777.409    -1941904.607 5  -1372369.75121
 91  4 22 20 30 59.9990000  0  5G18G 2G19G11G16
  21109369.347     1264310.116 7    975332.20523
  22701166.933    -4143485.376 6  -3142014.11521
  20707089.8234    -873106.59247   -670447.86162
  22920384.987    -2540801.102 6  -1950772.71321
  23911227.9804   -1971080.45745  -1395104.22161
 91  4 22 20 31 14.9990000  0  5G18G 2G19G11G16
  21113257.7764    1284742.74647    991253.66263
  22691346.6674   -4195087.10646  -3182223.12261
  20705247.4564    -882791.70347   -677994.70662
  22915049.144    -2568865.625 6  -1972641.11821
  23905692.0424   -2000149.39745  -1417755.33561
 91  4 22 20 31 29.9990000  0  5G18G 2G19G11G16
  21117162.2844    1305259.20947   1007240.44763
  22681536.089    -4246644.682 6  -3222397.72621
  20703405.5504    -892449.44647   -685520.22662
  22909725.894    -2596812.650 6  -1994417.97921
  23900185.9874   -2029108.22845  -1440320.67361
 91  4 22 20 31 44.9990000  0  5G18G 2G19G11G16
  21121082.5344    1325860.61247   1023293.41763
  22671733.808    -4298156.746 6  -3262536.86721
  20701576.4404    -902078.23047   -693023.18562
  22904432.058    -2624640.562 6  -2016102.01421
  23894688.2144   -2057955.58245  -1462799.12761
 91  4 22 20 31 59.9990000  0  5G18G 2G19G11G16
  21125021.9484    1346563.74947   1039425.66663
  22661942.589    -4349606.274 6  -3302627.27821
  20699754.2614    -911661.19347   -700490.43662
  22899164.620    -2652332.497 6  -2037680.10021
  23889231.230    -2086674.625 5  -1485177.61421
 91  4 22 20 32 14.9990000  0  6G18G 2G19G11G16G 6
  21128978.7144    1367360.09547   1055630.54163
  22652163.300    -4401001.514 6  -3342675.38121
  20697937.5194    -921206.91447   -707928.66762
  22893918.9404   -2679896.50946  -2059158.51161
  23883784.534    -2115273.556 5  -1507462.51821
  24292923.2924     -45670.30744
 91  4 22 20 32 29.9990000  0  6G18G 2G19G11G16G 6
  21132954.3624    1388248.06347   1071906.80963
  22642393.261    -4452343.636 6  -3382682.09921
  20696124.6054    -930716.37847   -715338.64262
  22888693.253    -2707333.713 6  -2080538.09821
  23878363.9954   -2143753.38945  -1529654.58961
  24284231.6124     -91341.39844
 91  4 22 20 32 44.9990000  0  6G18G 2G19G11G16G 6
  21136947.0734    1409234.15147   1088259.54063
  22632634.980    -4503625.802 6  -3422642.09521
  20694326.2304    -940182.89847   -722715.15762
  22883500.284    -2734637.103 6  -2101813.42321
  23872968.112    -2172107.465 5  -1551748.71721
  24275539.4174    -137006.88144
 91  4 22 20 32 59.9990000  0  6G18G 2G19G11G16G 6
  21140957.1984    1430306.34447   1104679.36063
  22622884.1594   -4554859.83446  -3462564.58861
  20692527.4334    -949618.42447   -730067.51862
  22878328.5034   -2761818.34646  -2122993.56461
  23867597.7374   -2200347.51845  -1573753.92261
  24266847.105     -182678.517 4
 91  4 22 20 33 14.9990000  0  6G18G 2G19G11G16G 6
  21144987.5734    1451482.35347   1121180.08063
  22613146.5584   -4606027.91446  -3502435.69461
  20690745.7694    -959005.07047   -737381.79262
  22873180.3314   -2788859.44046  -2144064.51061
  23862245.9094   -2228455.88945  -1595656.55861
  24258158.6834    -228338.78244
 91  4 22 20 33 29.9990000  0  6G18G 2G19G11G16G 6
  21149041.0264    1472779.15347   1137774.92363
  22603426.2924   -4657112.91846  -3542242.05961
  20688967.9174    -968325.67047   -744644.60262
  22868065.5264   -2815743.14946  -2165012.81761
  23856924.9724   -2256415.12345  -1617443.00761
  24249473.9874    -273970.53144        -0.24871
 91  4 22 20 33 44.9990000  0  6G18G 2G19G11G16G 6
  21153107.4874    1494155.92947   1154432.08163
  22593712.784    -4708155.090 6  -3582015.04221
  20687202.4174    -977620.92347   -751887.66062
  22862973.0264   -2842509.68246  -2185869.81361
  23851627.651    -2284265.969 5  -1639144.94921
  24240791.3554    -319614.37445    -35566.65161
 91  4 22 20 33 59.9990000  0  6G18G 2G19G11G16G 6
  21157194.0654    1515632.23747   1171166.80063
  22584011.1514   -4759134.48946  -3621739.13061
  20685440.9804    -986870.91347   -759095.44462
  22857905.9724   -2869139.04046  -2206619.91761
  23846351.394    -2311988.285 5  -1660746.78521
  24232107.5114    -365250.43745    -71127.06361
 91  4 22 20 34 14.9990000  0  6G18G 2G19G11G16G 6
  21161300.058     1537206.602 7   1187977.92223
  22574322.6674   -4810052.53446  -3661415.40061
  20683690.6904    -996077.00547   -766269.02662
  22852862.7694   -2895632.52046  -2227264.15261
  23841097.4954   -2339583.65645  -1682249.65761
  24223425.308     -410880.331 5   -106682.67221
 91  4 22 20 34 29.9990000  0  6G18G 2G19G11G16G 6
  21165425.5734    1558880.19247   1204866.36663
  22564645.667    -4860907.822 6  -3701042.76821
  20681943.1594   -1005237.75447   -773407.27362
  22847850.245    -2921988.670 6  -2247801.36321
  23835871.7144   -2367050.63745  -1703652.51161
  24214736.8784    -456502.89645   -142232.55361
 91  4 22 20 34 44.9990000  0  6G18G 2G19G11G16G 6
  21169566.667     1580647.311 7   1221827.68623
  22554978.7224   -4911705.55646  -3740625.29161
  20680211.2614   -1014358.66247   -780514.47862
  22842858.550    -2948212.677 6  -2268235.61621
  23830674.1284   -2394394.65545  -1724959.54761
  24206064.7304    -502123.58545   -177780.98361
 91  4 22 20 34 59.9990000  0  6G18G 2G19G11G16G 6
  21173727.1124    1602509.24347   1238862.88963
  22545322.0814   -4962444.28846  -3780161.83761
  20678482.0734   -1023438.33547   -787589.55462
  22837893.9954   -2974302.86646  -2288565.60061
  23825489.3004   -2421614.29645  -1746169.66961
  24197378.355     -547740.866 5   -213326.74621
 91  4 22 20 35 14.9990000  0  6G18G 2G19G11G16G 6
  21177907.6904    1624482.81947   1255985.08663
  22535682.2064   -5013107.19046  -3819639.30061
  20676765.2844   -1032459.75047   -794619.23062
  22832960.433    -3000242.220 6  -2308778.03721
  23820338.331    -2448692.309 5  -1767269.43321
  24188701.878     -593337.908 4   -248856.72021
 91  4 22 20 35 29.9990000  0  6G18G 2G19G11G16G 6
  21182109.097     1646552.505 7   1273182.17723
  22526052.0894   -5063709.31546  -3859069.39961
  20675055.9874   -1041438.22247   -801615.44562
  22828049.2144   -3026045.78346  -2328884.67161
  23815208.831    -2475643.663 5  -1788270.50521
  24180024.9014    -638930.19344   -284382.98761
 91  4 22 20 35 44.9990000  0  6G18G 2G19G11G16G 6
  21186324.745     1668712.664 7   1290449.75723
  22516433.1514   -5114256.13146  -3898456.41361
  20673355.8944   -1050379.05147   -808582.33062
  22823162.956    -3051718.719 6  -2348889.51621
  23810103.6834   -2502474.19345  -1809177.41261
  24171350.1514    -684523.19845   -319909.83461
 91  4 22 20 35 59.9990000  0  6G18G 2G19G11G16G 6
  21190561.519     1690967.904 7   1307791.43123
  22506826.1594   -5164742.38746  -3937796.23361
  20671659.4254   -1059277.26647   -815516.01362
  22818302.9174   -3077256.00546  -2368788.66161
  23805019.730    -2529178.759 5  -1829986.17521
  24162673.050     -730111.837 5   -355433.35321
 91  4 22 20 36 14.9990000  0  6G18G 2G19G11G16G 6
  21194813.573     1713319.270 7   1325208.00623
  22497230.6754   -5215167.13546  -3977088.12261
  20669978.9804   -1068131.85147   -822415.69662
  22813468.9644   -3102656.48146  -2388581.20061
  23799965.5504   -2555756.36345  -1850696.00761
  24153998.964     -775695.564 4   -390952.92721
 91  4 22 20 36 29.9990000  0  6G18G 2G19G11G16G 6
  21199087.3624    1735774.22747   1342705.30363
  22487648.2534   -5265522.78846  -4016326.17461
  20668299.8154   -1076935.32447   -829275.55262
  22808661.7534   -3127912.39646  -2408261.09861
  23794930.8704   -2582199.41945  -1871300.98961
  24145328.5194    -821266.62844   -426462.64961
 91  4 22 20 36 44.9990000  0  6G18G 2G19G11G16G 6
  21203376.565     1758321.331 7   1360274.40123
  22478077.6054   -5315820.28546  -4055518.90561
  20666635.9254   -1085698.83847   -836104.27062
  22803884.6284   -3153034.66646  -2427836.85661
  23789922.9334   -2608519.02745  -1891809.79661
  24136655.4644    -866836.01144   -461971.05361
 91  4 22 20 36 59.9990000  0  6G18G 2G19G11G16G 6
  21207691.026     1780989.042 7   1377937.47723
  22468523.0194   -5366030.81146  -4094643.87661
  20664977.9874   -1094393.61947   -842879.43062
  22799132.5814   -3177994.54546  -2447286.07461
  23784946.683    -2634686.373 5  -1912199.95621
  24127988.7454    -912375.47144   -497456.22361
 91  4 22 20 37 14.9990000  0  6G18G 2G19G11G16G 6
  21212023.636     1803754.931 7   1395677.05923
  22458978.753    -5416176.844 6  -4133718.58921
  20663334.3554   -1103041.96847   -849618.40762
  22794410.823    -3202814.087 6  -2466625.93121
  23779986.6674   -2660723.85945  -1932488.91161
  24119318.784     -957907.319 4   -532935.40421
 91  4 22 20 37 29.9990000  0  6G18G 2G19G11G16G 6
  21216380.480     1826652.864 7   1413519.52723
  22449455.9564   -5466224.13746  -4172716.36561
  20661700.5194   -1111609.93047   -856294.74662
  22789720.1284   -3227459.05546  -2485829.76561
  23775063.245    -2686597.348 5  -1952650.05721
  24110670.4014   -1003397.38444   -568382.02761
 91  4 22 20 37 44.9990000  0  6G18G 2G19G11G16G 6
  21220761.636     1849670.877 7   1431455.56223
  22439948.644    -5516184.182 6  -4211646.15721
  20660087.1834   -1120108.84647   -862917.28262
  22785060.6754   -3251940.88146  -2504906.48361
  23770169.534    -2712318.108 5  -1972692.23121
  24102017.237    -1048857.522 5   -603805.37021
 91  4 22 20 37 59.9990000  0  6G18G 2G19G11G16G 6
  21225156.089     1872771.283 7   1449455.80323
  22430449.800    -5566094.462 6  -4250537.17221
  20658473.1284   -1128576.30347   -869515.31062
  22780426.6754   -3276297.04246  -2523885.26961
  23765299.933    -2737923.928 5  -1992644.84221
  24093365.5584   -1094325.29245   -639234.60361
 91  4 22 20 38 14.9990000  0  6G18G 2G19G11G16G 6
  21229567.480     1895950.840 7   1467517.71723
  22420961.526    -5615958.007 6  -4289391.76921
  20656868.6514   -1137015.43047   -876091.26162
  22775816.222    -3300530.494 6  -2542768.43521
  23760448.487    -2763417.921 5  -2012510.28421
  24084709.300    -1139803.877 4   -674672.30321
 91  4 22 20 38 29.9990000  0  6G18G 2G19G11G16G 6
  21233997.659     1919233.890 7   1485660.27523
  22411486.1054   -5665750.13546  -4328190.71461
  20655271.7144   -1145401.57647   -882625.92562
  22771227.7534   -3324616.30946  -2561536.56661
  23755623.3314   -2788775.60545  -2032269.56461
  24076062.019    -1185268.578 4   -710099.18021
 91  4 22 20 38 44.9990000  0  6G18G 2G19G11G16G 6
  21238447.128     1942612.755 7   1503877.49323
  22402023.605    -5715478.064 6  -4366939.64221
  20653687.8624   -1153742.15947   -889125.08962
  22766675.815    -3348561.833 6  -2580195.36721
  23750821.4404   -2814003.79645  -2051927.89861
  24067410.8474   -1230726.93445   -745521.10361
 91  4 22 20 38 59.9990000  0  6G18G 2G19G11G16G 6
  21242912.690     1966072.684 7   1522157.87723
  22392569.534    -5765156.800 6  -4405650.23321
  20652102.3624   -1162052.07747   -895600.36162
  22762138.690    -3372381.736 6  -2598756.29521
  23746040.1754   -2839117.71845  -2071497.19561
  24058752.4174   -1276194.03145   -780949.83661
 91  4 22 20 39 14.9990000  0  6G18G 2G19G11G16G 6
  21247396.956     1989640.004 7   1540521.94223
  22383130.284    -5814759.561 6  -4444301.62421
  20650535.198    -1170304.649 7   -902030.94522
  22757637.948    -3396049.342 6  -2617198.54021
  23741290.3704   -2864090.61045  -2090956.59561
  24050109.4724   -1321643.11345   -816364.52861
 91  4 22 20 39 29.9990000  0  6G18G 2G19G11G16G 6
  21251906.386     2013338.980 7   1558988.59823
  22373710.175    -5864261.605 6  -4482874.52821
  20648980.1124   -1178475.04047   -908397.49162
  22753164.409    -3419539.774 6  -2635502.72821
  23736569.0034   -2888897.73245  -2110286.84561
  24041470.1674   -1367049.81544   -851746.21761
 91  4 22 20 39 44.9990000  0  6G18G 2G19G11G16G 6
  21256432.355     2037121.068 7   1577520.01323
  22364302.065    -5913711.272 6  -4521406.62721
  20647431.6904   -1186611.75447   -914737.79662
  22748724.6674   -3442901.36946  -2653706.53161
  23731867.847    -2913587.571 5  -2129525.71021
  24032825.862    -1412462.441 5   -887132.49621
 91  4 22 20 39 59.9990000  0  6G18G 2G19G11G16G 6
  21260978.308     2061008.038 7   1596133.15123
  22354903.933    -5963086.608 6  -4559880.80321
  20645890.097    -1194692.918 7   -921034.81822
  22744303.0974   -3466112.05246  -2671792.74061
  23727199.5194   -2938138.19545  -2148656.05761
  24024183.917    -1457859.166 5   -922506.41621
 91  4 22 20 40 14.9990000  0  6G18G 2G19G11G16G 6
  21265544.394     2085017.212 7   1614841.52223
  22345526.269    -6012369.993 6  -4598283.33421
  20644370.0584   -1202700.96047   -927274.86062
  22739917.526    -3489154.103 6  -2689747.53921
  23722557.784    -2962532.113 5  -2167664.31521
  24015554.8864   -1503222.62545   -957854.42161
 91  4 22 20 40 29.9990000  0  6G18G 2G19G11G16G 6
  21270136.1754    2109137.25247   1633636.27763
  22336162.651    -6061572.604 6  -4636622.91821
  20642856.0814   -1210647.00247   -933466.58462
  22735566.5344   -3512038.57746  -2707579.56061
  23717945.745    -2986780.400 5  -2186559.09821
  24006925.292    -1548563.942 4   -993185.13621
 91  4 22 20 40 44.9990000  0  6G18G 2G19G11G16G 6
  21274740.636     2133335.593 7   1652492.04323
  22326808.714    -6110726.644 6  -4674924.65521
  20641351.3314   -1218563.32447   -939635.15862
  22731233.4804   -3534797.69846  -2725313.90261
  23713350.1124   -3010915.43245  -2205365.64761
  23998292.886    -1593915.552 5  -1028523.91221
 91  4 22 20 40 59.9990000  0  6G18G 2G19G11G16G 6
  21279362.542     2157619.347 7   1671414.36423
  22317465.237    -6159824.791 6  -4713182.84121
  20639848.0504   -1226442.76347   -945774.98462
  22726928.901    -3557423.925 6  -2742944.68721
  23708779.034    -3034929.860 5  -2224078.20321
  23989663.581    -1639270.320 5  -1063865.12521
 91  4 22 20 41 14.9990000  0  6G18G 2G19G11G16G 6
  21283999.737     2181994.383 7   1690407.81323
  22308135.690    -6208860.681 6  -4751392.51721
  20638361.4564   -1234278.96647   -951881.12362
  22722652.2064   -3579910.86046  -2760466.93761
  23704235.4564   -3058817.32645  -2242691.79561
  23981032.628    -1684621.919 5  -1099203.90121
 91  4 22 20 41 29.9990000  0  6G18G 2G19G11G16G 6
  21288657.5504    2206463.12947   1709474.28663
  22298813.105    -6257831.937 6  -4789551.82721
  20636877.4954   -1242069.47647   -957951.65762
  22718397.0194   -3602255.99246  -2777878.69261
  23699716.0974   -3082575.26545  -2261204.48361
  23972409.4724   -1729967.99245  -1134538.36661
 91  4 22 20 41 44.9990000  0  6G18G 2G19G11G16G 6
  21293331.956     2231030.597 7   1728617.67923
  22289510.948    -6306732.787 6  -4827656.27322
  20635406.6594   -1249808.57847   -963982.13162
  22714174.019    -3624453.600 6  -2795175.48821
  23695217.5814   -3106198.38145  -2279612.11461
  23963783.4874   -1775303.14245  -1169864.28461
 91  4 22 20 41 59.9990000  0  6G18G 2G19G11G16G 6
  21298021.4954    2255678.89847   1747824.06063
  22280214.347    -6355581.382 6  -4865720.00421
  20633935.7844   -1257514.60147   -969986.83362
  22709973.5584   -3646521.75546  -2812371.42261
  23690747.0194   -3129704.53545  -2297928.63261
  23955154.206    -1820645.537 5  -1205195.84721
 91  4 22 20 42 14.9990000  0  6G18G 2G19G11G16G 6
  21302731.9874    2280422.81447   1767104.94863
  22270931.995    -6404362.448 6  -4903731.11121
  20632482.9954   -1265172.31347   -975953.88662
  22705801.9254   -3668445.09446  -2829454.50261
  23686296.862    -3153078.645 5  -2316142.23921
  23946522.6054   -1865979.99445  -1240521.22161
 91  4 22 20 42 29.9990000  0  6G18G 2G19G11G16G 6
  21307459.4014    2305271.16247   1786467.21063
  22261663.855    -6453066.781 6  -4941682.43521
  20631032.3944   -1272772.48247   -981876.09962
  22701661.3554   -3690214.36346  -2846417.53261
  23681872.8864   -3176311.50345  -2334245.78261
  23937897.112    -1911297.539 5  -1275833.45921
 91  4 22 20 42 44.9990000  0  6G18G 2G19G11G16G 6
  21312208.120     2330220.908 7   1805908.48023
  22252410.503    -6501697.303 6  -4979576.23221
  20629599.3394   -1280318.05547   -987755.77362
  22697547.6674   -3711832.30646  -2863262.65161
  23677480.2764   -3199406.24645  -2352241.69861
  23929282.0974   -1956601.16745  -1311134.85461
 91  4 22 20 42 59.9990000  0  6G18G 2G19G11G16G 6
  21316971.9094    2355254.11747   1825414.78963
  22243164.855    -6550271.363 6  -5017426.03922
  20628173.3154   -1287826.57447   -993606.57262
  22693456.011    -3733316.434 6  -2880003.48821
  23673109.8704   -3222380.50745  -2370143.70761
  23920654.1124   -2001908.61645  -1346439.17761
 91  4 22 20 43 14.9990000  0  6G18G 2G19G11G16G 6
  21321757.9174    2380404.90547   1845012.71963
  22233940.269    -6598754.854 6  -5055205.26422
  20626756.8624   -1295263.69447   -999401.73562
  22689405.2534   -3754632.35946  -2896613.26161
  23668764.644    -3245200.038 5  -2387925.18821
  23912041.237    -2047185.499 5  -1381719.71221
 91  4 22 20 43 29.9990000  0  6G18G 2G19G11G16G 6
  21326560.5504    2405647.06747   1864681.84863
  22224726.948    -6647173.675 6  -5092934.10922
  20625349.1284   -1302655.43247  -1005161.53362
  22685373.4404   -3775805.93146  -2913112.11661
  23664453.5894   -3267890.74545  -2405606.26361
  23903427.589    -2092457.918 5  -1416996.76721
 91  4 22 20 43 44.9990000  0  6G18G 2G19G11G16G 6
  21331387.2304    2431004.12747   1884440.50663
  22215528.886    -6695504.084 6  -5130594.05622
  20623956.2694   -1309978.10247  -1010867.51462
  22681377.0424   -3796813.40746  -2929481.55461
  23660157.9644   -3290428.77545  -2423168.37161
  23894818.339    -2137702.339 5  -1452252.03021
 91  4 22 20 43 59.9990000  0  6G18G 2G19G11G16G 6
  21336229.5344    2456454.56247   1904271.91963
  22206345.253    -6743767.272 6  -5168201.62122
  20622567.8154   -1317252.92247  -1016536.20962
  22677406.8784   -3817675.94746  -2945738.05161
  23655895.925    -3312835.447 5  -2440628.12821
  23886208.1124   -2182940.13745  -1487502.11061
 91  4 22 20 44 14.9990000  0  6G18G 2G19G11G16G 6
  21341090.909     2481996.759 7   1924174.84823
  22197172.151    -6791964.679 6  -5205757.93121
  20621197.0424   -1324481.44647  -1022168.82762
  22673461.4644   -3838394.91046  -2961882.66561
  23651655.8084   -3335112.15145  -2457986.62661
  23877601.886    -2228172.789 5  -1522748.18421
 91  4 22 20 44 29.9990000  0  6G18G 2G19G11G16G 6
  21345965.2304    2507620.41947   1944141.24263
  22188012.120    -6840106.206 6  -5243270.69722
  20619828.8394   -1331673.50947  -1027773.03762
  22669544.2304   -3858980.13646  -2977923.06361
  23647439.7534   -3357268.84845  -2475251.59061
  23868991.9484   -2273410.26545  -1557998.03761
 91  4 22 20 44 44.9990000  0  6G18G 2G19G11G16G 6
  21350859.6834    2533326.55747   1964171.91063
  22178861.073    -6888190.655 6  -5280738.98622
  20618466.8864   -1338827.95947  -1033347.93462
  22665651.3234   -3879430.36146  -2993858.27561
  23643246.4254   -3379304.64145  -2492422.34361
  23860382.144    -2318651.578 5  -1593250.84821
 91  4 22 20 44 59.9990000  0  6G18G 2G19G11G16G 6
  21355769.0034    2559137.65747   1984284.36963
  22169728.894    -6936195.322 6  -5318145.10422
  20617113.5584   -1345922.14947  -1038875.87762
  22661793.198    -3899722.816 6  -3009670.55221
  23639083.9644   -3401196.87045  -2509481.22361
  23851772.6284   -2363874.25545  -1628489.13861
 91  4 22 20 45 14.9990000  0  6G18G 2G19G11G16G 6
  21360699.1904    2585036.69147   2004465.34363
  22160602.987    -6984136.621 6  -5355501.85022
  20615774.2374   -1352972.61947  -1044369.75562
  22657958.6364   -3919873.88946  -3025372.66161
  23634940.269    -3422962.382 5  -2526441.39221
  23843173.8314   -2409094.59245  -1663725.63861
 91  4 22 20 45 29.9990000  0  6G18G 2G19G11G16G 6
  21365643.9874    2611025.28747   2024716.10763
  22151494.128    -7032012.568 6  -5392807.67522
  20614439.0194   -1359977.35747  -1049827.99962
  22654150.9254   -3939881.60946  -3040963.06261
  23630819.831    -3444599.065 5  -2543301.16421
  23834566.909    -2454311.014 5  -1698959.06921
 91  4 22 20 45 44.9990000  0  6G18G 2G19G11G16G 6
  21370610.2064    2637117.66047   2045047.73662
  22142397.292    -7079808.857 6  -5430051.42522
  20613121.6674   -1366922.16747  -1055239.54362
  22650373.6204   -3959731.50046  -3056430.47961
  23626733.386    -3466092.377 5  -2560049.22321
  23825965.0114   -2499509.14445  -1734178.26161
 91  4 22 20 45 59.9990000  0  6G18G 2G19G11G16G 6
  21375591.4484    2663301.74247   2065450.82463
  22133315.331    -7127537.497 6  -5467242.46222
  20611806.6904   -1373819.02147  -1060613.71762
  22646626.6904   -3979435.45046  -3071784.17861
  23622665.753    -3487454.079 5  -2576694.71621
  23817367.3624   -2544701.09045  -1769392.60661
 91  4 22 20 46 14.9990000  0  6G18G 2G19G11G16G 6
  21380595.6674    2689590.04447   2085935.12563
  22124248.987    -7175185.719 6  -5504370.83622
  20610506.8084   -1380655.01447  -1065940.47262
  22642903.9724   -3998980.51646  -3087014.06561
  23618631.5504   -3508671.65445  -2593227.90061
  23808769.448    -2589874.078 5  -1804592.19621
 91  4 22 20 46 29.9990000  0  6G18G 2G19G11G16G 6
  21385613.4644    2715969.18647   2106490.21063
  22115192.339    -7222766.268 6  -5541446.48422
  20609215.4094   -1387443.07647  -1071229.87462
  22639214.8314   -4018379.61446  -3102130.20961
  23614618.144    -3529758.528 5  -2609659.24921
  23800173.417    -2635041.123 5  -1839787.14221
 91  4 22 20 46 44.9990000  0  6G18G 2G19G11G16G 6
  21390652.3554    2742437.70047   2127114.93663
  22106154.237    -7270280.776 6  -5578470.66622
  20607932.2224   -1394184.74047  -1076483.12662
  22635545.5504   -4037634.24446  -3117133.78261
  23610634.308    -3550715.635 5  -2625989.49021
  23791582.5344   -2680203.85645  -1874978.75661
 91  4 22 20 46 59.9990000  0  6G18G 2G19G11G16G 6
  21395706.6124    2769007.22947   2147818.37263
  22097124.589    -7317717.352 6  -5615434.12922
  20606658.4644   -1400868.34047  -1081691.12962
  22631913.6754   -4056732.49446  -3132015.50061
  23606673.0424   -3571531.58445  -2642209.73961
  23782989.6834   -2725350.60845  -1910157.92261
 91  4 22 20 47 14.9990000  0  6G18G 2G19G11G16G 6
  21400784.5974    2795684.69047   2168605.91363
  22088114.394    -7365068.244 6  -5652330.81722
  20605400.5194   -1407486.19947  -1086847.90862
  22628309.4564   -4075666.71246  -3146769.40961
  23602737.433    -3592198.846 5  -2658314.12421
  23774400.370    -2770473.931 5  -1945318.79721
 91  4 22 20 47 29.9990000  0  6G18G 2G19G11G16G 6
  21405879.8314    2822460.67247   2189470.22363
  22079117.940    -7412342.925 6  -5689168.13321
  20604152.4564   -1414047.58247  -1091960.68062
  22624736.7064   -4094446.28446  -3161402.81661
  23598827.870    -3612726.828 5  -2674309.95221
  23765815.7224   -2815583.12945  -1980468.69261
 91  4 22 20 47 44.9990000  0  6G18G 2G19G11G16G 6
  21410992.9564    2849337.25847   2210412.92963
  22070137.862    -7459538.966 6  -5725944.16022
  20602914.6594   -1420550.23047  -1097027.68362
  22621193.3314   -4113068.70646  -3175913.75461
  23594946.5654   -3633113.00945  -2690195.31161
  23757236.9644   -2860676.00845  -2015605.84661
 91  4 22 20 47 59.9990000  0  6G18G 2G19G11G16G 6
  21416127.6904    2876310.67447   2231431.08963
  22061170.5424   -7506659.81946  -5762661.60362
  20601686.3474   -1426997.56947  -1102051.59062
  22617680.1364   -4131537.26546  -3190304.81561
  23591098.386    -3653360.886 5  -2705972.90521
  23748658.6364   -2905756.04645  -2050733.02361
 91  4 22 20 48 14.9990000  0  6G18G 2G19G11G16G 6
  21421276.2844    2903371.50347   2252517.35163
  22052214.909    -7553714.745 6  -5799327.67722
  20600471.5424   -1433398.85047  -1107039.60362
  22614193.2224   -4149861.23646  -3204583.20461
  23587268.573    -3673479.844 5  -2721650.05721
  23740079.3154   -2950832.67745  -2085857.52161
 91  4 22 20 48 29.9990000  0  6G18G 2G19G11G16G 6
  21426440.7844    2930507.43347   2273662.14063
  22043271.472    -7600715.621 6  -5835951.64022
  20599254.9954   -1439766.26347  -1112001.22962
  22610731.6204   -4168052.70946  -3218758.34861
  23583463.480    -3693482.131 5  -2737236.27621
  23731500.9484   -2995918.07645  -2120988.85861
 91  4 22 20 48 44.9990000  0  6G18G 2G19G11G16G 6
  21431619.9644    2957732.49747   2294876.37963
  22034339.792    -7647648.348 6  -5872522.49722
  20598056.6444   -1446085.42347  -1116925.24762
  22607296.6124   -4186097.27546  -3232819.01661
  23579681.4404   -3713353.69645  -2752720.63361
  23722921.9644   -3040997.91145  -2156115.85561
 91  4 22 20 48 59.9990000  0  6G18G 2G19G11G16G 6
  21436820.8624    2985050.58547   2316163.10463
  22025422.1124   -7694508.72346  -5909036.98162
  20596860.5264   -1452352.08647  -1121808.37662
  22603891.6754   -4203990.66646  -3246761.88861
  23575927.972    -3733090.217 5  -2768099.76421
  23714348.4094   -3086068.21145  -2191235.41361
 91  4 22 20 49 14.9990000  0  6G18G 2G19G11G16G 6
  21442039.2764    3012477.20447   2337534.39863
  22016522.9094   -7741280.78046  -5945482.64562
  20595684.1054   -1458550.44847  -1126638.27262
  22600519.3624   -4221717.01146  -3260574.59561
  23572195.3784   -3752675.70645  -2783361.22561
  23705774.495    -3131113.087 5  -2226335.19121
 91  4 22 20 49 29.9990000  0  6G18G 2G19G11G16G 6
  21447273.8624    3039989.24547   2358972.25663
  22007634.4954   -7787987.35646  -5981877.28562
  20594511.5504   -1464703.35847  -1131432.75262
  22597172.3154   -4239299.10646  -3274274.90361
  23568495.573    -3772133.170 5  -2798522.90021
  23697202.612    -3176155.582 5  -2261433.08121
 91  4 22 20 49 44.9990000  0  6G18G 2G19G11G16G 6
  21452527.7454    3067588.42747   2380478.01162
  21998759.4644   -7834626.47746  -6018219.36462
  20593351.4724   -1470808.74647  -1136190.20162
  22593853.5344   -4256734.90546  -3287861.20161
  23564819.698    -3791460.881 5  -2813583.47721
  23688632.355    -3221193.748 5  -2296527.61921
 91  4 22 20 49 59.9990000  0  6G18G 2G19G11G16G 6
  21457797.5734    3095296.59647   2402068.69963
  21989901.5734   -7881176.23446  -6054491.80562
  20592200.9874   -1476844.62347  -1140893.48162
  22590566.198    -4274002.204 6  -3301316.21121
  23561171.0814   -3810636.46045  -2828525.52861
  23680066.714    -3266205.632 5  -2331601.67121
 91  4 22 20 50 14.9990000  0  6G18G 2G19G11G16G 6
  21463091.9724    3123105.15247   2423737.60562
  21981058.2694   -7927645.00046  -6090701.13862
  20591066.3394   -1482819.51447  -1145549.24962
  22587313.7764   -4291109.40846  -3314646.47661
  23557551.4804   -3829668.50245  -2843355.72361
  23671501.917    -3311199.814 5  -2366661.89821
 91  4 22 20 50 29.9990000  0  6G18G 2G19G11G16G 6
  21468399.5974    3151005.36247   2445477.93362
  21972230.4564   -7974041.20446  -6126853.93862
  20589936.0654   -1488741.93247  -1150164.12562
  22584087.5654   -4308065.13246  -3327858.69361
  23553951.386    -3848565.741 5  -2858080.88421
  23662943.1594   -3356184.94045  -2401715.10661
 91  4 22 20 50 44.9990000  0  6G18G 2G19G11G16G 6
  21473729.2844    3179006.09847   2467296.59262
  21963416.8944   -8020355.54446  -6162942.94062
  20588823.5504   -1494602.48247  -1154730.79362
  22580890.4804   -4324859.91246  -3340945.49861
  23550379.800    -3867319.165 5  -2872693.96321
  23654384.2614   -3401151.71445  -2436754.00261
 91  4 22 20 50 59.9990000  0  6G18G 2G19G11G16G 6
  21479073.4644    3207090.67547   2489180.57662
  21954613.2614   -8066604.46346  -6198980.96762
  20587715.0894   -1500417.58047  -1159262.04362
  22577721.8004   -4341510.16746  -3353919.68761
  23546842.558    -3885945.174 5  -2887207.78321
  23645830.222    -3446116.566 5  -2471791.42021
 91  4 22 20 51 14.9990000  0  6G18G 2G19G11G16G 6
  21484435.8004    3235274.18347   2511141.65562
  21945831.3784   -8112772.73146  -6234956.14962
  20586623.2374   -1506172.14447  -1163746.12262
  22574581.5894   -4358000.78746  -3366769.48661
  23543324.4174   -3904428.54846  -2901610.44761
  23637274.2694   -3491064.66345  -2506815.75861
 91  4 22 20 51 29.9990000  0  6G18G 2G19G11G16G 6
  21489818.9404    3263558.02247   2533180.91262
  21937060.5344   -8158858.33246  -6270866.91562
  20585536.3944   -1511864.18147  -1168181.48462
  22571477.9334   -4374329.59946  -3379493.20361
  23539832.433    -3922767.419 5  -2915900.50521
  23628726.7064   -3535993.81145  -2541825.33161
 91  4 22 20 51 44.9990000  0  6G18G 2G19G11G16G 6
  21495217.1674    3291928.34847   2555287.55962
  21928302.4724   -8204874.88946  -6306723.88362
  20584466.1364   -1517507.47347  -1172578.86262
  22568400.0894   -4390510.32046  -3392101.52461
  23536369.1904   -3940975.40945  -2930088.58061
  23620178.964    -3580918.037 5  -2576831.06721
 91  4 22 20 51 59.9990000  0  6G18G 2G19G11G16G 6
  21500635.3234    3320394.78747   2577469.10262
  21919561.4094   -8250812.51746  -6342519.35162
  20583403.7694   -1523092.09447  -1176930.51962
  22565350.2064   -4406533.01246  -3404586.70861
  23532930.5734   -3959042.60645  -2944166.95061
  23611628.3004   -3625827.33045  -2611825.17361
 91  4 22 20 52 14.9990000  0  6G18G 2G19G11G16G 6
  21506066.831     3348939.096 7   2599711.31722
  21910829.9094   -8296689.23446  -6378267.35262
  20582347.4954   -1528635.86847  -1181250.35162
  22562325.2844   -4422415.54946  -3416962.67361
  23529517.5814   -3976987.13945  -2958149.74261
  23603083.933    -3670739.869 5  -2646821.82821
 91  4 22 20 52 29.9990000  0  6G18G 2G19G11G16G 6
  21511514.3554    3377563.77347   2622016.16162
  21902113.3474   -8342502.27446  -6413965.73362
  20581299.1674   -1534136.18847  -1185536.32162
  22559329.8784   -4438155.21746  -3429227.32361
  23526121.940    -3994806.588 5  -2972035.06821
  23594539.159    -3715653.055 5  -2681818.97721
 91  4 22 20 52 44.9990000  0  6G18G 2G19G11G16G 6
  21516979.401     3406287.384 7   2644398.09522
  21893410.8004   -8388233.00746  -6449599.97962
  20580266.2374   -1539574.13747  -1189773.69162
  22556369.4404   -4453733.22246  -3441365.99161
  23522761.2374   -4012482.26345  -2985808.34961
  23585993.097    -3760548.183 5  -2716802.05321
 91  4 22 20 52 59.9990000  0  6G18G 2G19G11G16G 6
  21522462.347     3435096.880 7   2666846.95522
  21884722.5504   -8433894.01846  -6485179.89862
  20579238.5504   -1544962.39347  -1193972.33962
  22553431.1834   -4469162.19546  -3453388.53161
  23519422.292    -4030026.837 5  -2999479.48421
  23577454.0424   -3805438.02045  -2751781.02461
 91  4 22 20 53 14.9990000  0  6G18G 2G19G11G16G 6
  21527966.3784    3464021.73447   2689385.69962
  21876052.9644   -8479455.39546  -6520682.17462
  20578230.9484   -1550271.19447  -1198109.07362
  22550529.2924   -4484412.33146  -3465271.72261
  23516114.5734   -4047410.51645  -3013025.24461
  23568911.7764   -3850292.69345  -2786732.57661
 91  4 22 20 53 29.9990000  0  6G18G 2G19G11G16G 6
  21533496.378     3493075.735 7   2712025.08422
  21867403.1284   -8524903.27646  -6556096.02362
  20577236.3554   -1555486.63247  -1202173.05962
  22547661.5344   -4499469.71146  -3477004.71261
  23512839.0344   -4064619.57245  -3026434.92861
  23560391.4644   -3895098.46945  -2821646.04061
 91  4 22 20 53 44.9990000  0  6G18G 2G19G11G16G 6
  21539039.300     3522205.861 7   2734723.77422
  21858766.1444   -8570290.20747  -6591462.36862
  20576252.7844   -1560661.33347  -1206205.30462
  22544823.8394   -4514386.82146  -3488628.40561
  23509585.948    -4081706.712 5  -3039749.63021
  23551864.730    -3939908.082 5  -2856562.50221
 91  4 22 20 53 59.9990000  0  6G18G 2G19G11G16G 6
  21544598.206     3551420.315 7   2757488.18522
  21850143.2764   -8615607.87046  -6626774.74262
  20575278.6834   -1565786.95247  -1210199.30062
  22542016.2924   -4529155.33446  -3500136.30361
  23506360.331    -4098663.540 5  -3052962.77321
  23543337.1204   -3984713.14945  -2891475.40761
 91  4 22 20 54 14.9990000  0  6G18G 2G19G11G16G 6
  21550177.276     3580733.675 7   2780329.65822
  21841533.1514   -8660841.12546  -6662021.34062
  20574314.2144   -1570848.37047  -1214143.26862
  22539235.4484   -4543760.17546  -3511516.66861
  23503161.464    -4115475.077 5  -3066062.72521
  23534815.7614   -4029498.71645  -2926373.14061
 91  4 22 20 54 29.9990000  0  6G18G 2G19G11G16G 6
  21555772.8314    3610146.58347   2803248.70862
  21832944.3234   -8705989.48847  -6697201.79262
  20573360.886    -1575845.006 7  -1218036.76722
  22536488.3084   -4558200.77246  -3522769.04961
  23499989.042    -4132140.977 5  -3079049.18221
  23526296.2764   -4074264.27045  -2961255.24261
 91  4 22 20 54 44.9990000  0  6G18G 2G19G11G16G 6
  21561390.034     3639654.589 7   2826241.85122
  21824367.8944   -8751057.08647  -6732319.30762
  20572425.5894   -1580780.91947  -1221882.94462
  22533769.1674   -4572481.27246  -3533896.68261
  23496844.7844   -4148665.67645  -3091925.61161
  23517779.683    -4119014.128 5  -2996125.12821
 91  4 22 20 54 59.9990000  0  6G18G 2G19G11G16G 6
  21567020.542     3669254.911 7   2849306.93622
  21815804.7844   -8796046.08347  -6767375.57662
  20571493.503    -1585658.402 7  -1225683.59222
  22531082.120    -4586603.842 6  -3544901.25421
  23493724.464    -4165051.302 5  -3104693.68021
  23509264.284    -4163750.506 5  -3030984.51721
 91  4 22 20 55 14.9990000  0  6G18G 2G19G11G16G 6
  21572671.940     3698942.412 7   2872439.95022
  21807259.6904   -8840961.39647  -6802374.42662
  20570579.3704   -1590482.55247  -1229442.68162
  22528425.831    -4600573.375 6  -3555786.57721
  23490639.073    -4181302.840 5  -3117357.25621
  23500753.7694   -4208478.46145  -3065837.35161
 91  4 22 20 55 29.9990000  0  6G18G 2G19G11G16G 6
  21578333.6754    3728703.74847   2895630.49762
  21798723.5344   -8885816.37847
  20569669.394    -1595266.485 7  -1233170.43522
  22525792.1284   -4614403.25546  -3566563.07861
  23487565.448    -4197433.577 5  -3129926.70321
  23492241.8474   -4253211.33245
 91  4 22 20 55 44.9990000  0  6G18G 2G19G11G16G 6
  21584011.409     3758545.720 7   2918883.87922
  21790199.6904   -8930603.77047
  20568766.706    -1600003.111 7  -1236861.32822
  22523188.714    -4628086.225 6  -3577225.10621
  23484519.323    -4213436.346 5  -3142396.44721
  23483730.9804   -4297942.03745
 91  4 22 20 55 59.9990000  0  6G18G 2G19G11G16G 6
  21589707.558     3788468.499 7   2942200.22222
  21781690.4334   -8975323.12647
  20567875.472    -1604691.863 7  -1240514.91522
  22520614.315    -4641621.706 6  -3587772.20521
  23481499.362    -4229310.708 5  -3154766.11121
  23475217.3234   -4342670.23545
 91  4 22 20 56 14.9990000  0  6G18G 2G19G11G16G 6
  21595421.120     3818487.462 7   2965591.51622
  21773197.8864   -9019958.71147  -6941852.47362
  20566995.308    -1609317.087 7  -1244118.99722
  22518068.7224   -4654994.04646  -3598192.18961
  23478508.847    -4245041.308 5  -3167023.77621
  23466710.495    -4387380.270 5  -3205240.86521
 91  4 22 20 56 29.9990000  0  6G18G 2G19G11G16G 6
  21601151.222     3848611.383 7   2989064.59922
  21764720.3234   -9064501.62947  -6976561.14562
  20566123.745    -1613869.907 7  -1247666.66322
  22515557.0114   -4668194.32346  -3608478.09361
  23475541.2764   -4260619.30545  -3179162.51061
  23458206.7844   -4432063.19145  -3240058.59461
 91  4 22 20 56 44.9990000  0  6G18G 2G19G11G16G 6
  21606904.089     3878823.218 7   3012606.18322
  21756259.1674   -9108968.44747  -7011210.51862
  20565272.940    -1618366.735 7  -1251170.70022
  22513075.105    -4681239.137 6  -3618642.86121
  23472603.2454   -4276061.38045  -3191195.33261
  23449704.3554   -4476735.79645  -3274868.30861
 91  4 22 20 56 59.9990000  0  6G18G 2G19G11G16G 6
  21612664.534     3909106.196 7   3036203.20222
  21747808.9014   -9153375.62447  -7045813.42162
  20564424.964    -1622824.396 7  -1254644.21822
  22510620.519    -4694145.062 6  -3628699.40221
  23469687.9014   -4291384.23045  -3203135.26561
  23441203.5194   -4521414.78745  -3309682.95861
 91  4 22 20 57 14.9990000  0  6G18G 2G19G11G16G 6
  21618444.425     3939479.348 7   3059870.48822
  21739371.2144   -9197704.04447  -7080354.95062
  20563588.081    -1627223.261 7  -1258071.91822
  22508194.089    -4706892.819 6  -3638632.70221
  23466800.878    -4306568.242 5  -3214966.99921
  23432708.6204   -4566080.82545  -3344487.55461
 91  4 22 20 57 29.9990000  0  6G18G 2G19G11G16G 6
  21624243.823     3969950.738 7   3083614.32322
  21730953.5734   -9241945.23847  -7114828.51362
  20562760.472    -1631555.137 7  -1261447.42222
  22505797.401    -4719473.849 6  -3648436.07521
  23463936.6124   -4321605.39145  -3226684.29561
  23424207.6674   -4610725.45945  -3379275.45961
 91  4 22 20 57 44.9990000  0  6G18G 2G19G11G16G 6
  21630055.792     4000504.595 7   3107422.41922
  21722548.5034   -9286114.92547  -7149246.35262
  20561948.815    -1635835.653 7  -1264782.90322
  22503431.183    -4731903.901 6  -3658121.81421
  23461099.823    -4336511.451 5  -3238299.45121
  23415713.4874   -4655364.61445  -3414059.12661
 91  4 22 20 57 59.9990000  0  6G18G 2G19G11G16G 6
  21635883.636     4031118.288 7   3131277.13722
  21714152.4334   -9330235.41247  -7183625.86062
  20561138.058    -1640087.213 7  -1268095.82522
  22501090.081    -4744205.427 6  -3667707.39421
  23458284.230    -4351309.169 5  -3249830.17421
  23407218.4254   -4700020.76345  -3448855.98961
 91  4 22 20 58 14.9990000  0  6G18G 2G19G11G16G 6
  21641725.300     4061822.024 7   3155202.01722
  21705771.8944   -9374275.88147  -7217943.01262
  20560342.753    -1644278.903 7  -1271362.09222
  22498781.722    -4756347.602 6  -3677168.81321
  23455495.519    -4365967.598 5  -3261252.36621
  23398719.4644   -4744662.99445  -3483642.01561
 91  4 22 20 58 29.9990000  0  6G18G 2G19G11G16G 6
  21647583.167     4092605.732 7   3179189.22122
  21697403.9724   -9418246.27647  -7252205.56162
  20559551.370    -1648420.525 7  -1274589.34722
  22496495.776    -4768340.128 6  -3686513.61821
  23452727.511    -4380496.833 5  -3272573.91021
  23390226.7374   -4789301.40645  -3518425.07761
 91  4 22 20 58 44.9990000  0  6G18G 2G19G11G16G 6
  21653456.980     4123471.042 7   3203240.00622
  21689050.6124   -9462144.79847  -7286412.10962
  20558775.183    -1652510.453 7  -1277776.32022
  22494244.870    -4780181.302 6  -3695740.49321
  23449990.058    -4394895.415 5  -3283793.60621
  23381735.0734   -4833934.34245  -3553203.85661
 91  4 22 20 58 59.9990000  0  6G18G 2G19G11G16G 6
  21659345.292     4154408.236 7   3227346.80522
  21680710.2534   -9505980.84447  -7320569.97662
  20558004.808    -1656557.850 7  -1280930.15122
  22492018.323    -4791880.590 6  -3704856.80121
  23447274.495    -4409172.575 5  -3294918.70121
  23373239.2614   -4878571.11345  -3587985.63961
 91  4 22 20 59 14.9990000  0  6G18G 2G19G11G16G 6
  21665244.667     4185416.458 7   3251508.94922
  21672379.4724   -9549754.77847  -7354679.44062
  20557243.347    -1660563.185 7  -1284051.20622
  22489820.784    -4803438.549 6  -3713862.98421
  23444580.714    -4423329.056 5  -3305949.77221
  23364745.011    -4923212.328 5  -3622770.85021
 91  4 22 20 59 29.9990000  0  6G18G 2G19G11G16G 6
  21671165.370     4216524.601 7   3275748.95522
  21664065.2694   -9593438.05647  -7388718.26762
  20556492.440    -1664497.880 7  -1287117.21922
  22487651.2224   -4814826.44646  -3722736.65561
  23441912.9644   -4437336.17445  -3316864.45661
  23356254.831    -4967829.412 5  -3657537.30021
 91  4 22 20 59 44.9990000  0  6G18G 2G19G11G16G 6
  21677104.440     4247734.602 7   3300068.32822
  21655772.2454   -9637027.97247  -7422684.33862
  20555759.745    -1668359.314 7  -1290126.14122
  22485519.081    -4826041.609 6  -3731475.72221
  23439272.487    -4451191.492 5  -3327660.85121
  23347767.1124   -5012419.66445  -3692282.81561
 91  4 22 20 59 59.9990000  0  6G18G 2G19G11G16G 6
  21683062.355     4279040.786 7   3324462.65422
  21647493.6754   -9680530.01647  -7456581.94462
  20555035.394    -1672152.930 7  -1293082.22222
  22483415.855    -4837089.458 6  -3740084.41321
  23436671.7144   -4464900.34645  -3338343.10961
  23339285.987    -5056988.657 5  -3727011.79121
 91  4 22 21  0 14.9990000  0  6G18G 2G19G11G16G 6
  21689035.394     4310430.604 7   3348922.14722
  21639229.3554   -9723956.25547  -7490420.47762
  20554328.034    -1675890.881 7  -1295994.92022
  22481344.847    -4847982.326 6  -3748572.34121
  23434084.7304   -4478475.01145  -3348920.83061
  23330809.6674   -5101548.75445  -3761733.82561
 91  4 22 21  0 29.9990000  0  6G18G 2G19G11G16G 6
  21695024.870     4341914.103 7   3373454.63022
  21630982.0114   -9767296.42347  -7524191.94462
  20553624.940    -1679563.041 7  -1298856.35922
  22479303.105    -4858709.894 6  -3756931.45921
  23431534.456    -4491905.639 5  -3359386.30321
  23322329.9954   -5146089.63745  -3796440.88361
 91  4 22 21  0 44.9990000  0  6G18G 2G19G11G16G 6
  21701033.550     4373487.821 7   3398057.42522
  21622752.4404   -9810553.87147  -7557898.95662
  20552941.495    -1683172.447 7  -1301668.89622
  22477292.995    -4869275.437 6  -3765164.32421
  23429001.089    -4505195.601 5  -3369742.15621
  23313857.3314   -5190614.66445  -3831135.58361
 91  4 22 21  0 59.9990000  0  6G18G 2G19G11G16G 6
  21707054.292     4405126.072 7   3422710.49722
  21614530.6054   -9853753.81847  -7591561.16262
  20552257.440    -1686744.112 7  -1304452.02622
  22475307.190    -4879704.124 6  -3773290.54221
  23426494.8084   -4518369.99845  -3380007.96961
  23305382.7374   -5235149.08645  -3865837.60261
 91  4 22 21  1 14.9980000  0  6G18G 2G19G11G16G 6
  21713092.100     4436844.487 7   3447426.03622
  21606324.2954   -9896875.45347  -7625162.34862
  20551592.647    -1690260.005 7  -1307191.69122
  22473349.9204   -4889977.50046  -3781295.74961
  23424011.443    -4531410.163 5  -3390169.18421
  23296909.5614   -5279672.18545  -3900530.80361
 91  4 22 21  1 29.9980000  0  6G18G 2G19G11G16G 6
  21719143.897     4468646.350 7   3472206.59822
  21598130.3424   -9939925.17247  -7658707.49162
  20550930.178    -1693721.430 7  -1309888.92022
  22471426.232    -4900097.669 6  -3789181.57021
  23421556.561    -4544318.990 5  -3400228.06121
  23288439.412    -5324190.558 5  -3935220.32321
 91  4 22 21  1 44.9980000  0  6G18G 2G19G11G16G 6
  21725207.693     4500520.969 7   3497043.85122
  21589951.6394   -9982908.65347  -7692201.02762
  20550283.6544   -1697136.59247  -1312550.09862
  22469526.607    -4910072.328 6  -3796954.00621
  23419125.326    -4557103.920 5  -3410190.40321
  23279968.490    -5368709.819 5  -3969910.51921
 91  4 22 21  1 59.9980000  0  6G18G 2G19G11G16G 6
  21731291.147     4532487.062 7   3521952.39222
  21581789.7724  -10025806.56347  -7725627.87962
  20549643.193    -1700486.095 7  -1315160.11022
  22467658.3974   -4919882.11046  -3804597.96261
  23416718.4984   -4569745.51545  -3420041.04961
  23271498.3974   -5413210.63645  -4004586.33361
 91  4 22 21  2 14.9980000  0  6G18G 2G19G11G16G 6
  21737389.553     4564530.798 7   3546921.42422
  21573639.3344  -10068632.46547  -7758998.62462
  20549019.553    -1703783.581 7  -1317729.59122
  22465824.1074   -4929540.77246  -3812124.16061
  23414334.0294   -4582257.93245  -3429791.02261
  23263028.8184   -5457706.71545  -4039258.47761
 91  4 22 21  2 29.9980000  0  6G18G 2G19G11G16G 6
  21743499.037     4596635.455 7   3571937.92522
  21565501.0144  -10111403.00547  -7792326.22962
  20548396.4364   -1707045.69047  -1320271.50562
  22464009.5924   -4939064.99446  -3819545.60061
  23411972.8734   -4594658.09345  -3439453.53361
  23254560.7254   -5502214.86445  -4073940.03161
 91  4 22 21  2 44.9980000  0  6G18G 2G19G11G16G 6
  21749626.7794    4628826.99247   3597022.12662
  21557375.1234  -10154091.78847  -7825590.13262
  20547789.443    -1710245.972 6  -1322765.24422
  22462227.2094   -4948428.44946  -3826841.77161
  23409645.9754   -4606919.53445  -3449007.93761
  23246096.3424   -5546708.67645  -4108610.41361
 91  4 22 21  2 59.9980000  0  6G18G 2G19G11G16G 6
  21755763.061     4661078.933 7   3622153.39622
  21549263.373   -10196725.121 7  -7858810.82522
  20547185.201    -1713410.429 7  -1325231.06622
  22460472.2874   -4957657.36446  -3834033.09861
  23407330.701    -4619068.378 5  -3458474.62121
  23237627.357    -5591214.403 5  -4143290.06921
 91  4 22 21  3 14.9980000  0  6G18G 2G19G11G16G 6
  21761911.084     4693403.370 6   3647341.15122
  21541164.3734  -10239290.54347  -7891978.60062
  20546593.4284   -1716526.71347  -1327659.35262
  22458745.8114   -4966739.24446  -3841109.85561
  23405045.5144   -4631092.58445  -3467844.18061
  23229156.9124   -5635719.69445  -4177969.39561
 91  4 22 21  3 29.9980000  0  6G18G 2G19G11G16G 6
  21768080.584     4725816.468 6   3672597.99622
  21533079.9824  -10281771.65847  -7925080.68362
  20546009.920    -1719578.366 7  -1330037.27422
  22457049.1474   -4975657.79046  -3848059.33661
  23402784.943    -4642975.848 5  -3477103.90521
  23220690.7094   -5680208.19045  -4212635.62661
 91  4 22 21  3 44.9980000  0  6G18G 2G19G11G16G 6
  21774263.7874    4758301.08546   3697910.56362
  21525008.717   -10324185.060 7  -7958130.00022
  20545442.248    -1722582.000 7  -1332377.78222
  22455378.2794   -4984429.54946  -3854894.43461
  23400546.107    -4654734.634 5  -3486266.64121
  23212226.045    -5724696.512 5  -4247301.71621
 91  4 22 21  3 59.9980000  0  6G18G 2G19G11G16G 6
  21780462.6074    4790870.88146   3723289.50762
  21516953.4364  -10366516.96447  -7991115.81062
  20544878.709    -1725524.143 7  -1334670.37222
  22453737.2404   -4993040.97646  -3861604.60061
  23398337.8504   -4666355.46845  -3495321.89261
  23203762.3974   -5769171.15445  -4281957.15061
 91  4 22 21  4 14.9980000  0  6G18G 2G19G11G16G 6
  21786676.3264    4823534.08246   3748741.22462
  21508914.693   -10408759.085 7  -8024031.66422
  20544334.920    -1728396.259 7  -1336908.39822
  22452133.7724   -5001483.70946  -3868183.31861
  23396151.6934   -4677830.37545  -3504263.43961
  23195302.264    -5813623.715 5  -4316595.40221
 91  4 22 21  4 29.9980000  0  6G18G 2G19G11G16G 6
  21792906.8504    4856271.42746   3774250.73262
  21500889.4204  -10450930.19847  -8056892.18362
  20543798.803    -1731217.273 6  -1339106.60222
  22450554.1004   -5009776.59646  -3874645.27561
  23393991.1314   -4689178.34745  -3513106.05961
  23186844.295    -5858073.128 5  -4351231.17921
 91  4 22 21  4 44.9980000  0  6G18G 2G19G11G16G 6
  21799148.9044    4889075.06546   3799811.88362
  21492877.990   -10493037.983 7  -8089703.35622
  20543268.037    -1733994.705 7  -1341270.84822
  22449004.0764   -5017927.28246  -3880996.43161
  23391853.607    -4700406.967 5  -3521855.67621
  23178384.6704   -5902526.97245  -4385870.40661
 91  4 22 21  4 59.9980000  0  6G18G 2G19G11G16G 6
  21805403.8184    4921950.78746   3825429.21262
  21484876.897   -10535076.419 7  -8122460.48922
  20542749.451    -1736722.386 7  -1343396.32622
  22447479.6004   -5025929.66146  -3887232.01461
  23389746.303    -4711510.435 5  -3530507.76621
  23169927.5684   -5946979.27145  -4420508.45061
 91  4 22 21  5 14.9980000  0  6G18G 2G19G11G16G 6
  21811676.3034    4954908.77846   3851110.64062
  21476893.0224  -10577034.62347  -8155155.11462
  20542242.8344   -1739389.43146  -1345474.55363
  22445988.8894   -5033773.05146  -3893343.71661
  23387655.842    -4722478.016 5  -3539053.99221
  23161471.139    -5991419.441 5  -4455137.03121
 91  4 22 21  5 29.9980000  0  6G18G 2G19G11G16G 6
  21817963.0224    4987943.35846   3876851.74962
  21468923.6234  -10618918.28647  -8187791.64762
  20541744.975    -1742001.379 7  -1347509.83823
  22444525.2794   -5041463.13646  -3899335.95161
  23385594.1544   -4733315.45545  -3547498.80161
  23153011.8894   -6035852.87045  -4489760.36061
 91  4 22 21  5 44.9980000  0  6G18G 2G19G11G16G 6
  21824268.0924    5021074.55546   3902668.13862
  21460968.9904  -10660706.98647  -8220354.19062
  20541264.443    -1744537.945 6  -1349486.40023
  22443093.7724   -5048979.61046  -3905192.91561
  23383556.443    -4744002.309 5  -3555826.26221
  23144564.0294   -6080259.44245  -4524362.77361
 91  4 22 21  5 59.9980000  0  6G18G 2G19G11G16G 6
  21830584.4984    5054266.18746   3928531.62362
  21453028.897   -10702436.712 7  -8252870.77622
  20540785.467    -1747035.121 7  -1351432.26423
  22441690.1074   -5056358.44146  -3910942.62161
  23381547.107    -4754574.959 5  -3564064.75521
  23136112.842    -6124675.149 5  -4558972.28821
 91  4 22 21  6 14.9980000  0  6G18G 2G19G11G16G 6
  21836914.6474    5087524.03146   3954446.70162
  21445101.826   -10744101.529 7  -8285336.78622
  20540321.529    -1749486.923 6  -1353342.77323
  22440312.2254   -5063593.78446  -3916580.52061
  23379556.9594   -4765027.45445  -3572209.60661
  23127659.0454   -6169094.08545  -4593584.31861
 91  4 22 21  6 29.9980000  0  6G18G 2G19G11G16G 6
  21843255.2644    5120859.45246   3980422.23162
  21437187.123   -10785689.562 7  -8317742.96022
  20539865.178    -1751881.574 6  -1355208.75223
  22438964.787    -5070673.944 6  -3922097.50721
  23377594.1784   -4775348.44645  -3580251.96661
  23119206.4514   -6213504.55945  -4628189.77161
 91  4 22 21  6 44.9980000  0  6G18G 2G19G11G16G 6
  21849611.8114    5154263.70046   4006451.39062
  21429285.467   -10827209.603 7  -8350096.15822
  20539419.193    -1754227.623 6  -1357036.85523
  22437647.0064   -5077607.60346  -3927500.32661
  23375651.5374   -4785546.21345  -3588198.34861
  23110754.537    -6257915.153 5  -4662795.31021
 91  4 22 21  6 59.9980000  0  6G18G 2G19G11G16G 6
  21855983.2094    5187737.94846   4032535.09762
  21421399.022   -10868659.861 7  -8382394.98022
  20538979.920    -1756523.251 7  -1358825.67523
  22436355.522    -5084393.028 6  -3932787.64821
  23373737.2014   -4795619.66945  -3596047.83461
  23102305.186    -6302324.199 5  -4697399.64821
 91  4 22 21  7 14.9980000  0  6G18G 2G19G11G16G 6
  21862368.1934    5221291.14646   4058680.32062
  21413525.576   -10910031.183 7  -8414632.29722
  20538557.498    -1758759.304 6  -1360568.07023
  22435094.467    -5091021.077 6  -3937952.34321
  23371845.631    -4805559.523 5  -3603793.22521
  23093855.5844   -6346722.65145  -4731995.74061
 91  4 22 21  7 29.9980000  0  6G18G 2G19G11G16G 6
  21868765.8114    5254908.93446   4084875.87362
  21405664.857   -10951337.865 7  -8446819.23922
  20538136.787    -1760950.029 7  -1362275.14523
  22433859.748    -5097506.163 6  -3943005.63421
  23369977.670    -4815380.387 5  -3611445.91621
  23085403.053    -6391124.771 5  -4766594.67721
 91  4 22 21  7 44.9980000  0  6G18G 2G19G11G16G 6
  21875178.1934    5288603.94746   4111131.60162
  21397817.779   -10992566.993 7  -8478945.75122
  20537734.639    -1763082.555 6  -1363936.86923
  22432657.100    -5103835.457 6  -3947937.53121
  23368139.506    -4825069.428 5  -3618995.86821
  23076958.342    -6435517.716 5  -4801186.47121
 91  4 22 21  7 59.9980000  0  6G18G 2G19G11G16G 6
  21881605.0064    5322372.28946   4137444.46962
  21389986.537   -11033721.857 7  -8511014.39522
  20537339.943    -1765160.214 6  -1365555.84023
  22431480.389    -5110012.151 6  -3952750.52221
  23366309.4984   -4834630.07445  -3626445.77861
  23068512.4594   -6479904.85645  -4835773.73361
 91  4 22 21  8 14.9980000  0  6G18G 2G19G11G16G 6
  21888040.7954    5356202.74246   4163805.73862
  21382168.842   -11074813.736 7  -8543033.96622
  20536953.631    -1767194.005 6  -1367140.62723
  22430329.092    -5116047.500 6  -3957453.37021
  23364515.7484   -4844073.55745  -3633804.39561
  23060064.2954   -6524297.29645  -4870365.14761
 91  4 22 21  8 29.9980000  0  6G18G 2G19G11G16G 6
  21894494.0534    5390113.99246   4190229.96362
  21374364.053   -11115823.290 7  -8574989.38422
  20536578.787    -1769164.721 6  -1368676.27423
  22429213.076    -5121922.480 6  -3962031.26021
  23362748.2404   -4853380.74245  -3641056.81261
  23051622.7014   -6568675.90645  -4904945.76961
 91  4 22 21  8 44.9980000  0  6G18G 2G19G11G16G 6
  21900964.7094    5424110.08446   4216720.29262
  21366576.068   -11156746.439 7  -8606877.46922
  20536215.561    -1771068.384 6  -1370159.66323
  22428125.498    -5127633.127 6  -3966481.08821
  23361000.826    -4862547.985 5  -3648200.17721
  23043179.178    -6613036.797 5  -4939512.59221
 91  4 22 21  8 59.9980000  0  6G18G 2G19G11G16G 6
  21907450.2644    5458187.94846   4243274.34762
  21358804.795   -11197585.668 7  -8638700.17522
  20535862.115    -1772907.424 7  -1371592.69523
  22427071.147    -5133181.905 6  -3970804.80121
  23359279.7954   -4871577.93845  -3655236.55361
  23034738.420    -6657382.434 5  -4974067.52021
 91  4 22 21  9 14.9980000  0  6G18G 2G19G11G16G 6
  21913948.9044    5492335.80546   4269882.94161
  21351046.959   -11238352.932 7  -8670466.79122
  20535524.193    -1774693.469 6  -1372984.43923
  22426043.795    -5138580.647 6  -3975011.60021
  23357585.295    -4880482.317 5  -3662175.09121
  23026301.381    -6701724.658 5  -5008619.79621
 91  4 22 21  9 29.9980000  0  6G18G 2G19G11G16G 6
  21920459.2174    5526553.70546   4296546.11061
  21343301.920   -11279047.899 7  -8702177.08422
  20535195.670    -1776426.272 6  -1374334.69523
  22425044.115    -5143829.172 6  -3979101.34221
  23355916.764    -4889261.134 5  -3669015.77721
  23017864.8734   -6746063.16845  -5043169.16961
 91  4 22 21  9 44.9980000  0  6G18G 2G19G11G16G 6
  21926980.037     5560822.482 6   4323248.92421
  21335569.9124  -11319689.12247  -8733845.49963
  20534874.287    -1778124.319 6  -1375657.86323
  22424069.8424   -5148946.10146  -3983088.54761
  23354266.373    -4897933.135 5  -3675773.23621
  23009421.326    -6790416.616 5  -5077730.18721
 91  4 22 21  9 59.9980000  0  6G18G 2G19G11G16G 6
  21933514.8654    5595159.75746   4350005.11661
  21327847.834   -11360258.707 7  -8765458.08722
  20534556.826    -1779769.718 7  -1376940.01023
  22423127.514    -5153913.647 6  -3986959.35021
  23352640.732    -4906480.807 5  -3682433.81321
  23000984.9594   -6834767.06145  -5112288.87461
 91  4 22 21 10 14.9980000  0  6G18G 2G19G11G16G 6
  21940063.2254    5629573.06346   4376820.55361
  21320145.0924  -11400749.09147  -8797008.96562
  20534257.045    -1781354.918 6  -1378175.24623
  22422211.8264   -5158724.39646  -3990707.97461
  23351035.7564   -4914896.53045  -3688991.56261
  22992545.3344   -6879107.22245  -5146839.53261
 91  4 22 21 10 29.9980000  0  6G18G 2G19G11G16G 6
  21946626.4904    5664068.19446   4403699.75061
  21312455.342   -11441154.100 7  -8828493.31722
  20533965.568    -1782873.595 7  -1379358.64723
  22421327.490    -5163371.999 6  -3994329.47521
  23349466.209    -4923174.074 5  -3695441.63221
  22984113.287    -6923430.656 5  -5181377.16221
 91  4 22 21 10 44.9980000  0  6G18G 2G19G11G16G 6
  21953208.2484    5698644.77746   4430642.41261
  21304782.2014  -11481473.68447  -8859911.10462
  20533692.178    -1784325.533 6  -1380490.04223
  22420473.9044   -5167856.45246  -3997823.84761
  23347913.9284   -4931313.65345  -3701784.23461
  22975677.1314   -6967737.45545  -5215901.85061
 91  4 22 21 10 59.9980000  0  6G18G 2G19G11G16G 6
  21959800.936     5733295.141 6   4457642.56221
  21297125.6234  -11521715.30347  -8891268.14762
  20533426.4124   -1785718.40846  -1381575.41363
  22419648.9754   -5172185.41346  -4001197.06061
  23346390.4674   -4939322.69145  -3708025.07661
  22967252.1004   -7012035.14245  -5250419.40861
 91  4 22 21 11 14.9980000  0  6G18G 2G19G11G16G 6
  21966407.904     5768010.795 6   4484693.59021
  21289479.3734  -11561887.27347  -8922570.91262
  20533174.318    -1787060.457 6  -1382621.17823
  22418852.7404   -5176367.15846  -4004455.55461
  23344888.0614   -4947209.95345  -3714171.07661
  22958821.8654   -7056331.89845  -5284936.26361
 91  4 22 21 11 29.9980000  0  6G18G 2G19G11G16G 6
  21973028.350     5802803.017 6   4511804.28221
  21281851.4044  -11601977.95647  -8953810.33762
  20532928.654    -1788340.026 6  -1383618.25623
  22418086.2254   -5180390.24646  -4007590.42261
  23343409.7564   -4954963.99645  -3720213.25161
  22950391.6074   -7100616.25545  -5319443.44561
 91  4 22 21 11 44.9980000  0  6G18G 2G19G11G16G 6
  21979661.795     5837660.845 6   4538966.09221
  21274236.3114  -11641998.08047  -8984994.78162
  20532694.803    -1789567.583 6  -1384574.80723
  22417349.0614   -5184265.30646  -4010609.94561
  23341963.397    -4962595.432 5  -3726159.87921
  22941967.2644   -7144898.74346  -5353949.17061
 91  4 22 21 11 59.9980000  0  6G18G 2G19G11G16G 6
  21986307.1704    5872587.54846   4566181.57661
  21266633.7254  -11681944.12847  -9016121.50462
  20532470.467    -1790739.715 7  -1385488.17023
  22416642.732    -5187988.921 6  -4013511.45021
  23340535.865    -4970101.213 5  -3732008.58321
  22933542.795    -7189176.170 5  -5388450.96421
 91  4 22 21 12 14.9980000  0  6G18G 2G19G11G16G 6
  21992968.443     5907588.860 6   4593455.19221
  21259046.3264  -11721810.21047  -9047185.91662
  20532260.022    -1791850.810 7  -1386353.96923
  22415961.6394   -5191555.49746  -4016290.58961
  23339132.803    -4977475.386 5  -3737754.75721
  22925118.4754   -7233442.69046  -5422944.25961
 91  4 22 21 12 29.9980000  0  6G18G 2G19G11G16G 6
  21999640.295     5942649.303 6   4620774.88721
  21251473.9594  -11761611.40747  -9078199.77162
  20532055.904    -1792915.549 7  -1387183.65123
  22415312.8894   -5194980.00846  -4018959.03761
  23337747.756    -4984733.251 5  -3743410.29921
  22916694.537    -7277713.179 5  -5457440.65321
 91  4 22 21 12 44.9980000  0  6G18G 2G19G11G16G 6
  22006328.311     5977783.363 6   4648151.94121
  21243914.5684  -11801332.78047  -9109151.42262
  20531868.381    -1793918.985 6  -1387965.56223
  22414688.0064   -5198247.65046  -4021505.24261
  23336394.303    -4991860.329 5  -3748963.92121
  22908272.4364   -7321972.91645  -5491928.65961
 91  4 22 21 12 59.9980000  0  6G18G 2G19G11G16G 6
  22013024.967     6012988.450 6   4675584.34221
  21236370.9754  -11840976.68147  -9140042.71162
  20531685.287    -1794863.220 7  -1388701.34323
  22414097.8184   -5201360.79546  -4023931.06661
  23335065.576    -4998858.793 5  -3754417.33421
  22899850.8654   -7366224.10445  -5526410.00761
 91  4 22 21 13 14.9980000  0  6G18G 2G19G11G16G 6
  22019739.279     6048261.662 6   4703069.82821
  21228841.6704  -11880545.95847  -9170875.84763
  20531518.092    -1795751.157 7  -1389393.25423
  22413533.2324   -5204322.43546  -4026238.82561
  23333757.4754   -5005731.51345  -3759772.77661
  22891431.8814   -7410469.58145  -5560886.90561
 91  4 22 21 13 29.9980000  0  6G18G 2G19G11G16G 6
  22026465.928     6083612.569 6   4730615.85221
  21221327.1394  -11920030.65647  -9201643.07762
  20531360.217    -1796572.820 7  -1390033.52523
  22412998.9284   -5207122.80146  -4028420.92861
  23332472.912    -5012469.089 5  -3765022.87321
  22883015.1394   -7454699.55945  -5595351.73361
 91  4 22 21 13 44.9980000  0  6G18G 2G19G11G16G 6
  22033207.498     6119039.723 6   4758221.29021
  21213829.2874  -11959431.91847  -9232345.29562
  20531219.201    -1797329.256 7  -1390622.96823
  22412500.2724   -5209762.85046  -4030478.10661
  23331216.6704   -5019072.60445  -3770168.53361
  22874601.2794   -7498915.19545  -5629805.38261
 91  4 22 21 13 59.9980000  0  6G18G 2G19G11G16G 6
  22039962.365     6154530.761 6   4785876.51021
  21206346.9124  -11998761.59347  -9262991.72663
  20531081.154    -1798032.518 7  -1391170.97623
  22412024.6474   -5212254.76346  -4032419.85161
  23329981.514    -5025554.160 5  -3775219.13021
  22866185.943    -7543128.390 5  -5664257.11821
 91  4 22 21 14 14.9980000  0  6G18G 2G19G11G16G 6
  22046727.693     6190083.715 6   4813579.97421
  21198874.6864  -12038021.50147  -9293583.80362
  20530959.811    -1798684.350 6  -1391678.91023
  22411578.1154   -5214600.36946  -4034247.59161
  23328771.1314   -5031915.69845  -3780176.23561
  22857770.436    -7587340.858 5  -5698708.31921
 91  4 22 21 14 29.9980000  0  6G18G 2G19G11G16G 6
  22053501.943     6225696.178 6   4841329.80521
  21191416.4514  -12077213.92847  -9324123.29162
  20530842.920    -1799286.976 7  -1392148.50323
  22411158.3894   -5216802.00946  -4035963.15061
  23327589.3264   -5038159.78045  -3785041.81161
  22849359.7954   -7631554.98346  -5733160.77161
 91  4 22 21 14 44.9980000  0  6G18G 2G19G11G16G 6
  22060292.107     6261370.843 6   4869128.11421
  21183971.4594  -12116335.69347  -9354607.71663
  20530740.631    -1799837.244 7  -1392577.29523
  22410767.7794   -5218856.78746  -4037564.26861
  23326418.2874   -5044283.40945  -3789813.53061
  22840945.811    -7675767.757 5  -5767612.19921
 91  4 22 21 14 59.9980000  0  6G18G 2G19G11G16G 6
  22067092.311     6297106.845 6   4896974.20621
  21176539.6314  -12155387.50947  -9385037.64362
  20530642.318    -1800335.794 7  -1392965.78923
  22410404.0374   -5220765.31946  -4039051.43961
  23325278.4364   -5050287.55145  -3794492.13761
  22832532.2644   -7719979.74546  -5802062.99361
 91  4 22 21 15 14.9980000  0  6G18G 2G19G11G16G 6
  22073906.795     6332912.128 6   4924874.28921
  21169124.1864  -12194361.05647  -9415406.57563
  20530564.326    -1800774.168 7  -1393307.39123
  22410070.8424   -5222519.37546  -4040418.22961
  23324161.693    -5056163.848 5  -3799071.11721
  22824120.0454   -7764182.57445  -5836506.66861
 91  4 22 21 15 29.9980000  0  6G18G 2G19G11G16G 6
  22080734.709     6368789.927 6   4952830.87621
  21161722.0374  -12233253.22647  -9445712.09962
  20530488.693    -1801148.829 7  -1393599.35023
  22409765.2644   -5224115.86346  -4041662.24361
  23323061.5614   -5061909.44945  -3803548.26361
  22815711.162    -7808373.134 6  -5870940.77621
 91  4 22 21 15 44.9980000  0  6G18G 2G19G11G16G 6
  22087572.5684    6404730.55746   4980836.41761
  21154334.6544  -12272073.25647  -9475961.40962
  20530430.576    -1801469.249 7  -1393849.04023
  22409490.7794   -5225564.01646  -4042790.67161
  23321996.787    -5067533.709 5  -3807930.89021
  22807302.0294   -7852560.57846  -5905372.46061
 91  4 22 21 15 59.9980000  0  6G18G 2G19G11G16G 6
  22094423.701     6440729.293 6   5008887.24321
  21146960.8974  -12310825.34547  -9506157.78163
  20530376.982    -1801739.602 7  -1394059.72023
  22409243.8184   -5226868.19246  -4043806.91061
  23320951.8184   -5073040.97245  -3812222.32061
  22798891.3114   -7896749.18345  -5939805.04461
 91  4 22 21 16 14.9980000  0  6G18G 2G19G11G16G 6
  22101287.8814    6476797.81746   5036992.44661
  21139600.8504  -12349497.62647  -9536291.96163
  20530339.873    -1801948.094 7  -1394222.19423
  22409022.4044   -5228016.82346  -4044701.94761
  23319929.311    -5078419.586 5  -3816413.53521
  22790487.7014   -7940927.34445  -5974229.48961
 91  4 22 21 16 29.9980000  0  6G18G 2G19G11G16G 6
  22108165.5064    6512944.24746   5065158.35161
  21132259.6234  -12388081.73547  -9566357.44463
  20530310.162    -1802086.141 7
  22408838.7724   -5229001.60646  -4045469.31361
  23318926.9824   -5083661.38145  -3820498.11161
  22782081.1394   -7985086.53545  -6008639.15561
 91  4 22 21 16 44.9980000  0  6G18G 2G19G11G16G 6
  22115056.732     6549157.755 6   5093376.53421
  21124931.5924  -12426588.09147  -9596362.33263
  20530300.225    -1802164.176 7
  22408680.2324   -5229832.92746  -4046117.08661
  23317948.936    -5088777.132 5  -3824484.46921
  22773682.3264   -8029237.10545  -6043042.10061
 91  4 22 21 16 59.9980000  0  6G18G 2G19G11G16G 6
  22121963.9284    6585442.66146   5121650.34361
  21117618.6394  -12465012.22847  -9626303.15563
  20530293.647    -1802177.499 7
  22408551.1154   -5230506.34947  -4046641.82761
  23317004.5064   -5093762.16545  -3828368.98461
  22765282.7094   -8073374.52246  -6077434.80261
 91  4 22 21 17 14.9980000  0  6G18G 2G19G11G16G 6
  22128878.936     6621791.493 6   5149973.96321
  21110323.0144  -12503361.16447  -9656185.38163
  20530304.850    -1802133.169 6
  22408451.4824   -5231029.12446  -4047049.18161
  23316079.8814   -5098623.75345  -3832157.30061
  22756883.7324   -8117505.93146  -6111822.82761
 91  4 22 21 17 29.9980000  0  6G18G 2G19G11G16G 6
  22135810.1074    6658206.17546   5178348.89661
  21103039.3734  -12541632.92947  -9686007.47363
  20530323.389    -1802029.300 7
  22408379.3654   -5231399.40646  -4047337.71361
  23315178.553    -5103360.372 5  -3835848.24321
  22748487.170    -8161629.494 5  -6146204.72921
 91  4 22 21 17 44.9980000  0  6G18G 2G19G11G16G 6
  22142752.0224    6694683.40846   5206772.56961
  21095768.8504  -12579830.59747  -9715771.83563
  20530354.256    -1801869.019 7
  22408338.0454   -5231620.44546  -4047509.93961
  23314302.4824   -5107975.10445  -3839444.20961
  22740093.662    -8205748.299 5  -6180582.91821
 91  4 22 21 17 59.9980000  0  6G18G 2G19G11G16G 6
  22149705.631     6731231.256 6   5235251.26821
  21088515.8974  -12617945.77247  -9745471.91363
  20530394.998    -1801643.547 7
  22408327.9594   -5231683.78046
  23313448.2174   -5112459.91745  -3842938.91761
  22731698.6934   -8249853.80545  -6214950.74461
 91  4 22 21 18 14.9980000  0  6G18G 2G19G11G16G 6
  22156675.6154    6767849.68146   5263784.96361
  21081278.2644  -12655977.96747  -9775107.32863
  20530452.256    -1801352.533 7  -1393758.23123
  22408345.0454   -5231589.09046
  23312616.2644   -5116814.47645  -3846332.16661
  22723310.1934   -8293945.60046  -6249307.88661
 91  4 22 21 18 29.9980000  0  6G18G 2G19G11G16G 6
  22163655.2484    6804543.79246   5292377.63461
  21074060.2794  -12693921.95247  -9804674.01163
  20530519.272    -1800990.618 7
  22408393.6314   -5231331.19946
  23311814.5454   -5121033.48445  -3849619.76061
  22714924.2324   -8338018.39946  -6283650.23061
 91  4 22 21 18 44.9980000  0  6G18G 2G19G11G16G 6
  22170650.975     6841301.003 6   5321019.46921
  21066853.3034  -12731790.12247  -9834181.62163
  20530600.842    -1800570.169 6
  22408471.6624   -5230922.53746
  23311032.8814   -5125129.68845  -3852811.67461
  22706537.7404   -8382084.53846  -6317987.38761
 91  4 22 21 18 59.9980000  0  6G18G 2G19G11G16G 6
  22177657.240     6878120.019 6   5349709.46621
  21059661.943   -12769583.257 7  -9863630.76523
  20530692.326    -1800091.984 6  -1392776.02423
  22408577.1314   -5230364.01846  -4046530.93061
  23310279.5294   -5129104.22045  -3855908.76061
  22698152.4674   -8426144.86146  -6352320.01261
 91  4 22 21 19 14.9980000  0  6G18G 2G19G11G16G 6
  22184672.998     6914990.349 6   5378439.44921
  21052484.4904  -12807311.96247  -9893029.69763
  20530792.2254   -1799566.48046  -1392366.55363
  22408712.3504   -5229666.25146  -4045987.21761
  23309547.170    -5132967.496 5  -3858919.17121
  22689766.5614   -8470209.87146  -6386656.28961
 91  4 22 21 19 29.9980000  0  6G18G 2G19G11G16G 6
  22191703.4284    6951926.19046   5407220.47661
  21045318.2094  -12844961.55547  -9922366.98363
  20530899.678    -1798978.946 7  -1391908.74423
  22408872.8034   -5228814.82246  -4045323.77261
  23308836.0614   -5136705.16745  -3861831.71461
  22681381.904    -8514265.011 6  -6420984.86821
 91  4 22 21 19 44.9980000  0  6G18G 2G19G11G16G 6
  22198742.631     6988916.390 6   5436043.86521
  21038167.014   -12882542.726 7  -9951650.95923
  20531026.7724   -1798340.05647  -1391410.92263
  22409061.4754   -5227820.61946  -4044549.07061
  23308145.975    -5140328.218 5  -3864654.92921
  22672998.4514   -8558320.96046  -6455314.09661
 91  4 22 21 19 59.9980000  0  6G18G 2G19G11G16G 6
  22205792.7724    7025966.19846   5464913.69561
  21031029.3424  -12920050.13647  -9980877.45563
  20531155.2254   -1797644.40147  -1390868.86463
  22409280.2324   -5226678.33446  -4043658.98661
  23307474.4674   -5143831.30345  -3867384.68661
  22664616.834    -8602372.386 6  -6489639.78521
 91  4 22 21 20 14.9980000  0  6G18G 2G19G11G16G 6
  22212856.8654    7063082.27546   5493835.16661
  21023907.4594  -12957476.83147 -10010041.05863
  20531301.8974   -1796885.12046  -1390277.22763
  22409527.7324   -5225381.23346  -4042648.25361
  23306836.397    -5147207.864 5  -3870015.85121
  22656238.014    -8646412.383 6  -6523956.55621
 91  4 22 21 20 29.9980000  0  6G18G 2G19G11G16G 6
  22219930.1154    7100254.92346   5522800.71661
  21016799.4364  -12994832.30247 -10039149.15563
  20531459.0294   -1796071.40846  -1389643.17263
  22409801.2564   -5223938.73546  -4041524.23561
  23306216.756    -5150467.242 5  -3872555.69621
  22647854.6624   -8690450.24546  -6558271.67661
 91  4 22 21 20 44.9980000  0  6G18G 2G19G11G16G 6
  22227015.5614    7137485.59146   5551811.48161
  21009703.170   -13032114.835 7 -10068200.42823
  20531623.1784   -1795201.37547  -1388965.23463
  22410103.9594   -5222349.15846  -4040285.61061
  23305616.451    -5153608.143 5  -3875003.23221
  22639477.5064   -8734484.22046  -6592583.76161
 91  4 22 21 20 59.9980000  0  6G18G 2G19G11G16G 6
  22234109.8814    7174773.52146   5580866.85761
  21002621.826   -13069324.983 7 -10097195.28923
  20531800.678    -1794275.529 7  -1388243.81123
  22410431.8974   -5220613.33246  -4038933.02861
  23305042.2254   -5156631.23445  -3877358.95661
  22631094.9904   -8778514.91946  -6626893.30761
 91  4 22 21 21 14.9980000  0  6G18G 2G19G11G16G 6
  22241217.8734    7212120.21046   5609968.02561
  20995554.701   -13106460.999 7 -10126132.39523
  20531986.357    -1793292.004 6  -1387477.44123
  22410791.5764   -5218729.60846  -4037465.19361
  23304484.147    -5159535.022 5  -3879621.72521
  22622721.1864   -8822540.53446  -6661198.87661
 91  4 22 21 21 29.9980000  0  6G18G 2G19G11G16G 6
  22248340.3974    7249548.54546   5639132.80861
  20988509.107   -13143499.490 7 -10154993.49823
  20532184.717    -1792227.498 7  -1386647.96823
  22411181.7794   -5216674.69946  -4035863.97161
  23303963.9434   -5162296.23245  -3881773.40461
  22614345.7954   -8866537.72146  -6695482.30861
 91  4 22 21 21 44.9980000  0  6G18G 2G19G11G16G 6
  22255475.022     7287038.917 6   5668345.92821
  20981475.139   -13180459.795 7 -10183793.68123
  20532404.5764   -1791101.29947  -1385770.42563
  22411603.6074   -5214468.04146  -4034144.50361
  23303459.1234   -5164934.57645  -3883829.32561
  22605977.5224   -8910525.76746  -6729758.60961
 91  4 22 21 21 59.9980000  0  6G18G 2G19G11G16G 6
  22262618.6074    7324584.45646   5697602.04361
  20974454.7324  -13217348.58847 -10212538.13863
  20532628.943    -1789920.167 7  -1384850.07223
  22412050.8424   -5212116.43346  -4032312.08661
  23302979.357    -5167457.028 5  -3885794.91921
  22597606.029    -8954511.451 6  -6764033.06521
 91  4 22 21 22 14.9980000  0  6G18G 2G19G11G16G 6
  22269774.4824    7362185.68146   5726901.53961
  20967447.6704  -13254164.90847 -10241226.12463
  20532864.5924   -1788683.06647  -1383886.11163
  22412525.4044   -5209619.12546  -4030366.13861
  23302524.3114   -5169862.75745  -3887669.56861
  22589236.920    -8998493.850 6  -6798304.96821
 91  4 22 21 22 29.9980000  0  6G18G 2G19G11G16G 6
  22276939.2254    7399841.86146   5756243.86461
  20960456.6074  -13290909.49247 -10269858.20863
  20533107.256    -1787390.633 7  -1382879.03523
  22413026.3574   -5206976.82646  -4028307.20961
  23302083.592    -5172152.582 5  -3889453.89721
  22580867.2094   -9042473.60946  -6832574.82061
 91  4 22 21 22 44.9980000  0  6G18G 2G19G11G16G 6
  22284111.3814    7437534.92546   5785614.92161
  20953473.8264  -13327599.96047 -10298448.12563
  20533363.967    -1786060.436 7  -1381842.53323
  22413553.2254   -5204207.24646  -4026149.10261
  23301667.1474   -5174344.01445  -3891161.58461
  22572495.029    -9086468.197 6  -6866856.22621
 91  4 22 21 22 59.9980000  0  6G18G 2G19G11G16G 6
  22291297.0684    7475290.29946   5815034.53461
  20946505.5764  -13364210.59047 -10326975.83263
  20533625.897    -1784666.675 7  -1380756.49923
  22414109.6934   -5201284.91646  -4023871.97361
  23301279.8654   -5176411.78345  -3892772.96461
  22564126.5764   -9130452.05846  -6901129.26461
 91  4 22 21 23 14.9980000  0  6G18G 2G19G11G16G 6
  22298494.451     7513109.072 6   5844503.54421
  20939556.6474  -13400740.12547 -10355440.34663
  20533905.373    -1783207.936 6  -1379619.83123
  22414697.9984   -5198208.68146  -4021474.91361
  23300907.4594   -5178355.01545  -3894287.28361
  22555758.0764   -9174423.75846  -6935392.83361
 91  4 22 21 23 29.9980000  0  6G18G 2G19G11G16G 6
  22305702.389     7550985.685 6   5874017.62721
  20932620.1314  -13437193.89247 -10383845.81863
  20534191.678    -1781689.351 7  -1378436.53423
  22415312.0374   -5194983.92346  -4018962.11861
  23300559.498    -5180179.120 6  -3895708.73421
  22547393.279    -9218388.664 6  -6969651.10521
 91  4 22 21 23 44.9980000  0  6G18G 2G19G11G16G 6
  22312920.1784    7588914.24146   5903572.18961
  20925695.1314  -13473577.47847 -10412196.60063
  20534493.834    -1780116.569 6  -1377211.00223
  22415951.4124   -5191616.39846  -4016338.08161
  23300237.568    -5181889.630 6  -3897041.66621
  22539026.5844   -9262352.32946  -7003908.40861
 91  4 22 21 23 59.9980000  0  6G18G 2G19G11G16G 6
  22320146.248     7626900.196 6   5933171.47021
  20918786.9434  -13509885.04647 -10440488.15063
  20534804.420    -1778483.850 6  -1375938.77023
  22416620.8184   -5188100.42546  -4013598.36661
  23299932.818    -5183480.878 6  -3898281.65121
  22530662.1394   -9306308.93646  -7038160.22161
 91  4 22 21 24 14.9980000  0  6G18G 2G19G11G16G 6
  22327386.311     7664937.883 6   5962811.05421
  20911890.2794  -13546122.21547 -10468724.84363
  20535125.943    -1776796.623 6  -1374624.06423
  22417315.8814   -5184441.84346  -4010747.53361
  23299650.725    -5184959.282 5  -3899433.70221
  22522298.0764   -9350264.25646  -7072411.02561
 91  4 22 21 24 29.9980000  0  6G18G 2G19G11G16G 6
  22334636.232     7703039.835 6   5992500.72521
  20905011.1624  -13582275.93847 -10496896.50963
  20535457.631    -1775041.599 7  -1373256.52623
  22418043.3734   -5180627.57346  -4007775.37661
  23299394.7404   -5186311.69445  -3900487.59861
  22513935.8654   -9394204.94746  -7106650.42561
 91  4 22 21 24 44.9980000  0  6G18G 2G19G11G16G 6
  22341897.053     7741197.460 6   6022233.77421
  20898142.4204  -13618354.66447 -10525009.73863
  20535805.123    -1773227.331 6  -1371842.82923
  22418796.3894   -5176666.29946  -4004688.67461
  23299154.287    -5187546.780 5  -3901450.06721
  22505575.6234   -9438139.56246  -7140885.09861
 91  4 22 21 24 59.9980000  0  6G18G 2G19G11G16G 6
  22349172.506     7779422.807 6   6052019.59021
  20891295.0684  -13654346.01247 -10553054.88063
  20536163.732    -1771341.320 7  -1370373.22623
  22419581.0764   -5172545.72246  -4001477.84761
  23298949.5454   -5188652.16345  -3902311.50761
  22497217.6784   -9482055.54946  -7175105.26361
 91  4 22 21 25 14.9980000  0  6G18G 2G19G11G16G 6
  22356459.584     7817713.094 6   6081856.00821
  20884461.9754  -13690252.25147 -10581033.70563
  20536536.100    -1769385.572 7  -1368849.28923
  22420394.4984   -5168268.25246  -3998144.75761
  23298764.4284   -5189630.38645  -3903073.85361
  22488861.6474   -9525955.20046  -7209312.69161
 91  4 22 21 25 29.9980000  0  6G18G 2G19G11G16G 6
  22363755.756     7856056.631 6   6111733.91321
  20877644.3264  -13726085.16847 -10608955.39563
  20536917.928    -1767372.033 7  -1367280.31423
  22421237.0924   -5163845.78646  -3994698.68861
  23298599.6624   -5190493.38745  -3903746.41661
  22480509.803    -9569850.303 6  -7243516.57621
 91  4 22 21 25 44.9980000  0  6G18G 2G19G11G16G 6
  22371060.920     7894451.000 6   6141651.44121
  20870839.5064  -13761846.89947 -10636821.61363
  20537314.717    -1765302.710 6  -1365667.87423
  22422103.0844   -5159280.54746  -3991141.36561
  23298454.4284   -5191243.53545  -3904331.03961
  22472158.389    -9613742.998 6  -7277718.59121
 91  4 22 21 25 59.9980000  0  6G18G 2G19G11G16G 6
  22378379.037     7932895.053 6   6171607.66721
  20864047.1864  -13797538.26747 -10664633.00763
  20537713.545    -1763178.451 7  -1364012.62923
  22423003.0374   -5154573.59546  -3987473.61661
  23298333.6314   -5191882.19345  -3904828.78361
  22463803.9124   -9657634.05446  -7311919.32061
 91  4 22 21 26 14.9980000  0  6G18G 2G19G11G16G 6
  22385704.9984    7971390.83946   6201604.20661
  20857268.0844  -13833156.91947 -10692387.73563
  20538133.209    -1760996.741 7  -1362312.61723
  22423924.2644   -5149722.64846  -3983693.67261
  23298233.193    -5192407.168 5  -3905237.97221
  22455451.6314   -9701520.99846  -7346116.84561
 91  4 22 21 26 29.9980000  0  6G18G 2G19G11G16G 6
  22393041.826     8009945.878 6   6231646.92221
  20850505.1474  -13868695.07047 -10720079.73663
  20538558.904    -1758749.889 7  -1360561.84223
  22424876.209    -5144720.203 6  -3979795.67621
  23298156.959    -5192810.682 5  -3905552.42121
  22447105.5374   -9745396.16646  -7380305.19561
 91  4 22 21 26 44.9980000  0  6G18G 2G19G11G16G 6
  22400386.772     8048552.947 6   6261730.17421
  20843756.6544  -13904159.52947 -10747714.31663
  20539000.420    -1756444.502 7  -1358765.45823
  22425853.600    -5139573.104 6  -3975784.96121
  23298106.9754   -5193099.46945  -3905777.53361
  22438756.248    -9789266.339 6  -7414489.66121
 91  4 22 21 26 59.9980000  0  6G18G 2G19G11G16G 6
  22407745.779     8087221.861 6   6291861.61721
  20837025.9364  -13939540.25147 -10775283.64663
  20539448.639    -1754070.251 7  -1356915.41423
  22426864.5534   -5134271.26846  -3971653.67161
  23298072.053    -5193263.675 5
  22430411.8894   -9833121.17046  -7448662.18361
 91  4 22 21 27 14.9980000  0  6G18G 2G19G11G16G 6
  22415119.006     8125962.549 6   6322048.98621
  20830309.3654  -13974827.11647 -10802779.84063
  20539918.225    -1751617.172 6  -1355003.94423
  22427905.2724   -5128804.90246  -3967394.17461
  23298064.943    -5193293.978 5
  22422069.193    -9876950.785 6  -7482815.04221
 91  4 22 21 27 29.9980000  0  6G18G 2G19G11G16G 6
  22422500.889     8164759.942 6   6352280.55021
  20823608.1784  -14010034.93847 -10830214.44563
  20540394.170    -1749100.054 7  -1353042.57423
  22428970.2254   -5123189.02946  -3963018.18561
  23298084.748    -5193205.049 5
  22413733.811    -9920769.937 6  -7516959.75821
 91  4 22 21 27 44.9980000  0  6G18G 2G19G11G16G 6
  22429894.8114    8203607.89846   6382551.50161
  20816923.7404  -14045169.72447 -10857592.13763
  20540887.451    -1746524.772 6  -1351035.87823
  22430071.186    -5117429.825 6  -3958530.50221
  23298120.4124   -5193002.74845
  22405394.4904   -9964584.53146  -7551100.90861
 91  4 22 21 27 59.9980000  0  6G18G 2G19G11G16G 6
  22437296.2644    8242502.16046   6412858.54161
  20810250.9594  -14080235.39047 -10884915.97163
  20541385.061    -1743895.022 7  -1348986.74523
  22431190.170    -5111531.228 6  -3953934.21021
  23298184.8574   -5192691.85545
  22397057.8344  -10008398.51946  -7585241.58861
 91  4 22 21 28 14.9980000  0  6G18G 2G19G11G16G 6
  22444707.9904    8281460.13246   6443215.22461
  20803594.0534  -14115214.09647 -10912172.05063
  20541904.068    -1741193.095 6  -1346881.36823
  22432343.342    -5105475.682 6  -3949215.61421
  23298260.397    -5192254.785 5  -3905119.83121
  22388724.811   -10052193.941 6  -7619367.81321
 91  4 22 21 28 29.9980000  0  6G18G 2G19G11G16G 6
  22452132.5064    8320475.47346   6473616.60561
  20796954.1394  -14150112.00347 -10939365.16163
  20542425.568    -1738425.125 7  -1344724.52723
  22433523.5534   -5099269.32546  -3944379.50461
  23298364.506    -5191697.408 5  -3904685.61921
  22380392.709   -10095976.942 6  -7653484.35321
 91  4 22 21 28 44.9980000  0  6G18G 2G19G11G16G 6
  22459569.1624    8359546.15046   6504061.10361
  20790329.4044  -14184930.94347 -10966496.74563
  20542967.107    -1735592.735 6  -1342517.49123
  22434733.3344   -5092914.16146  -3939427.44161
  23298501.631    -5191022.244 5  -3904159.62721
  22372062.9674  -10139749.18846  -7687592.50961
 91  4 22 21 28 59.9980000  0  6G18G 2G19G11G16G 6
  22467015.0294    8398672.75946   6534549.19361
  20783717.9594  -14219670.03847 -10993566.11063
  20543517.272    -1732694.982 7  -1340259.52423
  22435973.162    -5086409.404 6  -3934358.81421
  23298651.4514   -5190228.42745  -3903541.16461
  22363733.826   -10183509.931 6  -7721691.71021
 91  4 22 21 29 14.9980000  0  6G18G 2G19G11G16G 6
  22474470.3344    8437844.04246   6565072.07361
  20777121.326   -14254340.120 7 -11020581.70823
  20544079.256    -1729742.770 6  -1337959.12223
  22437236.7724   -5079766.11346  -3929182.23161
  23298819.0684   -5189326.70445  -3902838.61861
  22355405.4674  -10227269.90646  -7755790.31561
 91  4 22 21 29 29.9980000  0  6G18G 2G19G11G16G 6
  22481930.756     8477061.460 6   6595630.91121
  20770535.053   -14288939.597 7 -11047542.28223
  20544654.701    -1726734.096 6  -1335614.72423
  22438526.678    -5072982.658 6  -3923896.43921
  23299013.279    -5188316.016 5  -3902051.15721
  22347079.311   -10271027.394 6  -7789886.99421
 91  4 22 21 29 44.9980000  0  6G18G 2G19G11G16G 6
  22489403.1934    8516333.71746   6626232.48661
  20763967.717   -14323459.565 7 -11074440.90523
  20545238.725    -1723660.106 6  -1333219.42523
  22439846.811    -5066050.439 6  -3918494.72721
  23299226.498    -5187187.476 5  -3901171.85021
  22338755.100   -10314773.374 6  -7823974.68121
 91  4 22 21 29 59.9980000  0  6G18G 2G19G11G16G 6
  22496889.7794    8555662.39046   6656878.01661
  20757414.326   -14357898.046 7 -11101276.03123
  20545833.365    -1720518.791 7  -1330771.66623
  22441192.8184   -5058967.71246  -3912975.72661
  23299467.037    -5185939.393 5  -3900199.39921
  22330432.701   -10358506.007 6  -7858051.98121
 91  4 22 21 30 14.9980000  0  6G18G 2G19G11G16G 6
  22504384.1624    8595043.58946   6687564.47261
  20750875.123   -14392258.757 7 -11128050.55823
  20546443.967    -1717313.724 6  -1328274.23123
  22442569.8114   -5051738.32046  -3907342.44961
  23299724.209    -5184575.760 5  -3899136.93021
  22322111.0144  -10402228.90446  -7892121.69661
 91  4 22 21 30 29.9980000  0  6G18G 2G19G11G16G 6
  22511889.061     8634485.432 6   6718298.19521
  20744352.053   -14426533.176 7 -11154757.83923
  20547066.451    -1714036.312 7  -1325720.42323
  22443975.0064   -5044353.82346  -3901588.31061
  23300009.1624   -5183088.10345  -3897977.79961
  22313796.990   -10445933.475 6  -7926177.12521
 91  4 22 21 30 44.9980000  0  6G18G 2G19G11G16G 6
  22519402.3264    8673979.47146   6749072.58561
  20737846.772   -14460729.666 7 -11181404.40423
  20547706.850    -1710695.060 6  -1323116.87123
  22445408.139    -5036822.816 6  -3895720.01321
  23300312.0764   -5181485.27845  -3896728.94661
  22305480.3344  -10489628.11646  -7960224.82361
 91  4 22 21 30 59.9980000  0  6G18G 2G19G11G16G 6
  22526927.834     8713525.720 6   6779887.65321
  20731352.506   -14494847.665 7 -11207989.80723
  20548349.686    -1707289.108 7  -1320462.90323
  22446869.279    -5029144.899 6  -3889737.22921
  23300638.803    -5179766.941 5  -3895390.08221
  22297166.826   -10533312.166 6  -7994264.26521
 91  4 22 21 31 14.9980000  0  6G18G 2G19G11G16G 6
  22534460.647     8753102.109 6   6810726.20721
  20724870.600   -14528909.221 7 -11234531.22823
  20549008.967    -1703840.430 7  -1317775.64323
  22448353.9824   -5021342.26246  -3883657.26361
  23300982.2324   -5177955.48745  -3893978.65661
  22288852.842   -10577007.649 6  -8028312.61421
 91  4 22 21 31 29.9980000  0  6G18G 2G19G11G16G 6
  22542003.4754    8792733.56846   6841607.67461
  20718404.9434  -14562889.20047 -11261009.07863
  20549678.545    -1700323.751 6  -1315035.38823
  22449867.5764   -5013389.89246  -3877460.62361
  23301352.1074   -5176025.55145  -3892474.88661
  22280539.576   -10620689.321 6  -8062350.20021
 91  4 22 21 31 44.9980000  0  6G18G 2G19G11G16G 6
  22549556.2094    8832415.11946   6872528.15761
  20711952.404   -14596792.129 7 -11287426.89023
  20550359.701    -1696743.684 6  -1312245.74823
  22451409.2014   -5005292.49646  -3871150.97361
  23301742.217    -5173982.127 5  -3890882.69321
  22272230.592   -10664361.729 6  -8096380.56521
 91  4 22 21 31 59.9970000  0  6G18G 2G19G11G16G 6
  22557113.9544    8872141.15946   6903483.32961
  20705517.212   -14630618.500 7 -11313785.04923
  20551049.860    -1693103.074 7  -1309408.93223
  22452978.251    -4997053.521 6  -3864731.00321
  23302149.181    -5171828.406 5  -3889204.55921
  22263919.446   -10708024.664 6  -8130403.55821
 91  4 22 21 32 14.9970000  0  6G18G 2G19G11G16G 6
  22564681.564     8911918.275 6   6934478.29021
  20699093.134   -14664371.164 7 -11340085.77923
  20551758.040    -1689399.839 6  -1306523.31523
  22454568.6424   -4988670.48746  -3858198.77761
  23302582.8994   -5169562.70645  -3887439.16761
  22255613.556   -10751682.300 6  -8164422.42021
 91  4 22 21 32 29.9970000  0  6G18G 2G19G11G16G 6
  22572263.337     8951756.799 6   6965521.09221
  20692686.759   -14698034.890 7 -11366317.20223
  20552472.610    -1685620.990 7  -1303578.77723
  22456195.8604   -4980130.99146  -3851544.63361
  23303036.9234   -5167172.39045  -3885576.69161
  22247308.392   -10795318.481 6  -8198424.56021
 91  4 22 21 32 44.9970000  0  6G18G 2G19G11G16G 6
  22579856.485     8991652.902 6   6996608.76721
  20686296.790   -14731613.021 7 -11392481.93123
  20553209.649    -1681769.680 6  -1300577.77823
  22457851.189    -4971438.465 6  -3844771.25221
  23303516.4464   -5164660.43645  -3883619.41361
  22239008.618   -10838936.464 6  -8232412.51921
 91  4 22 21 32 59.9970000  0  6G18G 2G19G11G16G 6
  22587460.157     9031602.123 6   7027737.83221
  20679922.157   -14765109.669 7 -11418583.16423
  20553956.493    -1677850.123 6  -1297523.60023
  22459533.8924   -4962597.24746  -3837882.00461
  23304015.1184   -5162031.64245  -3881571.11061
  22230713.3844  -10882540.37946  -8266389.52461
 91  4 22 21 33 14.9970000  0  6G18G 2G19G11G16G 6
  22595069.9934    9071594.25946   7058900.32861
  20673561.603   -14798534.981 7 -11444628.81023
  20554713.470    -1673872.465 6  -1294424.14723
  22461241.462    -4953617.761 6  -3830885.01221
  23304535.751    -5159296.568 5  -3879439.97721
  22222415.5324  -10926140.39746  -8300363.48661
 91  4 22 21 33 29.9970000  0  6G18G 2G19G11G16G 6
  22602689.306     9111635.951 6   7090101.43621
  20667215.993   -14831881.947 7 -11470613.40723
  20555482.868    -1669829.658 6  -1291273.93523
  22462977.532    -4944493.194 6  -3823774.96721
  23305080.603    -5156448.252 5  -3877220.60821
  22214121.3844  -10969729.51146  -8334328.95361
 91  4 22 21 33 44.9970000  0  6G18G 2G19G11G16G 6
  22610315.681     9151725.807 6   7121340.09121
  20660885.884   -14865151.789 7 -11496537.91123
  20556263.329    -1665722.499 6  -1288073.57623
  22464741.2824   -4935224.97546  -3816552.99361
  23305644.368    -5153487.962 5  -3874913.95921
  22205826.751   -11013308.734 6  -8368286.71821
 91  4 22 21 33 59.9970000  0  6G18G 2G19G11G16G 6
  22617955.2434    9191864.60646   7152616.86561
  20654569.407   -14898343.441 7 -11522401.48223
  20557053.696    -1661549.982 7  -1284822.28623
  22466531.2594   -4925812.12046  -3809218.30861
  23306230.2124   -5150415.27845  -3872519.73361
  22197538.048   -11056877.024 6  -8402235.94521
 91  4 22 21 34 14.9970000  0  6G18G 2G19G11G16G 6
  22625604.6104    9232053.42846   7183932.62661
  20648268.173   -14931455.616 7 -11548203.12823
  20557864.642    -1657310.658 6  -1281518.94223
  22468354.212    -4916253.426 6  -3801769.98921
  23306837.5954   -5147228.77045  -3870036.84661
  22189247.149   -11100433.021 6  -8436175.61521
 91  4 22 21 34 29.9970000  0  6G18G 2G19G11G16G 6
  22633263.0714    9272297.42946   7215291.37161
  20641984.220   -14964482.818 7 -11573938.55923
  20558686.040    -1652999.106 6  -1278159.31123
  22470197.3684   -4906543.55046  -3794203.85461
  23307456.1654   -5143923.24044  -3867461.21561
  22180963.931   -11143971.103 6  -8470101.31021
 91  4 22 21 34 44.9970000  0  6G18G 2G19G11G16G 6
  22640930.845     9312590.231 6   7246688.15121
  20635715.196   -14997431.027 7 -11599612.43623
  20559516.985    -1648621.160 6  -1274747.95123
  22472075.2674   -4896688.72846  -3786524.77861
  23308112.603    -5140505.026 5  -3864797.78221
  22172679.0714  -11187497.20246  -8504017.68761
 91  4 22 21 34 59.9970000  0  6G18G 2G19G11G16G 6
  22648607.2514    9352923.51546   7278116.48361
  20629457.915   -15030308.472 7 -11625231.17023
  20560358.837    -1644184.985 6  -1271291.21223
  22473975.1424   -4886697.41446  -3778739.34561
  23308780.4624   -5136982.61145  -3862053.15161
  22164397.743   -11231019.546 6  -8537931.11421
 91  4 22 21 35 14.9970000  0  6G18G 2G19G11G16G 6
  22656290.165     9393311.657 6   7309587.54321
  20623217.610   -15063100.316 7 -11650783.20323
  20561220.845    -1639675.737 6  -1267777.53023
  22475906.853    -4876554.969 6  -3770836.15221
  23309476.9784   -5133341.57045  -3859216.05861
  22156118.407   -11274523.283 6  -8571830.04821
 91  4 22 21 35 29.9970000  0  6G18G 2G19G11G16G 6
  22663980.743     9433732.724 5   7341084.27321
  20616989.423   -15095828.337 7 -11676285.50723
  20562085.540    -1635114.824 6  -1264223.59023
  22477862.5244   -4866283.08546  -3762832.08661
  23310188.8064   -5129603.45145  -3856303.32561
  22147841.517   -11318029.811 6  -8605731.16921
 91  4 22 21 35 44.9970000  0  6G18G 2G19G11G16G 6
  22671684.7434    9474196.53746   7372614.29961
  20610775.517   -15128482.487 7 -11701730.25023
  20562968.782    -1630492.302 6  -1260621.64623
  22479843.0644   -4855871.97246  -3754719.53361
  23310920.790    -5125758.529 5  -3853307.34721
  22139562.798   -11361529.182 6  -8639626.69621
 91  4 22 21 35 59.9970000  0  6G18G 2G19G11G16G 6
  22679390.2514    9514700.78146   7404175.83461
  20604576.439   -15161065.109 7 -11727119.24923
  20563856.782    -1625810.507 6  -1256973.51523
  22481847.399    -4845324.243 6  -3746500.53921
  23311672.4464   -5121809.46745  -3850230.24961
  22131286.7514  -11405023.79946  -8673518.52161
 91  4 22 21 36 14.9970000  0  6G18G 2G19G11G16G 6
  22687108.1264    9555250.26846   7435772.62761
  20598389.915   -15193570.785 7 -11752448.29323
  20564762.243    -1621063.905 6  -1253274.88223
  22483881.9234   -4834634.60646  -3738170.95461
  23312447.8534   -5117751.07145  -3847067.98761
  22123009.907   -11448508.000 6  -8707402.24221
 91  4 22 21 36 29.9970000  0  6G18G 2G19G11G16G 6
  22694828.6574    9595840.09345   7467400.83561
  20592219.524   -15226004.001 7 -11777720.87523
  20565677.876    -1616257.008 6  -1249529.26723
  22485943.1574   -4823807.93846  -3729734.58361
  23313237.1894   -5113588.13045  -3843824.23461
  22114739.251   -11491986.464 6  -8741281.47921
 91  4 22 21 36 44.9970000  0  6G18G 2G19G11G16G 6
  22702567.5094    9636484.21246   7499071.36261
  20586064.9314  -15258350.72047 -11802926.05463
  20566606.173    -1611375.481 6  -1245725.49723
  22488030.8764   -4812830.30246  -3721180.58161
  23314050.7044   -5109306.67845  -3840488.13661
  22106466.860   -11535444.831 6  -8775145.06321
 91  4 22 21 36 59.9970000  0  6G18G 2G19G11G16G 6
  22710312.6964    9677182.95446   7530784.45461
  20579924.017   -15290610.616 7 -11828063.58023
  20567546.462    -1606418.946 6  -1241863.28323
  22490150.306    -4801701.381 6  -3712508.71221
  23314885.8764   -5104906.65945  -3837059.64461
  22098201.134   -11578882.675 6  -8808992.65421
 91  4 22 21 37 14.9970000  0  6G18G 2G19G11G16G 6
  22718063.939     9717917.962 6   7562525.78721
  20573798.423   -15322801.620 7 -11853147.42823
  20568504.056    -1601405.172 6  -1237956.46423
  22492296.0484   -4790439.24046  -3703733.02361
  23315741.774    -5100406.325 5  -3833552.97321
  22089937.696   -11622317.880 6  -8842838.18721
 91  4 22 21 37 29.9970000  0  6G18G 2G19G11G16G 6
  22725823.0174    9758697.61646   7594301.91261
  20567686.290   -15354914.875 7 -11878170.68323
  20569468.712    -1596325.261 6  -1233998.11023
  22494464.8924   -4779035.29546  -3694846.83161
  23316623.056    -5095796.874 5  -3829961.29921
  22081671.720   -11665741.442 6  -8876674.66221
 91  4 22 21 37 44.9970000  0  6G18G 2G19G11G16G 6
  22733593.196     9799514.978 6   7626107.43521
  20561589.071   -15386957.138 7 -11903138.62623
  20570447.243    -1591186.016 6  -1229993.52423
  22496658.5174   -4767496.60646  -3685855.64361
  23317520.1654   -5091085.63245  -3826290.29761
  22073410.860   -11709160.282 6  -8910507.43821
 91  4 22 21 37 59.9970000  0  6G18G 2G19G11G16G 6
  22741364.353     9840366.647 5   7657939.68621
  20555506.017   -15418931.810 7 -11928053.90423
  20571434.774    -1585990.754 6  -1225945.28723
  22498880.0644   -4755826.65346  -3676762.17861
  23318433.8454   -5086276.25445  -3822542.83961
  22065148.853   -11752577.657 6  -8944339.08721
 91  4 22 21 38 14.9970000  0  6G18G 2G19G11G16G 6
  22749149.6344    9881272.41845   7689814.08861
  20549436.110   -15450818.723 7 -11952900.79423
  20572439.524    -1580719.106 6  -1221837.52523
  22501131.3534   -4744005.57246  -3667550.95761
  23319375.7354   -5081348.51745  -3818703.14761
  22056889.7594  -11795973.29446  -8978153.80261
 91  4 22 21 38 29.9970000  0  6G18G 2G19G11G16G 6
  22756941.704     9922219.737 6   7721720.86121
  20543382.118   -15482630.054 7 -11977688.79123
  20573453.134    -1575383.162 6  -1217679.66523
  22503404.5794   -4732045.66546  -3658231.55061
  23320333.126    -5076315.098 5  -3814781.11221
  22048634.9784  -11839359.29446  -9011960.97661
 91  4 22 21 38 44.9970000  0  6G18G 2G19G11G16G 6
  22764739.884     9963210.776 5   7753661.70821
  20537343.915   -15514363.100 7 -12002415.78623
  20574481.087    -1569980.157 6  -1213469.54923
  22505706.8924   -4719944.41746  -3648802.01161
  23321313.3684   -5071173.65545  -3810774.91661
  22040381.579   -11882732.962 6  -9045758.56721
 91  4 22 21 38 59.9970000  0  6G18G 2G19G11G16G 6
  22772549.251    10004234.007 5   7785627.63721
  20531318.282   -15546029.600 7 -12027090.92823
  20575519.431    -1564521.886 6  -1209216.37023
  22508037.1424   -4707713.88446  -3639271.73561
  23322304.696    -5065935.804 5  -3806693.58721
  22032125.439   -11926105.913 6  -9079555.60221
 91  4 22 21 39 14.9970000  0  6G18G 2G19G11G16G 6
  22780363.267    10045302.697 5   7817628.97121
  20525306.282   -15577615.935 7 -12051703.59923
  20576575.165    -1558994.481 6  -1204909.31523
  22510390.2744   -4695340.38346  -3629630.04461
  23323321.649    -5060588.009 5  -3802526.55321
  22023875.595   -11969464.284 6  -9113341.26821
 91  4 22 21 39 29.9970000  0  6G18G 2G19G11G16G 6
  22788187.423    10086410.245 6   7849660.59921
  20519310.603   -15609128.494 7 -12076258.79223
  20577634.392    -1553404.316 6  -1200553.36023
  22512770.8684   -4682830.52546  -3619882.11061
  23324358.9314   -5055137.37545  -3798279.37461
  22015624.603   -12012814.404 6  -9147120.50521
 91  4 22 21 39 44.9970000  0  6G18G 2G19G11G16G 6
  22796019.860    10127560.631 6   7881725.59221
  20513327.907   -15640562.841 7 -12100753.03123
  20578714.595    -1547746.831 6
  22515176.9784   -4670180.12746  -3610024.66761
  23325416.634    -5049579.467 5
  22007380.9234  -12056151.82346  -9180889.84361
 91  4 22 21 39 59.9970000  0  6G18G 2G19G11G16G 6
  22803857.4704   10168764.44645   7913832.24261
  20507364.618   -15671908.113 7 -12125177.86723
  20579802.548    -1542011.047 6
  22517613.1034   -4657378.48846  -3600049.36961
  23326494.462    -5043903.707 5
  21999137.767   -12099465.561 6  -9214640.73421
 91  4 22 21 40 14.9970000  0  6G18G 2G19G11G16G 6
  22811704.314    10210000.477 5   7945963.98221
  20501413.837   -15703185.610 7 -12149549.88823
  20580907.392    -1536218.259 6
  22520076.8994   -4644447.12146  -3589972.98061
  23327596.665    -5038131.468 5
  21990895.415   -12142776.825 6  -9248389.69221
 91  4 22 21 40 29.9970000  0  6G18G 2G19G11G16G 6
  22819557.470    10251256.979 5   7978111.67421
  20495472.360   -15734406.805 7 -12173878.04023
  20582017.267    -1530379.802 6
  22522558.759    -4631397.586 6  -3579804.52821
  23328708.946    -5032274.582 5
  21982652.1104  -12186097.00746  -9282145.61161
 91  4 22 21 40 44.9970000  0  6G18G 2G19G11G16G 6
  22827415.8684   10292563.03845   8010297.96961
  20489547.712   -15765541.853 7 -12198139.06523
  20583145.384    -1524465.700 6
  22525069.5484   -4618200.42046  -3569521.03761
  23329845.923    -5026303.573 5
  21974411.735   -12229396.189 6  -9315885.15021
 91  4 22 21 40 59.9970000  0  6G18G 2G19G11G16G 6
  22835285.501    10333912.138 5   8042517.82621
  20483638.946   -15796597.429 7 -12222338.16023
  20584279.915    -1518482.469 6  -1173341.64923
  22527608.4154   -4604862.34546  -3559127.73961
  23331003.376    -5020225.239 5  -3771075.77021
  21966175.845   -12272680.991 6  -9349613.49021
 91  4 22 21 41 14.9970000  0  6G18G 2G19G11G16G 6
  22843161.7514   10375304.11145   8074771.05961
  20477743.923   -15827573.083 7 -12246474.98023
  20585434.868    -1512429.699 6  -1168625.22323
  22530174.5954   -4591383.17246  -3548624.48761
  23332178.7984   -5014039.35045  -3766255.71661
  21957941.493   -12315950.874 6  -9383330.20621
 91  4 22 21 41 29.9970000  0  6G18G 2G19G11G16G 6
  22851047.751    10416733.211 5   8107053.22821
  20471862.774   -15858474.301 7 -12270553.80123
  20586595.728    -1506312.694 6  -1163858.74923
  22532764.876    -4577768.536 6  -3538015.69921
  23333377.774    -5007751.323 5  -3761356.05021
  21949709.564   -12359211.173 6  -9417039.45521
 91  4 22 21 41 44.9970000  0  6G18G 2G19G11G16G 6
  22858937.6424   10458209.52845   8139372.20661
  20465997.603   -15889290.821 7 -12294566.62323
  20587776.165    -1500121.212 6  -1159034.24023
  22535382.720    -4564008.506 6  -3527293.61221
  23334594.532    -5001351.630 5  -3756369.34821
  21941480.345   -12402451.580 6  -9450733.20521
 91  4 22 21 41 59.9970000  0  6G18G 2G19G11G16G 6
  22866837.5324   10499721.66345   8171719.08961
  20460147.118   -15920034.145 7 -12318522.40923
  20588965.931    -1493866.765 6  -1154160.66523
  22538026.7284   -4550114.88146  -3516467.42261
  23335836.0794   -4994852.08145  -3751304.83961
  21933253.173   -12445683.633 6  -9484420.43821
 91  4 22 21 42 14.9970000  0  6G18G 2G19G11G16G 6
  22874744.118    10541260.187 5   8204086.51021
  20454310.103   -15950713.376 7 -12342428.25123
  20590167.610    -1487558.072 6  -1149244.81923
  22540693.5954   -4536096.70046  -3505544.16661
  23337086.2984   -4988261.88345  -3746169.78461
  21925027.564   -12488916.110 6  -9518108.00321
 91  4 22 21 42 29.9970000  0  6G18G 2G19G11G16G 6
  22882653.6184   10582834.60045   8236481.92861
  20448485.798   -15981318.758 7 -12366276.55023
  20591378.743    -1481185.199 6  -1144278.96823
  22543389.8144   -4521944.50646  -3494516.49261
  23338358.9624   -4981571.48445  -3740956.61061
  21916801.376   -12532139.314 6  -9551788.34921
 91  4 22 21 42 44.9970000  0  6G18G 2G19G11G16G 6
  22890575.251    10624460.475 5   8268917.41521
  20442679.446   -16011834.143 7 -12390054.72423
  20592609.056    -1474732.108 6  -1139250.60723
  22546107.9074   -4507642.41146  -3483372.00761
  23339655.3144   -4974765.06045  -3735652.99361
  21908581.556   -12575336.913 6  -9585448.73721
 91  4 22 21 42 59.9970000  0  6G18G 2G19G11G16G 6
  22898506.1034   10666124.53845   8301382.68761
  20436885.868   -16042272.810 7 -12413773.11423
  20593846.829    -1468211.998 6  -1134170.02223
  22548855.3454   -4493203.69546  -3472121.06861
  23340973.103    -4967856.005 5  -3730269.43421
  21900362.0094  -12618522.01046  -9619099.39361
 91  4 22 21 43 14.9970000  0  6G18G 2G19G11G16G 6
  22906438.915    10707813.307 5   8333867.19521
  20431105.931   -16072647.882 7 -12437441.95223
  20595099.548    -1461637.937 6  -1129047.40023
  22551628.4854   -4478641.69046  -3460774.06461
  23342301.6814   -4960857.70945  -3724816.32661
  21892145.603   -12661707.632 6  -9652750.44521
 91  4 22 21 43 29.9970000  0  6G18G 2G19G11G16G 6
  22914377.306    10749524.619 5   8366369.26221
  20425338.024   -16102961.220 7 -12461062.68523
  20596359.392    -1455011.576 6  -1123884.02523
  22554419.4394   -4463958.55446  -3449332.66361
  23343648.399    -4953772.179 5  -3719295.23021
  21883928.032   -12704895.542 6  -9686403.28421
 91  4 22 21 43 44.9970000  0  6G18G 2G19G11G16G 6
  22922323.860    10791276.933 5   8398903.28021
  20419584.696   -16133194.251 7 -12484620.84624
  20597636.196    -1448314.377 6  -1118665.45123
  22557239.6494   -4449135.98146  -3437782.61361
  23345017.0564   -4946581.21645  -3713691.97761
  21875712.181   -12748067.212 6  -9720043.46921
 91  4 22 21 43 59.9970000  0  6G18G 2G19G11G16G 6
  22930274.040    10833061.867 5   8431462.70621
  20413844.821   -16163355.113 7 -12508122.76523
  20598921.165    -1441554.490 6  -1113398.03123
  22560087.6424   -4434182.35446  -3426130.44861
  23346409.337    -4939293.346 5  -3708013.23921
  21867498.5404  -12791230.71346  -9753677.28561
 91  4 22 21 44 14.9970000  0  6G18G 2G19G11G16G 6
  22938232.6654   10874883.60245   8464050.82961
  20408119.118   -16193439.296 7 -12531564.94123
  20600221.532    -1434727.110 6  -1108078.02023
  22562958.298    -4419093.217 6  -3414372.69221
  23347811.314    -4931904.142 5  -3702255.53621
  21859285.228   -12834381.317 6  -9787301.06321
 91  4 22 21 44 29.9970000  0  6G18G 2G19G11G16G 6
  22946197.204    10916740.037 5   8496665.96621
  20402408.282   -16223448.640 7 -12554948.79923
  20601529.853    -1427833.971 6  -1102706.76323
  22565854.9934   -4403870.60846  -3402510.93461
  23349240.7204   -4924415.63345  -3696420.44561
  21851076.728   -12877520.698 6  -9820916.08421
 91  4 22 21 44 44.9970000  0  6G18G 2G19G11G16G 6
  22954171.306    10958638.740 5   8529314.04521
  20396714.087   -16253375.296 7 -12578268.22623
  20602859.282    -1420867.230 6  -1097278.15623
  22568782.2594   -4388506.97746  -3390539.27661
  23350679.4934   -4916820.51345  -3690502.28161
  21842870.657   -12920640.957 6  -9854516.21621
 91  4 22 21 44 59.9970000  0  6G18G 2G19G11G16G 6
  22962150.759    11000579.141 5   8561994.62521
  20391034.853   -16283219.582 7 -12601523.46723
  20604195.470    -1413827.238 7  -1091792.47323
  22571726.0954   -4373003.03846  -3378458.29061
  23352151.204    -4909119.569 5  -3684501.63621
  21834668.9234  -12963742.53246  -9888101.78461
 91  4 22 21 45 14.9970000  0  6G18G 2G19G11G16G 6
  22970137.7204   11042546.89045   8594696.48861
  20385368.368   -16312995.482 7 -12624725.42423
  20605549.4394   -1406727.63246  -1086260.34563
  22574704.5324   -4357372.65246  -3366278.78461
  23353631.8924   -4901326.46145  -3678429.19661
  21826471.431   -13006839.061 6  -9921683.41421
 91  4 22 21 45 29.9970000  0  6G18G 2G19G11G16G 6
  22978132.2984   11084540.70145   8627418.68861
  20379713.939   -16342704.228 7 -12647875.05323
  20606912.423    -1399569.547 6  -1080682.63623
  22577701.3294   -4341617.39646  -3354001.96961
  23355131.993    -4893442.716 5  -3672286.10121
  21818266.774   -13049931.607 6  -9955261.95521
 91  4 22 21 45 44.9970000  0  6G18G 2G19G11G16G 6
  22986132.3924   11126587.56145   8660182.19861
  20374078.1894  -16372318.76147 -12670951.27263
  20608289.970    -1392325.891 6  -1075038.25323
  22580729.0094   -4325710.30446  -3341606.84161
  23356651.423    -4885441.468 5  -3666051.50021
  21810073.649   -13092993.019 6  -9988816.21921
 91  4 22 21 45 59.9970000  0  6G18G 2G19G11G16G 6
  22994140.009    11168670.169 5   8692973.56221
  20368458.071   -16401855.970 7 -12693967.23623
  20609682.595    -1385013.551 6  -1069340.34823
  22583780.7674   -4309668.55146  -3329106.77661
  23358193.626    -4877340.102 5  -3659738.82321
  21801881.1264  -13136040.17946 -10022359.39361
 91  4 22 21 46 14.9970000  0  6G18G 2G19G11G16G 6
  23002153.3924   11210780.78745   8725786.77061
  20362851.7204  -16431323.03347 -12716928.54163
  20611085.1964   -1377639.67446  -1063594.50063
  22586857.439    -4293499.730 6  -3316507.71721
  23359753.954    -4869146.352 5  -3653354.20321
  21793690.446   -13179080.269 6 -10055897.04621
 91  4 22 21 46 29.9970000  0  6G18G 2G19G11G16G 6
  23010169.9394   11252910.60245   8758614.92861
  20357255.446   -16460728.653 7 -12739841.96723
  20612494.774    -1370212.690 6  -1057807.26523
  22589958.6574   -4277212.59146  -3303816.45161
  23361332.8764   -4860868.83145  -3646904.30461
  21785499.7984  -13222121.77046 -10089435.81061
 91  4 22 21 46 44.9970000  0  6G18G 2G19G11G16G 6
  23018196.899    11295080.451 5   8791474.27221
  20351674.8064  -16490051.88747 -12762691.20063
  20613926.5484   -1362711.58746  -1051962.27563
  22593083.8534   -4260786.37746  -3291016.81061
  23362925.5324   -4852486.73945  -3640372.91061
  21777311.196   -13265143.581 6 -10122959.22421
 91  4 22 21 46 59.9970000  0  6G18G 2G19G11G16G 6
  23026228.876    11337289.227 5   8824363.95221
  20346109.954   -16519293.669 7 -12785476.96223
  20615367.040    -1355137.091 6  -1046060.09423
  22596235.892    -4244222.277 6  -3278109.73921
  23364542.1344   -4844001.39845  -3633761.07861
  21769130.8454  -13308146.55446 -10156467.95761
 91  4 22 21 47 14.9970000  0  6G18G 2G19G11G16G 6
  23034266.3924   11379549.26745   8857293.57661
  20340565.845   -16548441.379 7 -12808189.42123
  20616824.392    -1347476.632 6  -1040090.93223
  22599416.032    -4227507.754 6  -3265085.45621
  23366175.7124   -4835400.46645  -3627059.13561
  21760953.353   -13351117.878 6 -10189952.02721
 91  4 22 21 47 29.9970000  0  6G18G 2G19G11G16G 6
  23042318.0244   11421840.89145   8890247.82461
  20335032.7434  -16577514.64747 -12830843.87463
  20618293.696    -1339749.727 6  -1034069.99023
  22602622.7824   -4210662.64946  -3251959.40461
  23367830.7594   -4826703.74045  -3620282.61461
  21752779.478   -13394077.065 6 -10223426.65221
 91  4 22 21 47 44.9970000  0  6G18G 2G19G11G16G 6
  23050368.118    11464147.133 5   8923213.43021
  20329510.7044  -16606529.75747 -12853453.01063
  20619775.790    -1331972.617 6  -1028009.92623
  22605849.6814   -4193703.72546  -3238744.67961
  23369505.329    -4817927.644 5  -3613444.17821
  21744606.970   -13437040.330 6 -10256904.44221
 91  4 22 21 47 59.9970000  0  6G18G 2G19G11G16G 6
  23058423.267    11506482.558 5   8956201.80321
  20324002.532   -16635471.948 7 -12876005.32323
  20621264.439    -1324130.518 6  -1021899.22223
  22609098.087    -4176616.420 6  -3225429.91521
  23371183.0094   -4809057.99945  -3606532.88761
  21736432.860   -13479992.960 6 -10290373.95621
 91  4 22 21 48 14.9970000  0  6G18G 2G19G11G16G 6
  23066487.548    11548858.906 5   8989222.04721
  20318512.8994  -16664329.35547 -12898491.57663
  20622774.587    -1316211.435 6  -1015728.53223
  22612371.5794   -4159388.95146  -3212005.93361
  23372900.5174   -4800082.93145  -3599539.42761
  21728262.337   -13522922.814 6 -10323825.71621
 91  4 22 21 48 29.9970000  0  6G18G 2G19G11G16G 6
  23074558.837    11591273.819 5   9022272.35121
  20313037.6034  -16693104.04947 -12920913.37563
  20624293.626    -1308217.172 6  -1009499.25623
  22615676.345    -4142023.569 6  -3198474.48721
  23374625.0644   -4791004.79945  -3592465.69861
  21720093.6734  -13565831.80246 -10357261.22461
 91  4 22 21 48 44.9970000  0  5G18G 2G19G11G 6
  23082640.6264   11633730.01745   9055354.80361
  20307576.985   -16721793.065 7 -12943268.41123
  20625831.118    -1300144.679 6  -1003209.02123
  22619008.298    -4124517.548 6  -3184833.45621
  21711932.5714  -13608716.79646 -10390678.03461
 91  4 22 21 48 59.9970000  0  5G18G 2G19G11G 6
  23090722.0794   11676207.80645   9088454.10961
  20302129.884   -16750415.952 7 -12965571.91723
  20627379.509    -1292013.534 6   -996873.08923
  22622363.1814   -4106890.70346  -3171098.27061
  21703772.4234  -13651597.24846 -10424091.30461
 91  4 22 21 49 14.9970000  0  5G18G 2G19G11G 6
  23098814.196    11718717.574 5   9121578.30321
  20296698.3764  -16778961.64247 -12987815.27263
  20628939.431    -1283812.708 6   -990482.86123
  22625745.876    -4089132.349 6  -3157260.62621
  21695617.0094  -13694462.22246 -10457492.51461
 91  4 22 21 49 29.9970000  0  5G18G 2G19G11G 6
  23106910.3214   11761260.52445   9154728.36961
  20291281.8144  -16807429.09747 -13009997.66463
  20630510.173    -1275540.978 6   -984037.38023
  22629151.095    -4071241.582 6  -3143319.78521
  21687461.5324  -13737310.45946 -10490880.68061
 91  4 22 21 49 44.9970000  0  5G18G 2G19G11G 6
  23115012.9784   11803833.91145   9187902.14161
  20285878.970   -16835820.874 7 -13032121.08823
  20632101.767    -1267200.757 6   -977538.52723
  22632576.1184   -4053221.14346  -3129277.89461
  21679315.3994  -13780144.36446 -10524257.67561
 91  4 22 21 49 59.9970000  0  5G18G 2G19G11G 6
  23123115.9544   11846433.04145   9221095.97961
  20280489.4784  -16864141.26247 -13054188.88463
  20633698.899    -1258796.273 6   -970989.60623
  22636032.0404   -4035075.52746  -3115138.49761
  21671165.1344  -13822968.06646 -10557626.73261
 91  4 22 21 50 14.9970000  0  5G18G 2G19G11G 6
  23131229.189    11889067.412 5   9254317.27321
  20275114.790   -16892380.435 7 -13076193.39123
  20635314.743    -1250317.642 6   -964382.90123
  22639511.743    -4016795.174 6  -3100894.08921
  21663019.1894  -13865771.64046 -10590980.10361
 91  4 22 21 50 29.9970000  0  5G18G 2G19G11G 6
  23139346.9154   11931722.22645   9287554.49461
  20269753.2434  -16920553.17747 -13098146.13763
  20636936.603    -1241779.274 6   -957729.65223
  22643014.181    -3998394.969 6  -3086556.27821
  21654876.110   -13908569.622 6 -10624329.10621
 91  4 22 21 50 44.9970000  0  5G18G 2G19G11G 6
  23147472.376    11974410.000 5   9320817.42021
  20264405.3994  -16948646.69847 -13120037.15363
  20638578.0484   -1233168.68746   -951020.13563
  22646542.376    -3979862.406 6  -3072115.36221
  21646733.3214  -13951349.13246 -10657663.73861
 91  4 22 21 50 59.9970000  0  5G18G 2G19G11G 6
  23155596.6184   12017110.90745   9354090.53861
  20259073.2044  -16976680.36547 -13141881.53063
  20640222.220    -1224505.061 6   -944269.28423
  22650087.8454   -3961217.16846  -3057586.62361
  21638591.7204  -13994129.62746 -10690999.11861
 91  4 22 21 51 14.9970000  0  5G18G 2G19G11G 6
  23163726.4784   12059821.50545   9387371.22861
  20253747.8604  -17004657.33847 -13163681.72963
  20641884.4854   -1215791.40446   -937479.44663
  22653656.892    -3942462.638 6  -3042972.73021
  21630451.3374  -14036913.96946 -10724337.50461
 91  4 22 21 51 29.9970000  0  5G18G 2G19G11G 6
  23171857.931    12102550.501 5   9420666.24021
  20248436.9854  -17032569.13547 -13185431.14163
  20643551.1814   -1207018.74046   -930643.63363
  22657248.7904   -3923590.41946  -3028267.14261
  21622310.5094  -14079693.42546 -10757672.07861
 91  4 22 21 51 44.9970000  0  5G18G 2G19G11G 6
  23179990.3214   12145303.16345   9453979.70661
  20243139.9394  -17060409.90847 -13207125.21163
  20645234.6734   -1198181.50146   -923757.50863
  22660865.478    -3904595.000 6  -3013465.53921
  21614168.9074  -14122462.16746 -10790998.31161
 91  4 22 21 51 59.9970000  0  5G18G 2G19G11G 6
  23188132.2284   12188084.85045   9487315.78461
  20237856.2204  -17088173.87147 -13228759.42763
  20646928.5404   -1189273.82646   -916816.48763
  22664506.4784   -3885470.79446  -2998563.58261
  21606033.939   -14165214.302 6 -10824311.60721
 91  4 22 21 52 14.9970000  0  5G18G 2G19G11G 6
  23196277.103    12230890.024 5   9520670.15021
  20232585.9544  -17115866.55647 -13250338.10163
  20648637.1814   -1180301.28646   -909824.93063
  22668169.235    -3866223.710 6  -2983565.88121
  21597902.2284  -14207955.19046 -10857616.13161
 91  4 22 21 52 29.9970000  0  5G18G 2G19G11G 6
  23204429.509    12273712.720 5   9554038.19721
  20227329.517   -17143493.725 7 -13271865.72323
  20650354.2284   -1171269.41646   -902787.13363
  22671850.6104   -3846859.44846  -2968476.87961
  21589770.0484  -14250690.41846 -10890916.24761
 91  4 22 21 52 44.9970000  0  5G18G 2G19G11G 6
  23212583.524    12316567.795 5   9587431.44821
  20222087.814   -17171040.176 7 -13293330.44623
  20652089.3924   -1162162.85246   -895691.13563
  22675558.470    -3827363.261 6  -2953285.06821
  21581645.2594  -14293404.67446 -10924200.02361
 91  4 22 21 52 59.9970000  0  5G18G 2G19G11G 6
  23220740.7674   12359455.05945   9620849.79961
  20216861.774   -17198505.820 7 -13314732.20323
  20653834.2044   -1152981.36546   -888536.76163
  22679293.7904   -3807735.19446  -2937990.50261
  21573519.728   -14336097.685 6 -10957467.23821
 91  4 22 21 53 14.9970000  0  5G18G 2G19G11G 6
  23228909.314    12402362.072 5   9654283.52721
  20211647.681   -17225902.913 7 -13336080.54323
  20655595.720    -1143737.211 6   -881333.55023
  22683054.017    -3787987.756 6  -2922602.91321
  21565394.048   -14378781.667 6 -10990727.42921
 91  4 22 21 53 29.9970000  0  5G18G 2G19G11G 6
  23237079.9624   12445292.26445   9687735.32961
  20206446.6104  -17253227.83347 -13357372.64563
  20657364.8764   -1134426.74946   -874078.67263
  22686838.5874   -3768117.65646  -2907119.74961
  21557274.431   -14421452.850 6 -11023977.64621
 91  4 22 21 53 44.9970000  0  5G18G 2G19G11G 6
  23245252.532    12488253.246 5   9721211.10821
  20201261.485   -17280472.688 7 -13378602.36523
  20659153.181    -1125041.795 6   -866765.74523
  22690644.571    -3748117.210 6  -2891535.01821
  21549156.2354  -14464103.14946 -11057211.59261
 91  4 22 21 53 59.9970000  0  5G18G 2G19G11G 6
  23253434.2904   12531228.09545   9754697.69261
  20196090.134   -17307654.272 7 -13399782.77823
  20660948.8144   -1115599.13046   -859407.85163
  22694469.8144   -3728003.49046  -2875862.01461
  21541043.032   -14506749.138 6 -11090442.17421
 91  4 22 21 54 14.9970000  0  5G18G 2G19G11G 6
  23261615.7354   12574232.26345   9788207.12161
  20190932.017   -17334756.783 7 -13420901.57623
  20662762.165    -1106083.041 6   -851992.73722
  22698321.087    -3707760.914 6  -2860088.60421
  21532930.1734  -14549375.22646 -11123657.24661
 91  4 22 21 54 29.9970000  0  5G18G 2G19G11G 6
  23269803.2354   12617256.47245   9821732.18261
  20185788.321   -17361789.393 7 -13441965.90523
  20664584.517    -1096502.383 6   -844527.31523
  22702193.009    -3687398.692 6  -2844221.96721
  21524820.524   -14591990.039 6 -11156863.54121
 91  4 22 21 54 44.9970000  0  5G18G 2G19G11G 6
  23277992.954    12660296.734 5   9855269.74321
  20180656.126   -17388755.710 7 -13462978.57823
  20666419.4704   -1086860.66446   -837014.31763
  22706091.329    -3666920.828 6  -2828265.20821
  21516713.8604  -14634597.16446 -11190063.83861
 91  4 22 21 54 59.9970000  0  5G18G 2G19G11G 6
  23286186.290    12703354.358 5   9888820.83821
  20175538.0564  -17415654.32347 -13483938.49463
  20668263.9394   -1077156.36646   -829452.55463
  22710013.7514   -3646325.98746  -2812217.31061
  21508610.9394  -14677194.95146 -11223256.86061
 91  4 22 21 55 14.9970000  0  5G18G 2G19G11G 6
  23294387.017    12746439.209 5   9922393.13321
  20170434.1964  -17442474.84747 -13504837.56563
  20670126.8684   -1067379.01046   -821833.86363
  22713959.243    -3625604.140 6  -2796070.44221
  21500508.735   -14719773.032 6 -11256434.53321
 91  4 22 21 55 29.9970000  0  5G18G 2G19G11G 6
  23302593.2124   12789554.08545   9955988.84561
  20165345.610   -17469214.272 7 -13525673.43823
  20671998.6104   -1057525.50946   -814155.83763
  22717921.8064   -3604752.45146  -2779822.41061
  21492408.079   -14762328.225 6 -11289594.36921
 91  4 22 21 55 44.9970000  0  5G18G 2G19G11G 6
  23310801.4704   12832684.79745   9989596.89061
  20160270.407   -17495886.716 7 -13546457.12023
  20673887.7514   -1047609.99146   -806429.48763
  22721910.196    -3583785.366 6  -2763484.44621
  21484313.4154  -14804874.49846 -11322747.25261
 91  4 22 21 55 59.9970000  0  5G18G 2G19G11G 6
  23319008.6574   12875833.52545  10023218.96261
  20155208.2434  -17522489.73547 -13567186.70363
  20675785.4854   -1037629.86746   -798652.79463
  22725922.9934   -3562700.69846  -2747054.86261
  21476220.642   -14847409.205 6 -11355891.12921
 91  4 22 21 56 14.9970000  0  5G18G 2G19G11G 6
  23327223.657    12918996.648 5  10056852.27021
  20150159.1034  -17549026.65347 -13587864.77963
  20677698.7354   -1027588.07646   -790828.05163
  22729960.431    -3541501.873 6  -2730536.32221
  21468124.665   -14889935.424 6 -11389028.39121
 91  4 22 21 56 29.9970000  0  5G18G 2G19G11G 6
  23335439.493    12962172.732 5  10090495.65421
  20145121.0094  -17575498.72347 -13608492.32663
  20679620.6494   -1017486.15046   -782956.45063
  22734018.5324   -3520190.58246  -2713930.15061
  21460032.978   -14932454.508 6 -11422160.09121
 91  4 22 21 56 44.9970000  0  5G18G 2G19G11G 6
  23343659.1894   13005367.77745  10124153.82561
  20140095.6894  -17601899.75447 -13629064.52163
  20681555.7824   -1007317.78246   -775033.07063
  22738090.2204   -3498760.69946  -2697231.56061
  21451945.439   -14974959.999 6 -11455281.19521
 91  4 22 21 56 59.9970000  0  5G18G 2G19G11G 6
  23351885.259    13048577.173 5  10157823.19321
  20135084.9154  -17628233.93247 -13649584.61963
  20683499.4394    -997087.06946   -767061.12463
  22742193.1184   -3477216.72246  -2680444.07961
  21443859.689   -15017456.061 6 -11488394.95521
 91  4 22 21 57 14.9970000  0  5G18G 2G19G11G 6
  23360110.3534   13091805.17445  10191507.05561
  20130087.9154  -17654496.95547 -13670049.27463
  20685461.2354    -986789.59846   -759037.15163
  22746316.3454   -3455554.65346  -2663564.57761
  21435774.376   -15059938.147 6 -11521497.82621
 91  4 22 21 57 29.9970000  0  5G18G 2G19G11G 6
  23368337.8924   13135051.00845  10225204.79361
  20125102.9704  -17680689.12847 -13690458.72264
  20687431.860     -976425.562 6   -750961.30823
  22750461.2514   -3433775.05646  -2646593.48661
  21427694.8144  -15102406.36946 -11554589.89162
 91  4 22 21 57 44.9970000  0  5G18G 2G19G11G 6
  23376570.907    13178318.003 5  10258919.02821
  20120133.5244  -17706807.13247 -13710810.37463
  20689420.6574    -965991.60246   -742830.97963
  22754628.274    -3411874.766 6  -2629528.34921
  21419615.0954  -15144857.25346 -11587668.43961
 91  4 22 21 57 59.9970000  0  5G18G 2G19G11G 6
  23384811.790    13221611.301 5  10292653.75721
  20115178.7514  -17732845.64847 -13731100.08864
  20691421.024     -955481.968 6   -734641.67923
  22758818.7594   -3389848.62846  -2612365.15261
  21411541.274   -15187285.278 6 -11620729.18821
 91  4 22 21 58 14.9970000  0  5G18G 2G19G11G 6
  23393049.446    13264905.421 5  10326389.12221
  20110234.1814  -17758829.73047 -13751347.39264
  20693429.360     -944921.795 6   -726412.99723
  22763028.2594   -3367722.03646  -2595123.68561
  21403469.2354  -15229715.33346 -11653791.50061
 91  4 22 21 58 29.9970000  0  5G18G 2G19G11G 6
  23401291.1264   13308219.79245  10360140.30161
  20105303.3684  -17784739.82747 -13771537.04064
  20695453.564     -934291.488 6   -718129.66123
  22767263.423    -3345475.669 6  -2577788.87821
  21395396.3294  -15272127.77046 -11686840.09662
 91  4 22 21 58 44.9970000  0  5G18G 2G19G11G 6
  23409542.5714   13351553.54945  10393906.56761
  20100386.3994  -17810576.64547 -13791669.58364
  20697488.423     -923591.697 6   -709792.18523
  22771519.2904   -3323110.41046  -2560361.42861
  21387328.0954  -15314523.14946 -11719875.39561
 91  4 22 21 58 59.9970000  0  5G18G 2G19G11G 6
  23417788.446    13394904.448 5  10427686.15421
  20095482.0714  -17836341.80947 -13811746.30164
  20699535.3144    -912823.99746   -701401.79963
  22775796.3924   -3300628.41446  -2542843.02061
  21379265.1654  -15356903.00346 -11752898.59662
 91  4 22 21 59 14.9970000  0  5G18G 2G19G11G 6
  23426045.1814   13438276.38845  10461482.19361
  20090594.9784  -17862031.48147 -13831764.19163
  20701600.228     -901984.145 6   -692955.18923
  22780100.571    -3278025.874 6  -2525230.66621
  21371204.8294  -15399263.21046 -11785906.48561
 91  4 22 21 59 29.9970000  0  5G18G 2G19G11G 6
  23434299.314    13481667.372 5  10495293.01621
  20085721.6814  -17887647.45848 -13851724.65664
  20703677.259     -891073.986 6   -684453.79022
  22784422.3064   -3255304.79646  -2507525.96561
  21363145.7904  -15441605.43446 -11818900.37162
 91  4 22 21 59 44.9970000  0  5G18G 2G19G11G 6
  23442558.681    13525067.038 5  10529110.65121
  20080857.3604  -17913199.61148 -13871635.38863
  20705764.696     -880103.505 6   -675905.38722
  22788764.954    -3232475.372 6  -2489736.83121
  21355088.290   -15483939.345 6 -11851887.77321
 91  4 22 21 59 59.9970000  0  5G18G 2G19G11G 6
  23450823.3064   13568489.35744  10562945.92461
  20076010.6104  -17938673.90448 -13891485.44763
  20707862.845     -869058.501 6   -667298.91122
  22793133.1654   -3209523.84046  -2471852.54061
  21347036.6814  -15526250.85646 -11884857.71861
 91  4 22 22  0 14.9970000  0  5G18G 2G19G11G 6
  23459087.196    13611927.943 4  10596793.85021
  20071176.3374  -17964076.55148 -13911279.68264
  20709979.407     -857945.053 6   -658639.10122
  22797522.3924   -3186456.65346  -2453878.13661
  21338988.8764  -15568545.99646 -11917814.91061
 91  4 22 22  0 29.9970000  0  5G18G 2G19G11G 6
  23467356.3294   13655382.80844  10630654.48861
  20066357.0174  -17989407.37748 -13931017.95264
  20712106.9394    -846762.77646   -649925.66963
  22801935.392    -3163273.794 6  -2435813.59021
  21330944.7744  -15610824.34746 -11950759.01362
 91  4 22 22  0 44.9970000  0  5G18G 2G19G11G 6
  23475631.0404   13698854.12345  10664527.93261
  20061551.0954  -18014665.73848 -13950699.75464
  20714248.6894    -835511.02546   -641158.09862
  22806368.220    -3139975.045 6  -2417658.74821
  21322900.2434  -15653085.25646 -11983689.53361
 91  4 22 22  0 59.9970000  0  4G 2G19G11G 6
  20056753.6964  -18039866.15248 -13970336.40164
  20716399.571     -824204.352 6   -632347.73422
  22810819.4154   -3116575.25346  -2399425.16261
  21314861.4154  -15695343.11046 -12016617.67061
 91  4 22 22  1 14.9970000  0  4G 2G19G11G 6
  20051972.1964  -18064997.75448 -13989919.43364
  20718564.665     -812831.777 6   -623486.01122
  22815292.610    -3093063.727 6  -2381104.51021
  21306820.6184  -15737586.76846 -12049534.74061
 91  4 22 22  1 29.9970000  0  4G 2G19G11G 6
  20047202.8374  -18090058.59448 -14009447.32564
  20720742.915     -801391.158 6   -614571.25722
  22819791.7594   -3069438.58946  -2362695.34961
  21298785.165   -15779814.020 6 -12082439.03321
 91  4 22 22  1 44.9970000  0  4G 2G19G11G 6
  20042444.1184  -18115059.02748 -14028928.14164
  20722929.868     -789892.837 6   -605611.54822
  22824304.767    -3045710.608 6  -2344206.03721
  21290751.6494  -15822035.13446 -12115338.54261
 91  4 22 22  1 59.9970000  0  4G 2G19G11G 6
  20037701.4544  -18139991.94848 -14048356.35764
  20725129.618     -778329.496 6   -596601.17722
  22828843.853    -3021872.742 6  -2325631.10821
  21282721.2204  -15864242.84446 -12148227.59961
 91  4 22 22  2 14.9970000  0  4G 2G19G11G 6
  20032967.8374  -18164861.38148 -14067735.10164
  20727342.485     -766705.305 6   -587543.38322
  22833398.087    -2997929.430 6  -2306973.99621
  21274691.3604  -15906441.01946 -12181109.23261
 91  4 22 22  2 29.9970000  0  4G 2G19G11G 6
  20028248.1184  -18189667.93448 -14087064.84364
  20729565.071     -755020.622 6   -578438.45722
  22837974.2594   -2973881.43946  -2288235.32961
  21266661.1894  -15948630.06946 -12213983.75661
 91  4 22 22  2 44.9970000  0  4G 2G19G11G 6
  20023540.7674  -18214400.34448 -14106336.81664
  20731801.399     -743264.194 6   -569277.63022
  22842574.657    -2949717.751 6  -2269406.50321
  21258635.6034  -15990798.54946 -12246842.24661
 91  4 22 22  2 59.9970000  0  4G 2G19G11G 6
  20018847.4704  -18239065.07048 -14125556.04964
  20734051.0244    -731442.18746   -560065.70262
  22847193.079    -2925445.157 6  -2250492.80921
  21250615.3144  -16032952.79046 -12279689.64562
 91  4 22 22  3 14.9960000  0  4G 2G19G11G 6
  20014169.9574  -18263646.12048 -14144710.07764
  20736318.051     -719540.879 6   -550791.97322
  22851837.066    -2901051.224 6  -2231484.57221
  21242599.2314  -16075075.40046 -12312512.39461
 91  4 22 22  3 29.9960000  0  4G 2G19G11G 6
  20009503.5514  -18288167.85748 -14163817.88864
  20738592.5354    -707579.79146   -541471.67362
  22856496.0904   -2876554.16046  -2212395.98261
  21234585.0984  -16117193.15446 -12345331.36462
 91  4 22 22  3 44.9960000  0  4G 2G19G11G 6
  20004849.2544  -18312622.16448 -14182873.15864
  20740880.027     -695553.199 6   -532100.32722
  22861176.566    -2851949.216 6  -2193223.31621
  21226573.7154  -16159296.26846 -12378138.92262
 91  4 22 22  3 59.9960000  0  4G 2G19G11G 6
  20000209.5124  -18337006.88648 -14201874.20564
  20743182.2074    -683458.79146   -522676.13762
  22865882.981    -2827234.476 6  -2173965.09821
  21218565.2624  -16201382.53746 -12410933.35661
 91  4 22 22  4 14.9960000  0  4G 2G19G11G 6
  19995583.1604  -18361324.26948 -14220822.77864
  20745496.809     -671298.954 6   -513200.96422
  22870605.6294   -2802412.51646  -2154623.33361
  21210559.0514  -16243453.99246 -12443716.24762
 91  4 22 22  4 29.9960000  0  4G 2G19G11G 6
  19990969.1214  -18385566.73248 -14239712.97264
  20747823.1604    -659065.82046   -503668.68462
  22875349.465    -2777475.977 6  -2135192.28521
  21202556.7464  -16285502.91246 -12476481.57762
 91  4 22 22  4 44.9960000  0  4G 2G19G11G 6
  19986368.1994  -18409740.13648 -14258549.35664
  20750167.3404    -646765.04846   -494083.68762
  22880116.3324   -2752430.91546  -2115676.65761
  21194558.0744  -16327534.94546 -12509233.75662
 91  4 22 22  4 59.9960000  0  4G 2G19G11G 6
  19981780.9654  -18433847.37948 -14277334.18664
  20752517.8714    -634399.66046   -484448.34962
  22884900.145    -2727280.459 6  -2096078.92321
  21186563.1844  -16369552.81646 -12541974.89562
 91  4 22 22  5 14.9960000  0  4G 2G19G11G 6
  19977207.3244  -18457885.25048 -14296064.96164
  20754885.6604    -621966.18946   -474759.96763
  22889705.176    -2702021.797 6  -2076396.87221
  21178569.0594  -16411553.12446 -12574702.35462
 91  4 22 22  5 29.9960000  0  4G 2G19G11G 6
  19972646.9184  -18481850.79048 -14314739.37164
  20757262.8564    -609461.73746   -465016.27162
  22894533.543    -2676652.195 6  -2056628.37321
  21170581.152   -16453532.734 6 -12607413.67622
 91  4 22 22  5 44.9960000  0  4G 2G19G11G 6
  19968097.5594  -18505755.09648 -14333366.07064
  20759655.5594    -596897.15346   -455225.71762
  22899382.1684   -2651182.84146  -2036782.13961
  21162594.9344  -16495502.53646 -12640117.35761
 91  4 22 22  5 59.9960000  0  4G 2G19G11G 6
  19963562.8714  -18529589.95648 -14351938.65664
  20762058.3794    -584264.24646   -445381.92362
  22904249.7774   -2625605.89846  -2016852.08461
  21154612.543   -16537454.145 6 -12672806.86821
 91  4 22 22  6 14.9960000  0  4G 2G19G11G 6
  19959039.6844  -18553352.60748 -14370454.97264
  20764476.8324    -571560.35146   -435482.81262
  22909139.449    -2599919.101 6  -1996836.42521
  21146630.902   -16579384.760 6 -12705480.02022
 91  4 22 22  6 29.9960000  0  4G 2G19G11G 6
  19954532.3874  -18577042.39648 -14388914.51464
  20766906.0354    -558784.49246   -425527.62762
  22914049.199    -2574121.897 6  -1976734.72921
  21138657.152   -16621293.448 6 -12738136.08722
 91  4 22 22  6 44.9960000  0  4G 2G19G11G 6
  19950039.5044  -18600655.08648 -14407313.98264
  20769353.8564    -545932.13246   -415512.83662
  22918978.199    -2548210.046 6  -1956543.70021
  21130687.7154  -16663175.58146 -12770771.45562
 91  4 22 22  6 59.9960000  0  4G 2G19G11G 6
  19945558.2854  -18624197.12648 -14425658.39464
  20771814.8634    -533010.00946   -405443.67862
  22923929.0044   -2522190.47146  -1936268.73261
  21122720.574   -16705037.729 6 -12803391.25822
 91  4 22 22  7 14.9960000  0  4G 2G19G11G 6
  19941090.4884  -18647680.63148 -14443957.20064
  20774283.0904    -520029.97846   -395329.40562
  22928901.004    -2496075.717 6  -1915919.58821
  21114755.5204  -16746891.82446 -12836004.78462
 91  4 22 22  7 29.9960000  0  4G 2G19G11G 6
  19936632.8954  -18671099.77348 -14462205.84864
  20776763.981     -506986.109 6   -385165.37922
  22933886.8794   -2469860.12146  -1895491.87061
  21106797.316   -16788731.740 7 -12868607.26222
 91  4 22 22  7 44.9960000  0  4G 2G19G11G 6
  19932191.0594  -18694450.61648 -14480401.27964
  20779261.348     -493874.419 6   -374948.50522
  22938891.0744   -2443540.07746  -1874982.79061
  21098833.809   -16830553.328 6 -12901195.45922
 91  4 22 22  7 59.9960000  0  4G 2G19G11G 6
  19927759.2234  -18717735.87448 -14498545.60764
  20781767.9104    -480697.38446   -364680.71862
  22943924.887    -2417118.397 6  -1854394.45821
  21090880.496   -16872359.086 6 -12933771.32322
 91  4 22 22  8 14.9960000  0  4G 2G19G11G 6
  19923343.3874  -18740941.30648 -14516627.73163
  20784290.9964    -467440.84746   -354350.98262
  22948974.5044   -2390581.05046  -1833716.03161
  21082932.621   -16914134.508 6 -12966323.54822
 91  4 22 22  8 29.9960000  0  4G 2G19G11G 6
  19918939.5664  -18764082.59248 -14534659.87263
  20786824.1604    -454120.42346   -343971.47062
  22954045.2314   -2363944.09046  -1812959.99961
  21074983.871   -16955895.253 6 -12998864.33822
 91  4 22 22  8 44.9960000  0  4G 2G19G11G 6
  19914551.2544  -18787136.25348 -14552623.73364
  20789375.6374    -440712.44246   -333523.73262
  22959134.8324   -2337184.24546  -1792108.18461
  21067045.520   -16997617.491 6 -13031375.12022
 91  4 22 22  8 59.9960000  0  4G 2G19G11G 6
  19910178.5664  -18810120.87248 -14570533.79663
  20791942.4814    -427235.24546   -323022.05062
  22964246.2854   -2310320.47046  -1771175.40061
  21059109.473   -17039319.710 6 -13063870.30322
 91  4 22 22  9 14.9960000  0  4G 2G19G11G 6
  19905817.7854  -18833037.54448 -14588390.91163
  20794520.8094    -413690.15346   -312467.46962
  22969380.6524   -2283354.30346  -1750162.85161
  21051177.441   -17081003.024 6 -13096350.76122
 91  4 22 22  9 29.9960000  0  4G 2G19G11G 6
  19901473.1524  -18855872.23848 -14606184.15264
  20797111.3164    -400063.08446   -301849.01262
  22974532.238    -2256271.872 6  -1729059.66421
  21043250.512   -17122652.999 6 -13128805.23522
 91  4 22 22  9 44.9960000  0  4G 2G19G11G 6
  19897139.4884  -18878644.00548 -14623928.35864
  20799717.145     -386372.844 6   -291181.34222
  22979703.7234   -2229092.33046  -1707880.82761
  21035329.777   -17164288.504 6 -13161248.43722
 91  4 22 22  9 59.9960000  0  4G 2G19G11G 6
  19892816.1524  -18901364.06748 -14641632.27263
  20802330.3324    -372630.50746   -280473.06962
  22984893.1214   -2201827.16946  -1686635.28361
  21027405.668   -17205920.419 6 -13193688.84122
 91  4 22 22 10 14.9960000  0  4G 2G19G11G 6
  19888506.4494  -18924012.66948 -14659280.50663
  20804960.6604    -358816.25646   -269708.75762
  22990099.6604   -2174457.02046  -1665307.91261
  21019487.395   -17247528.937 6 -13226111.01422
 91  4 22 22 10 29.9960000  0  4G 2G19G11G 6
  19884209.9494  -18946589.01348 -14676872.43364
  20807604.5514    -344929.36846   -258887.84162
  22995333.4104   -2146981.34546  -1643898.32061
  21011573.934   -17289113.149 6 -13258514.24622
 91  4 22 22 10 44.9960000  0  4G 2G19G11G 6
  19879925.1914  -18969097.73748 -14694411.67063
  20810260.3874    -330974.36546   -248013.85462
  23000577.4814   -2119405.05046  -1622410.33261
  21003665.457   -17330677.309 6 -13290901.85122
 91  4 22 22 10 59.9960000  0  4G 2G19G11G 6
  19875656.0594  -18991539.74148 -14711898.91664
  20812931.863     -316951.975 6   -237087.36022
  23005844.520    -2091729.298 6  -1600844.83721
  20995758.8094  -17372222.25046 -13323274.48062
 91  4 22 22 11 14.9960000  0  4G 2G19G11G 6
  19871398.2464  -19013915.03148 -14729334.18264
  20815610.418     -302862.108 6   -226108.29522
  23011126.473    -2063954.432 6  -1579202.10921
  20987858.293   -17413747.701 7 -13355631.92022
 91  4 22 22 11 29.9960000  0  4G 2G19G11G 6
  19867151.4964  -19036225.67748 -14746719.07363
  20818299.731     -288706.734 6   -215078.17822
  23016432.6064   -2036082.73446  -1557483.92261
  20979956.879   -17455255.721 6 -13387975.78522
 91  4 22 22 11 44.9960000  0  4G 2G19G11G 6
  19862918.1604  -19058475.11448 -14764056.26864
  20821010.3404    -274489.13446   -203999.56562
  23021750.965    -2008117.960 6  -1535693.21421
  20972062.770   -17496749.434 7 -13420308.49422
 91  4 22 22 11 59.9960000  0  4G 2G19G11G 6
  19858696.4344  -19080663.83548 -14781346.15663
  20823727.4734    -260209.89446   -192872.92562
  23027095.223    -1980060.656 6  -1513830.41421
  20964171.293   -17538229.105 6 -13452630.26622
 91  4 22 22 12 14.9960000  0  4G 2G19G11G 6
  19854485.5124  -19102790.75848 -14798587.88564
  20826455.3794    -245867.67146   -181697.20662
  23032448.3954   -1951910.15146  -1491894.99961
  20956278.559   -17579693.412 6 -13484940.06722
 91  4 22 22 12 29.9960000  0  4G 2G19G11G 6
  19850287.043   -19124854.979 8 -14815780.76124
  20829194.402     -231461.590 6   -170471.72922
  23037826.363    -1923666.059 6  -1469886.63121
  20948392.902   -17621141.359 6 -13517237.11422
 91  4 22 22 12 44.9960000  0  4G 2G19G11G 6
  19846100.902   -19146849.548 8 -14832919.35924
  20831951.9654    -216984.61546   -159191.01362
  23043216.168    -1895321.401 6  -1447799.90921
  20940506.223   -17662565.691 6 -13549515.76322
 91  4 22 22 12 59.9960000  0  4G 2G19G11G 6
  19841927.5204  -19168781.41548 -14850009.10064
  20834717.1764    -202443.56946   -147860.36562
  23048634.4654   -1866883.53746  -1425640.57661
  20932629.606   -17703973.166 6 -13581781.27622
 91  4 22 22 13 14.9960000  0  4G 2G19G11G 6
  19837765.582   -19190651.818 8 -14867050.94824
  20837497.824     -187839.646 6   -136480.72822
  23054059.7544   -1838353.88046  -1403409.69261
  20924751.324   -17745364.778 6 -13614034.42722
 91  4 22 22 13 29.9960000  0  4G 2G19G11G 6
  19833616.801   -19212451.628 8 -14884037.78624
  20840288.949     -173163.654 6   -125044.93222
  23059507.4654   -1809723.68246  -1381100.47861
  20916879.481   -17786731.330 6 -13646268.05422
 91  4 22 22 13 44.9960000  0  4G 2G19G11G 6
  19829484.270   -19234169.962 8 -14900961.13624
  20843099.731     -158404.607 6   -113544.42022
  23064980.0744   -1780982.22546  -1358704.57361
  20909017.3874  -17828061.54746 -13678473.36062
 91  4 22 22 13 59.9960000  0  4G 2G19G11G 6
  19825364.2234  -19255821.59448 -14917832.51164
  20845920.762     -143577.151 6   -101990.60022
  23070463.934    -1752144.452 6  -1336233.59421
  20901155.207   -17869369.930 6 -13710661.65722
 91  4 22 22 14 14.9960000  0  4G 2G19G11G 6
  19821256.2074  -19277409.00148 -14934653.84164
  20848756.293     -128683.820 6    -90385.44622
  23075969.7774   -1723213.24746  -1313689.83361
  20893297.168   -17910658.966 6 -13742834.88022
 91  4 22 22 14 29.9960000  0  4G 2G19G11G 6
  19817159.1994  -19298938.69648 -14951430.19964
  20851597.191     -113731.013 6    -78733.95522
  23081491.066    -1694195.434 6  -1291078.59421
  20885443.371   -17951934.913 7 -13774997.90422
 91  4 22 22 14 44.9960000  0  4G 2G19G11G 6
  19813073.395   -19320409.152 8 -14968160.39924
  20854459.027      -98716.954 6    -67034.73622
  23087030.4574   -1665089.72246  -1268398.81361
  20877592.566   -17993196.085 7 -13807149.41422
 91  4 22 22 14 59.9960000  0  4G 2G19G11G 6
  19808998.512   -19341820.492 8 -14984844.53524
  20857323.856      -83641.776 6    -55287.89322
  23092587.9494   -1635896.49646  -1245650.88561
  20869743.941   -18034442.227 7 -13839289.21322
 91  4 22 22 15 14.9960000  0  4G 2G19G11G 6
  19804936.481   -19363163.650 8 -15001475.53824
  20860208.0434     -68496.31446    -43486.27262
  23098160.8794   -1606607.04646  -1222827.97861
  20861899.6994  -18075664.09047 -13871410.08662
 91  4 22 22 15 29.9960000  0  4G 2G19G11G 6
  19800887.715   -19384443.349 8 -15018057.09924
  20863100.5664     -53285.26646    -31633.54162
  23103750.6294   -1577226.43746  -1199934.00761
  20854058.5044  -18116866.31347 -13903515.66362
 91  4 22 22 15 44.9960000  0  4G 2G19G11G 6
  19796853.395   -19405650.149 8 -15034581.85124
  20866011.4734     -37999.05946    -19722.24962
  23109361.731    -1547745.511 6  -1176961.87821
  20846223.887   -18158039.246 7 -13935598.41222
 91  4 22 22 15 59.9960000  0  4G 2G19G11G 6
  19792829.504   -19426793.974 8 -15051057.53324
  20868931.9024     -22647.74746     -7760.21962
  23114988.1994   -1518174.44246  -1153919.52361
  20838390.910   -18199192.636 6 -13967665.94222
 91  4 22 22 16 14.9960000  0  4G 2G19G11G 6
  19788817.246   -19447870.547 8 -15067480.81024
  20871867.7934      -7226.92746      4255.96062
  23120638.0274   -1488509.39746  -1130803.93861
  20830566.738   -18240321.999 7 -13999714.74022
 91  4 22 22 16 29.9960000  0  4G 2G19G11G 6
  19784820.637   -19468878.169 8 -15083850.36224
  20874814.777        8265.437 6     16327.89022
  23126293.8164   -1458748.57846  -1107613.70561
  20822743.754   -18281425.254 6 -14031743.20022
 91  4 22 22 16 44.9960000  0  4G 2G19G11G 6
  19780838.4024  -19489808.95948 -15100160.04164
  20877780.7624      23837.10946     28461.61762
  23131975.4494   -1428884.28646  -1084342.85061
  20814928.699   -18322494.271 6 -14063744.97622
 91  4 22 22 16 59.9960000  0  4G 2G19G11G 6
  19776867.082   -19510674.783 8 -15116419.09924
  20880754.027       39476.507 6     40648.12122
  23137682.3794   -1398928.93446  -1061001.06061
  20807117.715   -18363540.675 6 -14095729.14422
 91  4 22 22 17 14.9960000  0  4G 2G19G11G 6
  19772906.504   -19531482.239 8 -15132632.67724
  20883742.2854      55177.10846     52882.31662
  23143394.988    -1368889.308 6  -1037593.59621
  20799307.957   -18404570.902 6 -14127700.69522
 91  4 22 22 17 29.9960000  0  4G 2G19G11G 6
  19768962.098   -19552219.205 8 -15148791.32724
  20886742.707       70950.954 6     65173.58222
  23149130.645    -1338753.600 6  -1014111.22921
  20791506.277   -18445572.569 6 -14159649.99522
 91  4 22 22 17 44.9960000  0  4G 2G19G11G 6
  19765027.848   -19572891.147 8 -15164899.30824
  20889758.254       86792.722 6     77517.76622
  23154884.5204   -1308527.64646   -990558.57861
  20783706.996   -18486550.963 6 -14191581.16622
 91  4 22 22 17 59.9960000  0  4G 2G19G11G 6
  19761106.1214  -19593496.52448 -15180955.41864
  20892785.809      102703.839 6     89915.99122
  23160652.1764   -1278210.20745   -966934.62161
  20775914.879   -18527504.520 6 -14223492.97722
 91  4 22 22 18 14.9960000  0  4G 2G19G11G 6
  19757196.668   -19614039.881 8 -15196963.20424
  20895826.379      118680.046 6    102364.93322
  23166438.918    -1247806.004 6   -943243.06021
  20768126.746   -18568437.414 6 -14255388.69022
 91  4 22 22 18 29.9960000  0  4G 2G19G11G 6
  19753300.926   -19634514.875 8 -15212917.72023
  20898880.184      134727.718 6    114869.56522
  23172241.199    -1217309.099 6   -919479.28421
  20760342.738   -18609343.077 7 -14287263.18622
 91  4 22 22 18 44.9960000  0  4G 2G19G11G 6
  19749420.863   -19654908.881 8 -15228809.12923
  20901951.512      150859.588 6    127439.79822
  23178062.1914   -1186706.99845   -895633.49761
  20752564.8014  -18650208.58046 -14319106.39362
 91  4 22 22 18 59.9960000  0  4G 2G19G11G 6
  19745550.496   -19675239.764 8 -15244651.34923
  20905031.254      167057.708 6    140061.65722
  23183898.512    -1156017.898 5   -871719.95221
  20744794.160   -18691051.548 7 -14350932.03322
 91  4 22 22 19 14.9960000  0  4G 2G19G11G 6
  19741694.145   -19695509.875 8 -15260446.21724
  20908125.895      183319.895 6    152733.44422
  23189759.5514   -1125244.48245   -847740.71361
  20737024.051   -18731874.423 7 -14382742.02322
 91  4 22 22 19 29.9960000  0  4G 2G19G11G 6
  19737847.848   -19715716.737 8 -15276191.79824
  20911236.699      199648.583 6    165457.04622
  23195634.3634   -1094384.70246   -823694.13061
  20729261.465   -18772674.559 7 -14414534.29422
 91  4 22 22 19 44.9960000  0  4G 2G19G11G 6
  19734015.465   -19735864.150 8 -15291891.05524
  20914354.113      216040.254 6    178229.72422
  23201518.5044   -1063442.35545   -799583.24261
  20721498.926   -18813455.253 7 -14446311.41222
 91  4 22 22 19 59.9960000  0  4G 2G19G11G 6
  19730193.231   -19755947.109 8 -15307540.08824
  20917486.082      232500.078 6    191055.51122
  23207424.6994   -1032412.86245   -775404.45661
  20713743.715   -18854211.261 7 -14478069.29222
 91  4 22 22 20 14.9960000  0  4G 2G19G11G 6
  19726385.0664  -19775954.39248 -15323130.15064
  20920633.988      249039.091 6    203942.99622
  23213345.2234   -1001285.25145   -751149.21561
  20705996.660   -18894931.117 7 -14509799.01322
 91  4 22 22 20 29.9960000  0  4G 2G19G11G 6
  19722591.0744  -19795894.00048 -15338667.47964
  20923793.8324     265649.49146    216886.10562
  23219292.8794    -970067.93945   -726824.05461
  20698251.973   -18935622.762 7 -14541506.74322
 91  4 22 22 20 44.9960000  0  4G 2G19G11G 6
  19718809.965   -19815766.481 8 -15354152.50824
  20926969.199      282330.955 6    229884.59922
  23225248.707     -938761.417 5   -702429.39021
  20690515.520   -18976286.218 7 -14573192.50922
 91  4 22 22 20 59.9960000  0  4G 2G19G11G 6
  19715041.3014  -19835576.89748 -15369589.16664
  20930153.176      299078.278 6    242934.40822
  23231222.9884    -907371.13346   -677969.46161
  20682779.793   -19016926.431 7 -14604860.16222
 91  4 22 22 21 14.9960000  0  4G 2G19G11G 6
  19711280.504   -19855326.502 8 -15384978.44724
  20933355.2704     315890.32046    256034.64162
  23237211.9104    -875898.63945   -653445.48261
  20675053.176   -19057544.410 7 -14636510.48822
 91  4 22 22 21 29.9960000  0  4G 2G19G11G 6
  19707535.996   -19875010.493 8 -15400316.59424
  20936568.223      332771.970 6    269189.11822
  23243218.918     -844339.505 5   -628853.96521
  20667327.504   -19098135.180 7 -14668139.62222
 91  4 22 22 21 44.9960000  0  4G 2G19G11G 6
  19703801.254   -19894632.907 8 -15415606.76024
  20939793.762      349719.395 6    282394.84922
  23249238.676     -812698.009 5   -604198.26921
  20659607.957   -19138702.454 7 -14699750.43722
 91  4 22 22 21 59.9960000  0  4G 2G19G11G 6
  19700080.879   -19914191.641 8 -15430847.30824
  20943031.004      366734.518 6    295653.32922
  23255274.5824    -780972.51945   -579477.13361
  20651893.246   -19179244.092 7 -14731341.28022
 91  4 22 22 22 14.9960000  0  4G 2G19G11G 6
  19696370.223   -19933689.318 8 -15446040.27924
  20946281.449      383814.953 6    308962.70222
  23261324.895     -749165.833 5   -554692.76221
  20644182.582   -19219762.555 7 -14762914.06522
 91  4 22 22 22 29.9960000  0  4G 2G19G11G 6
  19692672.043   -19953122.765 8 -15461183.20124
  20949542.285      400963.834 6    322325.41422
  23267395.8324    -717274.97145   -529842.75161
  20636478.777   -19260254.308 7 -14794466.03322
 91  4 22 22 22 44.9960000  0  4G 2G19G11G 6
  19688985.481   -19972495.252 8 -15476278.62223
  20952819.926      418177.922 6    335738.93922
  23273478.246     -685303.513 5   -504929.93721
  20628776.629   -19300722.356 7 -14825999.53222
 91  4 22 22 22 59.9960000  0  4G 2G19G11G 6
  19685309.738   -19991806.652 8 -15491326.44224
  20956109.871      435457.282 6    349203.32222
  23279573.106     -653251.723 5   -479954.52421
  20621079.965   -19341166.380 7 -14857514.31122
 91  4 22 22 23 14.9960000  0  4G 2G19G11G 6
  19681646.856   -20011057.556 8 -15506327.12323
  20959409.910      452801.434 6    362718.19422
  23285690.293     -621120.424 5   -454917.22921
  20613387.113   -19381586.813 7 -14889010.70322
 91  4 22 22 23 29.9960000  0  4G 2G19G11G 6
  19677995.902   -20030243.162 8 -15521276.92124
  20962724.363      470215.579 6    376287.60322
  23291823.0354    -588904.96845   -429814.28661
  20605703.824   -19421978.394 7 -14920484.61722
 91  4 22 22 23 44.9960000  0  4G 2G19G11G 6
  19674356.582   -20049368.768 8 -15536179.96723
  20966049.1294     487694.49046    389907.47662
  23297966.5514    -556611.08845   -404650.21061
  20598019.684   -19462346.147 7 -14951939.96322
 91  4 22 22 23 59.9960000  0  4G 2G19G11G 6
  19670731.012   -20068423.264 8 -15551027.59924
  20969386.723      505249.195 6    403586.41022
  23304129.856     -524227.911 5   -379416.61921
  20590345.090   -19502678.883 7 -14983368.01922
 91  4 22 22 24 14.9960000  0  4G 2G19G11G 6
  19667115.551   -20087424.977 8 -15565834.10723
  20972740.184      522861.417 6    417310.16922
  23310303.793     -491774.142 5   -354128.00321
  20582674.082   -19542994.646 7 -15014782.85722
 91  4 22 22 24 29.9960000  0  4G 2G19G11G 6
  19663511.293   -20106366.402 8 -15580593.63723
  20976107.5204     540538.55846    431084.52462
  23316497.356     -459242.575 5   -328778.73721
  20575004.887   -19583285.840 7 -15046178.54322
 91  4 22 22 24 44.9960000  0  4G 2G19G11G 6
  19659919.410   -20125237.648 8 -15595298.47823
  20979482.176      558290.748 6    444917.34622
  23322704.0204    -426623.52945   -303361.33861
  20567345.918   -19623542.357 7 -15077547.21222
 91  4 22 22 24 59.9960000  0  3G 2G19G 6
  19656339.090   -20144050.574 8 -15609957.87724
  20982872.3014     576106.31446    458799.54962
  20559690.934   -19663775.630 7 -15108897.76422
 91  4 22 22 25 14.9960000  0  3G 2G19G 6
  19652768.590   -20162816.676 8 -15624580.78923
  20986274.332      593973.649 6    472722.09222
  20552035.324   -19703997.058 7 -15140239.09122
 91  4 22 22 25 29.9960000  0  3G 2G19G 6
  19649208.199   -20181519.600 8 -15639154.46923
  20989683.348      611909.161 6    486697.75822
  20544387.387   -19744189.878 7 -15171558.12322
 91  4 22 22 25 44.9960000  0  3G 2G19G 6
  19645663.145   -20200148.382 8 -15653670.38223
  20993114.160      629923.924 6    500735.18822
  20536744.926   -19784342.950 7 -15202846.18222
 91  4 22 22 25 59.9960000  0  3G 2G19G 6
  19642132.246   -20218707.154 8 -15668131.73823
  20996555.543      648013.890 6    514831.22022
  20529111.652   -19824460.174 7 -15234106.30822
 91  4 22 22 26 14.9960000  0  3G 2G19G 6
  19638611.871   -20237206.489 8 -15682546.78424
  21000011.746      666168.509 6    528977.61922
  20521483.863   -19864551.799 7 -15265346.48722
 91  4 22 22 26 29.9960000  0  3G 2G19G 6
  19635102.629   -20255648.674 8 -15696917.29223
  21003477.809      684385.704 6    543172.78122
  20513857.707   -19904619.906 7 -15296568.34322
 91  4 22 22 26 44.9960000  0  3G 2G19G 6
  19631604.965   -20274025.020 8 -15711236.49824
  21006960.816      702674.083 6    557423.41222
  20506239.324   -19944655.780 7 -15327765.08022
 91  4 22 22 26 59.9960000  0  3G 2G19G 6
  19628117.785   -20292353.551 8 -15725518.44724
  21010447.4264     721015.63646    571715.47362
  20498623.723   -19984676.964 7 -15358950.37322
 91  4 22 22 27 14.9960000  0  3G 2G19G 6
  19624643.777   -20310614.792 8 -15739747.96124
  21013954.668      739429.930 6    586064.22122
  20491013.324   -20024663.731 7 -15390108.84922
 91  4 22 22 27 29.9960000  0  3G 2G19G 6
  19621181.613   -20328806.194 8 -15753923.05624
  21017470.5744     757919.76846    600471.84462
  20483412.277   -20064613.426 7 -15421238.43522
 91  4 22 22 27 44.9960000  0  3G 2G19G 6
  19617732.106   -20346932.122 8 -15768047.13124
  21021003.746      776480.738 6    614934.89122
  20475815.887   -20104529.902 7 -15452342.13822
 91  4 22 22 27 59.9960000  0  3G 2G19G 6
  19614295.051   -20364994.214 8 -15782121.46324
  21024548.965      795110.984 6    629451.91522
  20468227.418   -20144414.749 7 -15483421.19722
 91  4 22 22 28 14.9960000  0  3G 2G19G 6
  19610869.598   -20382992.526 8 -15796146.10024
  21028108.707      813810.684 6    644023.06722
  20460642.949   -20184267.861 7 -15514475.52722
 91  4 22 22 28 29.9960000  0  3G 2G19G 6
  19607456.941   -20400926.931 8 -15810120.93524
  21031677.715      832580.291 6    658648.68422
  20453065.301   -20224088.814 7 -15545504.79822
 91  4 22 22 28 44.9960000  0  3G 2G19G 6
  19604053.9654  -20418810.64248 -15824056.26564
  21035260.9344     851406.33246    673318.27162
  20445489.832   -20263890.547 7 -15576519.09222
 91  4 22 22 28 59.9960000  0  3G 2G19G 6
  19600661.7854  -20436633.67548 -15837944.31864
  21038855.1524     870299.16946    688039.90662
  20437922.4964  -20303662.77647 -15607510.39362
 91  4 22 22 29 14.9960000  0  3G 2G19G 6
  19597282.793   -20454392.338 8 -15851782.21024
  21042465.7464     889262.37346    702816.37062
  20430361.285   -20343401.583 7 -15638475.65622
 91  4 22 22 29 29.9960000  0  3G 2G19G 6
  19593913.4104  -20472100.71348 -15865580.91964
  21046084.582      908281.728 6    717636.59322
  20422801.832   -20383120.843 7 -15669425.68722
 91  4 22 22 29 44.9960000  0  3G 2G19G 6
  19590553.699   -20489753.640 8 -15879336.42324
  21049716.309      927362.410 6    732504.60422
  20415248.691   -20422815.226 7 -15700356.33222
 91  4 22 22 29 59.9960000  0  3G 2G19G 6
  19587206.5204  -20507345.95648 -15893044.69364
  21053358.152      946509.850 6    747424.63322
  20407701.074   -20462479.059 7 -15731263.17023
 91  4 22 22 30 14.9960000  0  3G 2G19G 6
  19583872.481   -20524863.916 8 -15906695.02524
  21057019.793      965738.006 6    762407.56722
  20400161.051   -20502098.382 7 -15762135.33322
 91  4 22 22 30 29.9960000  0  3G 2G19G 6
  19580551.4024  -20542315.20448 -15920293.40564
  21060689.9654     985039.18446    777447.39862
  20392629.3794  -20541680.75347 -15792978.69562
 91  4 22 22 30 44.9960000  0  3G 2G19G 6
  19577242.418   -20559702.228 8 -15933841.71124
  21064377.566     1004410.920 6    792542.21522
  20385103.535   -20581228.289 7 -15823794.91422
 91  4 22 22 30 59.9960000  0  3G 2G19G 6
  19573945.965   -20577029.934 8 -15947343.79624
  21068075.8634    1023848.42046    807688.28262
  20377582.402   -20620745.696 7 -15854587.65322
 91  4 22 22 31 14.9960000  0  3G 2G19G 6
  19570658.129   -20594303.143 8 -15960803.41124
  21071785.4344    1043346.91746    822881.88162
  20370068.871   -20660237.443 7 -15885360.40023
 91  4 22 22 31 29.9960000  0  3G 2G19G 6
  19567384.582   -20611505.051 8 -15974207.47224
  21075511.0434    1062923.02146    838135.95262
  20362561.231   -20699686.664 7 -15916100.01122
 91  4 22 22 31 44.9960000  0  3G 2G19G 6
  19564121.613   -20628651.213 8 -15987568.09324
  21079249.668     1082561.299 6    853438.46221
  20355059.238   -20739108.517 7 -15946818.29123
 91  4 22 22 31 59.9960000  0  3G 2G19G 6
  19560871.6134  -20645733.84348 -16000879.20664
  21083001.7544    1102269.66646    868795.59662
  20347563.715   -20778495.031 7 -15977509.03923
 91  4 22 22 32 14.9960000  0  3G 2G19G 6
  19557632.512   -20662754.331 8 -16014141.90224
  21086765.2154    1122047.04946    884206.50262
  20340074.754   -20817847.245 7 -16008173.05823
 91  4 22 22 32 29.9960000  0  4G15G 2G19G 6
  22996827.8324         -0.57155
  19554403.223   -20679725.881 8 -16027366.46224
  21090537.0664    1141880.08746    899660.78062
  20332591.473   -20857177.973 7 -16038820.33123
 91  4 22 22 32 44.9960000  0  4G15G 2G19G 6
  22989414.715      -38952.214 5
  19551185.231   -20696632.790 8 -16040540.65224
  21094324.1134    1161784.50246    915170.68662
  20325113.910   -20896471.310 7 -16069438.47322
 91  4 22 22 32 59.9960000  0  4G15G 2G19G 6
  22982016.3634     -77823.48945
  19547978.871   -20713481.163 8 -16053669.23124
  21098123.7934    1181754.23946    930731.47862
  20317640.965   -20935733.257 7 -16100032.15023
 91  4 22 22 33 14.9960000  0  4G15G 2G19G 6
  22974636.6064    -116611.11245        -0.08771
  19544784.293   -20730268.316 8 -16066750.10524
  21101939.1294    1201792.00446    946345.28662
  20310178.449   -20974960.967 7 -16130599.14622
 91  4 22 22 33 29.9960000  0  4G15G 2G19G 6
  22967273.988     -155310.173 5    -30155.05121
  19541603.801   -20746989.418 8 -16079779.51324
  21105763.5204    1221902.51546    962015.78061
  20302720.676   -21014149.397 7 -16161135.53622
 91  4 22 22 33 44.9960000  0  4G15G 2G19G 6
  22959921.6134    -193928.53945    -60247.15761
  19538432.090   -20763652.831 8 -16092763.96924
  21109605.4654    1242077.65546    977736.63162
  20295270.082   -21053306.462 7 -16191647.48622
 91  4 22 22 33 59.9960000  0  4G15G 2G19G 6
  22952589.152     -232466.976 5    -90276.98221
  19535272.387   -20780259.997 8 -16105704.59624
  21113456.160     1262316.043 6    993506.75822
  20287823.996   -21092433.134 7 -16222135.75123
 91  4 22 22 34 14.9960000  0  4G15G 2G19G 6
  22945274.1064    -270913.57945   -120235.22561
  19532124.488   -20796799.085 8 -16118592.17624
  21117321.481     1282629.400 6   1009335.30521
  20280386.113   -21131517.688 7 -16252591.19622
 91  4 22 22 34 29.9960000  0  4G15G 2G19G 6
  22937971.277     -309283.093 5   -150133.41321
  19528987.207   -20813285.348 8 -16131438.59524
  21121199.020     1303002.553 6   1025210.43621
  20272954.637   -21170574.960 7 -16283025.38123
 91  4 22 22 34 44.9960000  0  4G15G 2G19G 6
  22930683.2854    -347579.56445   -179974.70361
  19525858.738   -20829723.277 8 -16144247.35024
  21125084.895     1323431.076 6   1041128.71022
  20265526.395   -21209609.258 7 -16313441.66823
 91  4 22 22 34 59.9960000  0  4G15G 2G19G 6
  22923407.4414    -385803.59145   -209759.53161
  19522739.762   -20846114.069 8 -16157019.37524
  21128981.098     1343913.872 6   1057089.28822
  20258102.043   -21248621.373 7 -16343840.66523
 91  4 22 22 35 14.9950000  0  4G15G 2G19G 6
  22916152.749     -423922.034 5   -239462.08121
  19519636.265   -20862426.513 8 -16169730.35324
  21132896.7024    1364479.82546   1073114.66762
  20250687.374   -21287578.266 7 -16374196.63423
 91  4 22 22 35 29.9950000  0  4G15G 2G19G 6
  22908917.3904    -461962.77245   -269104.12961
  19516541.382   -20878685.686 8 -16182399.81924
  21136823.9604    1385108.65746   1089189.04362
  20243280.898   -21326507.781 7 -16404531.27023
 91  4 22 22 35 44.9950000  0  4G15G 2G19G 6
  22901695.3984    -499919.19545   -298680.40661
  19513459.358   -20894887.113 8 -16195024.28724
  21140760.148     1405802.503 6   1105314.07121
  20235879.608   -21365403.862 7 -16434839.85323
 91  4 22 22 35 59.9950000  0  4G15G 2G19G 6
  22894492.218     -537784.936 5   -328186.10221
  19510388.155   -20911024.760 8 -16207599.05724
  21144714.765     1426567.550 6   1121494.58322
  20228485.062   -21404260.178 7 -16465117.44923
 91  4 22 22 36 14.9950000  0  4G15G 2G19G 6
  22887293.655     -575562.595 5   -357623.12021
  19507329.663   -20927101.670 8 -16220126.50224
  21148676.569     1447400.726 6   1137728.18222
  20221097.101   -21443079.386 7 -16495366.13423
 91  4 22 22 36 29.9950000  0  4G15G 2G19G 6
  22880120.718     -613261.419 5   -386998.74021
  19504279.273   -20943127.555 8 -16232614.19024
  21152651.023     1468292.278 6   1154007.26922
  20213715.398   -21481871.017 7 -16525593.33123
 91  4 22 22 36 44.9950000  0  4G15G 2G19G 6
  22872957.702     -650887.746 5   -416317.86121
  19501239.077   -20959109.197 8 -16245067.39724
  21156636.304     1489235.476 6   1170326.59221
  20206337.991   -21520641.522 7 -16555804.06123
 91  4 22 22 36 59.9950000  0  4G15G 2G19G 6
  22865820.2574    -688426.60145   -445568.79961
  19498208.226   -20975031.896 8 -16257474.68124
  21160637.210     1510245.237 6   1186697.79221
  20198967.116   -21559375.841 7 -16585986.60123
 91  4 22 22 37 14.9950000  0  4G15G 2G19G 6
  22858692.976     -725885.969 5   -474757.82321
  19495186.929   -20990903.842 8 -16269842.41524
  21164643.648     1531313.232 6   1203114.36721
  20191599.343   -21598082.172 7 -16616147.32923
 91  4 22 22 37 29.9950000  0  4G15G 2G19G 6
  22851572.616     -763257.819 5   -503878.65921
  19492176.835   -21006717.396 8 -16282164.65124
  21168666.241     1552447.104 6   1219582.26221
  20184242.405   -21636752.473 7 -16646279.98323
 91  4 22 22 37 44.9950000  0  4G15G 2G19G 6
  22844484.929     -800531.522 5   -532922.98421
  19489181.890   -21022462.441 8 -16294433.49724
  21172701.4374    1573657.06346   1236109.44561
  20176894.280   -21675376.464 7 -16676376.55023
 91  4 22 22 37 59.9950000  0  5G15G 2G19G13G 6
  22837415.4994    -837704.74745   -561889.04261
  19486199.140   -21038137.346 8 -16306647.69524
  21176751.335     1594944.906 6   1252697.31921
  22747411.7964         -0.34854
  20169552.179   -21713951.930 7 -16706435.30923
 91  4 22 22 38 14.9950000  0  5G15G 2G19G13G 6
  22830356.6944    -874791.82445   -590787.96761
  19483227.452   -21053756.654 8 -16318818.57024
  21180815.999     1616296.091 6   1269334.55121
  22733651.3664     -72315.84144
  20162219.780   -21752493.361 7 -16736467.54823
 91  4 22 22 38 29.9950000  0  5G15G 2G19G13G 6
  22823317.046     -911797.354 5   -619623.36521
  19480264.187   -21069325.219 8 -16330949.90024
  21184889.3514    1637705.45746   1286017.11961
  22719891.3434    -144611.83044
  20154889.171   -21791005.482 7 -16766476.94723
 91  4 22 22 38 44.9950000  0  5G15G 2G19G13G 6
  22816288.187     -948720.101 5   -648394.25921
  19477312.038   -21084842.146 8 -16343040.99624
  21188974.968     1659174.038 6   1302745.83921
  22706138.8584    -216886.72944
  20147566.179   -21829486.971 7 -16796462.47923
 91  4 22 22 38 59.9950000  0  5G15G 2G19G13G 6
  22809276.9294    -985554.71945   -677096.46161
  19474369.546   -21100302.784 8 -16355088.23424
  21193073.858     1680706.635 6   1319524.42821
  22692389.366     -289135.273 4
  20140250.726   -21867932.848 7 -16826420.26323
 91  4 22 22 39 14.9950000  0  5G15G 2G19G13G 6
  22802289.1794   -1022291.11945   -705722.15761
  19471441.108   -21115697.376 8 -16367084.00324
  21197186.1164    1702313.24346   1336360.69061
  22678646.163     -361347.174 3
  20132942.1634  -21906333.12347 -16856342.51263
 91  4 22 22 39 29.9950000  0  5G15G 2G19G13G 6
  22795318.976    -1058927.812 5   -734270.12321
  19468523.233   -21131024.605 8 -16379027.27924
  21201309.374     1723995.164 6   1353255.64821
  22664913.9764    -433520.70044        -0.44471
  20125644.890   -21944686.383 7 -16886228.12223
 91  4 22 22 39 44.9950000  0  5G15G 2G19G13G 6
  22788360.171    -1095477.140 5   -762750.05521
  19465616.444   -21146297.656 8 -16390928.34224
  21205450.4994    1745739.13746   1370198.94461
  22651181.687     -505668.626 3    -56219.17221
  20118352.3354  -21983005.43747 -16916087.08763
 91  4 22 22 39 59.9950000  0  5G15G 2G19G13G 6
  22781422.648    -1131955.329 5   -791174.53121
  19462718.366   -21161532.944 8 -16402799.98024
  21209596.054     1767528.848 6   1387177.88721
  22637459.952     -577806.781 4   -112430.27421
  20111063.6014  -22021306.22347 -16945931.81663
 91  4 22 22 40 14.9950000  0  5G15G 2G19G13G 6
  22774493.3124   -1168340.87345   -819526.83161
  19459829.812   -21176709.383 8 -16414625.76324
  21213757.2264    1789385.27046   1404208.80861
  22623734.210     -649913.861 4   -168617.20321
  20103781.8904  -22059567.39347 -16975745.67763
 91  4 22 22 40 29.9950000  0  5G15G 2G19G13G 6
  22767589.132    -1204636.673 5   -847809.18521
  19456952.163   -21191830.473 8 -16426408.41524
  21217924.124     1811305.193 6   1421289.21121
  22610017.3584    -721992.86344   -224782.21461
  20096509.2334  -22097792.15247 -17005531.16663
 91  4 22 22 40 44.9950000  0  5G15G 2G19G13G 6
  22760699.921    -1240836.700 5   -876016.91621
  19454087.194   -21206890.034 8 -16438143.12424
  21222111.7804    1833294.54146   1438423.70361
  22596310.0854    -794037.17944
  20089242.3904  -22135974.47647 -17035283.59263
 91  4 22 22 40 59.9950000  0  5G15G 2G19G13G 6
  22753832.538    -1276950.109 5   -904157.15821
  19451231.210   -21221897.965 8 -16449837.59724
  21226303.124     1855343.546 6   1455604.69621
  22582600.9684    -866056.09344
  20081982.9524  -22174123.72847 -17065010.24463
 91  4 22 22 41 14.9950000  0  5G15G 2G19G13G 6
  22746974.405    -1312975.115 5   -932228.51121
  19448384.312   -21236853.081 8 -16461490.91724
  21230514.6404    1877453.41046   1472833.09461
  22568900.2964    -938048.25044
  20074732.3984  -22212238.43147 -17094709.97563
 91  4 22 22 41 29.9950000  0  5G15G 2G19G13G 6
  22740130.265    -1348911.719 5   -960230.98821
  19445549.624   -21251755.716 8 -16473103.34024
  21234733.1794    1899623.79846   1490108.66961
  22555207.718    -1010013.465 5        -0.19031
  20067483.6164  -22250318.57747 -17124382.78063
 91  4 22 22 41 44.9950000  0  5G15G 2G19G13G 6
  22733311.3274   -1384757.65645   -988162.80461
  19442723.937   -21266603.864 8 -16484673.30624
  21238962.5624    1921856.75446   1507432.98561
  22541518.218    -1081949.156 4    -56053.53021
  20060242.8274  -22288361.94647 -17154026.92663
 91  4 22 22 41 59.9950000  0  5G15G 2G19G13G 6
  22726506.788    -1420505.431 5  -1016018.16521
  19439910.249   -21281390.338 8 -16496195.21524
  21243205.7024    1944159.48246   1524811.66861
  22527835.405    -1153847.633 5   -112077.91121
  20053013.3824  -22326361.03847 -17183636.57463
 91  4 22 22 42 14.9950000  0  5G15G 2G19G13G 6
  22719722.968    -1456165.511 5  -1043805.17321
  19437106.265   -21296126.171 8 -16507677.66124
  21247463.108     1966521.163 6   1542236.28221
  22514159.780    -1225719.475 4   -168081.54421
  20045789.6874  -22364326.59947 -17213220.09463
 91  4 22 22 42 29.9950000  0  5G15G 2G19G13G 6
  22712957.8824   -1491728.99745  -1071516.91261
  19434312.679   -21310802.784 8 -16519113.96324
  21251729.8984    1988950.32646   1559713.48461
  22500488.7494   -1297555.75045   -224057.45561
  20038572.6244  -22402249.65647 -17242770.49363
 91  4 22 22 42 44.9950000  0  5G15G 2G19G13G 6
  22706207.085    -1527189.014 5  -1099147.99821
  19431532.023   -21325413.632 8 -16530499.01724
  21256014.2264    2011453.54646   1577248.39461
  22486826.1794   -1369349.55645   -280000.31861
  20031366.9604  -22440123.53547 -17272282.57163
 91  4 22 22 42 59.9950000  0  5G15G 2G19G13G 6
  22699477.3664   -1562561.71345  -1126711.07561
  19428760.968   -21339975.334 8 -16541845.77624
  21260304.4764    2034014.18446   1594828.04961
  22473168.343    -1441117.192 5   -335922.73321
  20024165.6324  -22477964.62947 -17301769.10163
 91  4 22 22 43 14.9950000  0  5G15G 2G19G13G 6
  22692765.3744   -1597836.93945  -1154198.18361
  19426000.437   -21354478.088 8 -16553146.60124
  21264613.1084    2056642.09646   1612460.12561
  22459521.280    -1512848.138 5   -391816.59721
  20016971.6014  -22515762.76547 -17331222.16363
 91  4 22 22 43 29.9950000  0  5G15G 2G19G13G 6
  22686070.437    -1633021.606 5  -1181614.74821
  19423251.054   -21368929.124 8 -16564407.12824
  21268929.6324    2079330.00646   1630138.96061
  22445876.2264   -1584549.09245   -447687.09861
  20009785.3194  -22553524.96547 -17360647.21863
 91  4 22 22 43 44.9950000  0  5G15G 2G19G13G 6
  22679385.7884   -1668120.22045  -1208964.25161
  19420510.358   -21383333.528 8 -16575631.31824
  21273259.7334    2102072.91746   1647860.63961
  22432235.038    -1656224.963 4   -503538.05021
  20002606.4294  -22591255.95247 -17390047.95363
 91  4 22 22 43 59.9950000  0  5G15G 2G19G13G 6
  22672727.2104   -1703117.47445  -1236234.75661
  19417781.226   -21397676.248 8 -16586807.44124
  21277596.7734    2124885.79646   1665636.85061
  22418604.5624   -1727860.08245   -559357.25461
  19995434.8194  -22628940.52447 -17419412.52063
 91  4 22 22 44 14.9950000  0  5G15G 2G19G13G 6
  22666093.413    -1738022.835 5  -1263433.65321
  19415061.562   -21411967.016 8 -16597943.08424
  21281951.9444    2147758.88246   1683459.96861
  22404978.0934   -1799463.90445   -615152.10461
  19988271.3664  -22666588.01447 -17448748.19063
 91  4 22 22 44 29.9950000  0  5G15G 2G19G13G 6
  22659463.8434   -1772818.41045  -1290547.03461
  19412354.937   -21426188.271 8 -16609024.55924
  21286322.999     2170709.785 6   1701343.71821
  22391363.0304   -1871018.40945   -670908.50361
  19981117.1404  -22704180.82947 -17478041.26263
 91  4 22 22 44 44.9950000  0  5G15G 2G19G13G 6
  22652858.304    -1807513.808 5  -1317582.32921
  19409660.093   -21440350.115 8 -16620059.74224
  21290700.1324    2193728.50146   1719280.32361
  22377750.7334   -1942533.17145   -726633.96661
  19973972.2024  -22741728.63747 -17507299.25763
 91  4 22 22 44 59.9950000  0  5G15G 2G19G13G 6
  22646277.101    -1842125.685 5  -1344552.53921
  19406973.382   -21454469.753 8 -16631062.03824
  21295087.8514    2216797.69946   1737256.25461
  22364144.4994   -2014024.94445   -782341.44361
  19966830.9134  -22779248.25347 -17536535.28763
 91  4 22 22 45 14.9950000  0  5G15G 2G19G13G 6
  22639714.1324   -1876635.69345  -1371443.37361
  19404298.140   -21468529.132 8 -16642017.37524
  21299492.3434    2239935.75346   1755285.83861
  22350551.6014   -2085475.02845   -838016.51561
  19959700.0074  -22816721.39847 -17565735.10863
 91  4 22 22 45 29.9950000  0  5G15G 2G19G13G 6
  22633162.3274   -1911042.36745  -1398253.70461
  19401634.296   -21482527.247 8 -16652924.97724
  21303907.5694    2263143.57546   1773369.79561
  22336962.288    -2156881.976 5   -893657.94321
  19952577.8434  -22854146.71547 -17594897.65763
 91  4 22 22 45 44.9950000  0  5G15G 2G19G13G 6
  22626629.796    -1945352.727 5  -1424988.99021
  19398981.062   -21496471.357 8 -16663790.49524
  21308337.0854    2286413.96246   1791502.50461
  22323382.6944   -2228252.73845   -949271.16861
  19945465.3514  -22891531.18247 -17624028.37563
 91  4 22 22 45 59.9950000  0  5G15G 2G19G13G 6
  22620124.405    -1979563.240 5  -1451646.45021
  19396338.819   -21510358.554 8 -16674611.66624
  21312777.3984    2309749.84046   1809686.24761
  22309806.9684   -2299584.04145  -1004853.66861
  19938359.3274  -22928871.60447 -17653124.77463
 91  4 22 22 46 14.9950000  0  5G15G 2G19G13G 6
  22613639.4914   -2013670.10245  -1478223.13461
  19393708.085   -21524185.237 8 -16685385.68624
  21317233.3904    2333154.66346   1827923.71461
  22296241.8274   -2370871.96645  -1060402.37961
  19931262.1874  -22966164.16447 -17682183.87863
 91  4 22 22 46 29.9950000  0  5G15G 2G19G13G 6
  22607166.382    -2047676.381 5  -1504721.45821
  19391087.249   -21537955.010 8 -16696115.35724
  21321698.5854    2356625.00045   1846212.22261
  22282680.6014   -2442119.52145  -1115919.61861
  19924175.0854  -23003412.18247 -17711208.27063
 91  4 22 22 46 44.9950000  0  5G15G 2G19G13G 6
  22600708.187    -2081592.623 5  -1531149.63221
  19388475.335   -21551678.776 8 -16706809.18124
  21326175.5624    2380149.92846   1864543.28061
  22269130.374    -2513337.021 5  -1171413.42621
  19917093.5384  -23040626.11847 -17740206.10663
 91  4 22 22 46 59.9950000  0  5G15G 2G19G13G 6
  22594269.171    -2115417.725 5  -1557506.76321
  19385873.468   -21565355.642 8 -16717466.45824
  21330659.9994    2403730.30345   1882917.53461
  22255584.280    -2584523.326 5  -1226882.93921
  19910018.3044  -23077805.03647 -17769176.65463
 91  4 22 22 47 14.9950000  0  5G15G 2G19G13G 6
  22587860.546    -2149134.210 6  -1583779.27321
  19383283.429   -21578968.500 8 -16728073.85824
  21335162.8904    2427383.31545   1901348.39161
  22242045.679    -2655660.824 5  -1282314.41021
  19902953.7264  -23114931.40347 -17798106.25263
 91  4 22 22 47 29.9950000  0  5G15G 2G19G13G 6
  22581460.827    -2182753.229 5  -1609975.84121
  19380701.554   -21592528.825 8 -16738640.32224
  21339673.108     2451097.705 6   1919827.07821
  22228512.023    -2726760.385 5  -1337716.34721
  19895895.1794  -23152016.35847 -17827003.58463
 91  4 22 22 47 44.9950000  0  5G15G 2G19G13G 6
  22575079.6014   -2216267.72645  -1636090.96961
  19378132.226   -21606030.132 8 -16749160.80424
  21344201.116     2474879.869 6   1938358.58321
  22214993.452    -2797815.205 5  -1393083.43021
  19888848.3744  -23189053.24147 -17855863.45263
 91  4 22 22 47 59.9950000  0  5G15G 2G19G13G 6
  22568717.5464   -2249690.53445  -1662134.63261
  19375572.679   -21619485.388 8 -16759645.40024
  21348741.2734    2498716.70245   1956932.67761
  22201479.069    -2868837.788 5  -1448425.34621
  19881807.5074  -23226054.67047 -17884695.69563
 91  4 22 22 48 14.9950000  0  5G15G 2G19G13G 6
  22562382.452    -2283006.763 5  -1688095.25821
  19373023.476   -21632880.323 8 -16770082.99124
  21353288.569     2522622.463 5   1975560.48521
  22187973.944    -2939813.557 5  -1503730.80321
  19874775.8664  -23263006.10147 -17913488.98063
 91  4 22 22 48 29.9950000  0  5G15G 2G19G13G 6
  22556059.655    -2316232.006 5  -1713984.97221
  19370482.023   -21646230.699 7 -16780485.86224
  21357849.351     2546581.542 5   1994229.82621
  22174471.2024   -3010757.71045  -1559011.60861
  19867750.6874  -23299923.12247 -17942255.45163
 91  4 22 22 48 44.9950000  0  5G15G 2G19G13G 6
  22549755.999    -2349349.150 5  -1739790.44921
  19367953.046   -21659519.779 8 -16790840.97024
  21362419.0934    2570610.50545   2012953.65661
  22160980.5234   -3081653.17345  -1614254.52161
  19860735.0854  -23336788.57447 -17970981.73963
 91  4 22 22 48 59.9950000  0  5G15G 2G19G13G 6
  22543470.1404   -2382375.11345  -1765524.90661
  19365433.437   -21672764.886 8 -16801161.81623
  21366998.069     2594691.954 6   2031718.35021
  22147496.7574   -3152516.78845  -1669472.58761
  19853726.3434  -23373619.52447 -17999681.14163
 91  4 22 22 49 14.9950000  0  5G15G 2G19G13G 6
  22537210.757    -2415286.963 5  -1791170.40821
  19362924.874   -21685943.489 8 -16811430.83624
  21371597.976     2618848.549 5   2050541.62621
  22134019.9134   -3223325.53345  -1724647.88261
  19846729.2414  -23410393.06947 -18028335.81363
 91  4 22 22 49 29.9950000  0  5G15G 2G19G13G 6
  22530966.937    -2448090.004 5  -1816731.16921
  19360429.351   -21699061.209 8 -16821652.41724
  21376210.4134    2643074.63745   2069419.02261
  22120556.507    -3294084.466 5  -1779784.38221
  19839739.7334  -23447114.69347 -18056950.02663
 91  4 22 22 49 44.9950000  0  5G15G 2G19G13G 6
  22524740.077    -2480795.920 5  -1842216.18521
  19357942.249   -21712130.137 8 -16831835.98324
  21380828.523     2667358.354 5   2088341.33421
  22107100.069    -3364805.414 5  -1834891.25321
  19832760.132   -23483796.103 7 -18085532.90223
 91  4 22 22 49 59.9950000  0  5G15G 2G19G13G 6
  22518538.249    -2513402.509 5  -1867623.84521
  19355464.218   -21725148.656 8 -16841980.26724
  21385460.4294    2691701.46545   2107309.92961
  22093648.507    -3435486.129 5  -1889966.82521
  19825789.7184  -23520435.29947 -18114082.88563
 91  4 22 22 50 14.9950000  0  5G15G 2G19G13G 6
  22512351.796    -2545903.275 5  -1892949.03021
  19352997.491   -21738110.345 8 -16852080.27024
  21390106.569     2716110.163 5   2126329.61121
  22080205.523    -3506119.711 5  -1945005.62021
  19818824.4914  -23557025.57747 -18142594.75063
 91  4 22 22 50 29.9950000  0  5G15G 2G19G13G 6
  22506189.9214   -2578301.22845  -1918194.10061
  19350541.601   -21751018.525 8 -16862138.57424
  21394762.2334    2740580.95645   2145397.71061
  22066771.866    -3576709.294 5  -2000010.16821
  19811871.5694  -23593570.21547 -18171071.05263
 91  4 22 22 50 44.9950000  0  5G15G 2G19G13G 6
  22500040.601    -2610593.009 5  -1943356.45521
  19348095.694   -21763870.209 8 -16872152.85624
  21399433.5154    2765116.81746   2164516.48261
  22053347.6944   -3647251.65445  -2054977.92161
  19804927.1944  -23630065.86047 -18199509.17563
 91  4 22 22 50 59.9950000  0  5G15G 2G19G13G 6
  22493915.8354   -2642775.21945  -1968433.40561
  19345661.233   -21776662.595 8 -16882120.93524
  21404113.101     2789720.625 5   2183688.22421
  22039932.4134   -3717743.19645  -2109906.05261
  19797991.2964  -23666509.33947 -18227906.65163
 91  4 22 22 51 14.9950000  0  5G15G 2G19G13G 6
  22487822.210    -2674843.015 6  -1993421.22021
  19343239.202   -21789391.074 8 -16892039.21524
  21408811.9214    2814396.99646   2202916.48861
  22026529.3664   -3788179.05945  -2164790.81961
  19791064.8984  -23702895.89247 -18256259.77063
 91  4 22 22 51 29.9950000  0  5G15G 2G19G13G 6
  22481729.7414   -2706815.34745  -2018334.64761
  19340825.296   -21802074.881 8 -16901922.68424
  21413514.0304    2839126.85045   2222186.44161
  22013135.4444   -3858577.76545  -2219646.61661
  19784150.2654  -23739244.33847 -18284583.19563
 91  4 22 22 51 44.9950000  0  5G15G 2G19G13G 6
  22475668.8664   -2738686.56345  -2043169.24261
  19338422.163   -21814708.682 8 -16911767.19124
  21418234.8584    2863915.30646   2241502.06761
  21999744.3584   -3928933.76445  -2274469.16861
  19777240.1014  -23775549.14347 -18312872.61463
 91  4 22 22 51 59.9950000  0  5G15G 2G19G13G 6
  22469621.5464   -2770443.64845  -2067914.96461
  19336028.640   -21827280.183 8 -16921563.15024
  21422965.655     2888774.949 6   2260873.14521
  21986368.0384   -3999234.20745  -2329248.39561
  19770343.7654  -23811797.57547 -18341118.10863
 91  4 22 22 52 14.9950000  0  5G15G 2G19G13G 6
  22463597.280    -2802086.681 5  -2092571.78221
  19333649.241   -21839789.492 8 -16931310.64824
  21427707.4214    2913705.51445   2280299.49561
  21972998.249    -4069478.770 5  -2383984.11221
  19763457.3434  -23847989.55147 -18369319.60963
 91  4 22 22 52 29.9950000  0  5G15G 2G19G13G 6
  22457594.530    -2833644.044 5  -2117161.84021
  19331275.507   -21852265.195 8 -16941031.96124
  21432462.2964    2938678.31546   2299758.74061
  21959637.554    -4139695.670 5  -2438698.26021
  19756575.0384  -23884153.32747 -18397499.13563
 91  4 22 22 52 44.9950000  0  5G15G 2G19G13G 6
  22451613.999    -2865100.482 5  -2141673.26721
  19328909.765   -21864692.630 8 -16950715.66324
  21437224.5694    2963708.26245   2319262.54561
  21946285.3824   -4209870.04245  -2493379.26261
  19749701.8904  -23920273.88947 -18425644.99263
 91  4 22 22 52 59.9950000  0  5G15G 2G19G13G 6
  22445643.3584   -2896446.82545  -2166098.90961
  19326556.366   -21877062.618 8 -16960354.60124
  21441999.2574    2988804.27146   2338817.78861
  21932938.6324   -4279992.05845  -2548019.51961
  19742837.3664  -23956342.02647 -18453750.00063
 91  4 22 22 53 14.9950000  0  5G15G 2G19G13G 6
  22439700.343    -2927686.440 5  -2190441.36421
  19324212.780   -21889379.229 8 -16969951.94724
  21446786.843     3013962.478 5   2358421.51921
  21919604.710    -4350065.407 5  -2602621.80221
  19735981.9684  -23992361.27447 -18481816.91163
 91  4 22 22 53 29.9950000  0  5G15G 2G19G13G 6
  22433772.757    -2958819.209 5  -2214700.58421
  19321878.187   -21901642.775 8 -16979507.94624
  21451587.4524    3039182.67246   2378073.54861
  21906280.8744   -4420089.64345  -2657185.84961
  19729139.5074  -24028331.63247 -18509845.72663
 91  4 22 22 53 44.9950000  0  5G15G 2G19G13G 6
  22427874.132    -2989833.946 5  -2238867.81821
  19319556.9444  -21913842.46748 -16989014.18764
  21456401.124     3064475.322 6   2397782.01921
  21892967.8354   -4490053.75645  -2711703.03761
  19722303.8354  -24064242.02247 -18537827.81563
 91  4 22 22 53 59.9950000  0  5G15G 2G19G13G 6
  22421994.687    -3020739.886 5  -2262950.26521
  19317245.601   -21925987.737 8 -16998478.02024
  21461222.6324    3089831.06645   2417539.70761
  21879660.7414   -4559966.79445  -2766180.44261
  19715480.9524  -24100101.69747 -18565770.37963
 91  4 22 22 54 14.9950000  0  5G15G 2G19G13G 6
  22416126.5854   -3051535.32845  -2286946.63061
  19314945.5694  -21938077.16048 -17007898.34164
  21466063.8434    3115251.60946   2437347.80461
  21866365.5694   -4629826.43545  -2820616.22661
  19708667.9604  -24135908.84347 -18593672.02163
 91  4 22 22 54 29.9950000  0  5G15G 2G19G13G 6
  22410291.171    -3082234.503 5  -2310867.95021
  19312652.366   -21950125.270 8 -17017286.46624
  21470905.9374    3140722.11645   2457194.93961
  21853080.7734   -4699647.18245  -2875021.71561
  19701860.3984  -24171677.66547 -18621543.79463
 91  4 22 22 54 44.9950000  0  5G15G 2G19G13G 6
  22404473.585    -3112816.843 5  -2334698.25221
  19310371.4054  -21962111.94748 -17026626.72164
  21475771.5234    3166262.82546   2477096.65161
  21839806.421    -4769408.417 5  -2929380.83921
  19695066.0774  -24207387.79047 -18649369.83063
 91  4 22 22 54 59.9950000  0  5G15G 2G19G13G 6
  22398676.608    -3143283.431 5  -2358438.35421
  19308101.757   -21974038.529 8 -17035920.15124
  21480640.4524    3191872.28845   2497052.05261
  21826542.7104   -4839111.10145  -2983694.33961
  19688280.7654  -24243040.26647 -18677150.94963
 91  4 22 22 55 14.9950000  0  5G15G 2G19G13G 6
  22392891.765    -3173638.521 5  -2382091.58121
  19305842.2654  -21985909.85648 -17045170.52564
  21485529.515     3217545.718 6   2517057.21021
  21813287.944    -4908759.604 5  -3037965.63421
  19681505.2184  -24278639.74247 -18704890.76763
 91  4 22 22 55 29.9950000  0  5G15G 2G19G13G 6
  22387140.3664   -3203878.71745  -2405655.26061
  19303595.5624  -21997722.52548 -17054375.19364
  21490423.046     3243286.301 5   2537114.75021
  21800043.108    -4978350.613 5  -3092192.09021
  19674742.2734  -24314182.54447 -18732586.42763
 91  4 22 22 55 44.9950000  0  5G15G 2G19G13G 6
  22381408.1324   -3234017.30545  -2429139.79161
  19301356.054   -22009490.196 8 -17063544.79624
  21495337.3044    3269080.56246   2557214.08161
  21786808.8194   -5047897.10245  -3146383.90561
  19667987.0074  -24349681.88547 -18760248.22163
 91  4 22 22 55 59.9950000  0  5G15G 2G19G13G 6
  22375693.241    -3264057.269 6  -2452547.45021
  19299123.9834  -22021216.46348 -17072682.13764
  21500248.226     3294924.700 5   2577352.30621
  21773585.7494   -5117402.06145  -3200543.31661
  19661238.9764  -24385141.14747 -18787878.78363
 91  4 22 22 56 14.9950000  0  5G15G 2G19G13G 6
  22369996.2334   -3293999.93245  -2475879.31861
  19296900.6714  -22032902.92848 -17081788.46664
  21505183.827     3320817.480 6   2597528.40121
  21760366.843    -5186866.496 5  -3254671.20821
  19654498.6714  -24420561.48947 -18815479.01863
 91  4 22 22 56 29.9950000  0  5G15G 2G19G13G 6
  22364315.757    -3323837.787 5  -2499129.49221
  19294686.8824  -22044542.50048 -17090858.25464
  21510113.3514    3346765.84345   2617747.87461
  21747156.179    -5256282.851 5  -3308761.59021
  19647767.5304  -24455935.56047 -18843043.19863
 91  4 22 22 56 44.9950000  0  5G15G 2G19G13G 6
  22358658.1874   -3353566.09945  -2522294.32261
  19292479.1794  -22056130.51748 -17099887.86864
  21515071.499     3372774.434 6   2638014.18921
  21733954.515    -5325646.119 5  -3362810.63421
  19641046.0934  -24491258.62547 -18870567.63863
 91  4 22 22 56 59.9950000  0  5G15G 2G19G13G 6
  22353014.312    -3383185.174 5  -2545374.03421
  19290285.6164  -22067667.83048 -17108877.97264
  21520026.108     3398842.311 5   2658326.80321
  21720765.6944   -5394956.60945  -3416818.54561
  19634333.8824  -24526531.04147 -18898052.60363
 91  4 22 22 57 14.9950000  0  5G15G 2G19G13G 6
  22347410.7104   -3412678.25445  -2568355.56461
  19288102.3274  -22079137.78348 -17117815.58964
  21525004.1944    3424986.15945   2678698.52261
  21707590.1164   -5464197.62545  -3470772.27461
  19627635.2964  -24561735.93347 -18925484.95963
 91  4 22 22 57 29.9950000  0  5G15G 2G19G13G 6
  22341821.1944   -3442051.81545  -2591243.96361
  19285932.7494  -22090547.02848 -17126705.90164
  21529987.9764    3451199.31245   2699124.32461
  21694426.093    -5533375.206 5  -3524676.66421
  19620945.9374  -24596879.60947 -18952869.61463
 91  4 22 22 57 44.9950000  0  5G15G 2G19G13G 6
  22336251.5774   -3471313.54545  -2614045.22361
  19283770.1164  -22101903.97148 -17135555.45964
  21534991.257     3477473.369 5   2719597.53821
  21681272.077    -5602497.120 5  -3578537.64621
  19614270.0544  -24631970.06247 -18980212.79663
 91  4 22 22 57 59.9950000  0  5G15G 2G19G13G 6
  22330696.640    -3500460.749 5  -2636757.27021
  19281619.4214  -22113206.17848 -17144362.36164
  21540001.3744    3503810.67945   2740120.05261
  21668130.382    -5671560.591 6  -3632353.05721
  19607601.5304  -24667004.68847 -19007512.47863
 91  4 22 22 58 14.9950000  0  5G15G 2G19G13G 6
  22325183.179    -3529490.077 5  -2659377.43421
  19279479.6164  -22124450.65448 -17153124.27964
  21545027.241     3530214.467 5   2760694.37921
  21654998.1324   -5740562.22845  -3686120.33461
  19600945.7884  -24701980.18047 -19034766.07763
 91  4 22 22 58 29.9950000  0  5G15G 2G19G13G 6
  22319677.8824   -3558402.02945  -2681906.15761
  19277350.3194  -22135637.95848 -17161841.65164
  21550063.835     3556683.899 5   2781319.83021
  21641881.5854   -5809502.20945  -3739839.54261
  19594303.2654  -24736896.67347 -19061973.70663
 91  4 22 22 58 44.9950000  0  5G15G 2G19G13G 6
  22314196.491    -3587187.379 5  -2704336.23821
  19275234.3044  -22146759.28548 -17170507.61064
  21555113.0774    3583227.73245   2802003.27261
  21628773.296    -5878371.286 5  -3793503.48421
  19587670.9764  -24771745.37847 -19089128.51163
 91  4 22 22 58 59.9950000  0  5G15G 2G19G13G 6
  22308747.249    -3615861.550 6  -2726679.63921
  19273127.7654  -22157830.46448 -17179134.49564
  21560176.0854    3609830.16545   2822732.37661
  21615677.0774   -5947184.78045  -3847124.18361
  19581050.1404  -24806541.74147 -19116242.53464
 91  4 22 22 59 14.9950000  0  5G15G 2G19G13G 6
  22303306.5154   -3644415.33245  -2748929.28161
  19271032.0464  -22168842.46948 -17187715.27064
  21565253.1164    3636500.31845   2843514.23161
  21602598.0304   -6015933.28046  -3900694.12861
  19574438.5464  -24841276.18547 -19143308.30463
 91  4 22 22 59 29.9950000  0  5G15G 2G19G13G 6
  22297901.2574   -3672846.33345  -2771083.22561
  19268947.3584  -22179793.39948 -17196248.45164
  21570340.2654    3663239.88045   2864350.18561
  21589525.5154   -6084614.58345  -3954211.82061
  19567841.7964  -24875946.75947 -19170324.30664
 91  4 22 22 59 44.9950000  0  5G15G 2G19G13G 6
  22292510.7334   -3701155.66845  -2793142.37661
  19266875.3984  -22190684.55948 -17204735.06064
  21575443.9604    3690047.51045   2885239.16061
  21576469.952    -6153229.612 6  -4007677.79821
  19561256.2024  -24910554.30047 -19197291.19264
 91  4 22 22 59 59.9950000  0  5G15G 2G19G13G 6
  22287144.944    -3729350.378 5  -2815112.22721
  19264813.4054  -22201523.24248 -17213180.77764
  21580555.007     3716915.868 5   2906175.46421
  21563423.351    -6221785.424 5  -4061097.68321
  19554680.9994  -24945106.01647 -19224214.57964
 91  4 22 23  0 14.9950000  0  5G15G 2G19G13G 6
  22281805.3664   -3757444.00245  -2837003.29161
  19262757.5934  -22212323.37348 -17221596.45464
  21585675.2654    3743831.15345   2927148.33361
  21550385.733    -6290295.018 5  -4114481.52421
  19548114.2024  -24979615.31147 -19251104.91264
 91  4 22 23  0 29.9950000  0  5G15G 2G19G13G 6
  22276473.6944   -3785427.72945  -2858808.74061
  19260712.1404  -22223076.77748 -17229975.71964
  21590813.827     3770801.692 5   2948164.25921
  21537359.9524   -6358749.82246  -4167822.67761
  19541556.9214  -25014073.76647 -19277955.62964
 91  4 22 23  0 44.9950000  0  5G15G 2G19G13G 6
  22271172.757    -3813294.257 5  -2880522.83121
  19258676.7574  -22233776.20048 -17238312.92264
  21595952.140     3797834.579 5   2969228.76321
  21524342.7494   -6427142.36645  -4221115.30361
  19535011.6874  -25048473.87447 -19304760.87964
 91  4 22 23  0 59.9950000  0  5G15G 2G19G13G 6
  22265893.1944   -3841049.09445  -2902149.90261
  19256648.4374  -22244427.48448 -17246612.61564
  21601112.437     3824923.932 5   2990337.26521
  21511339.366    -6495478.029 5  -4274363.68421
  19528475.085   -25082821.134 7 -19331524.95024
 91  4 22 23  1 14.9950000  0  5G15G 2G19G13G 6
  22260629.5624   -3868692.73445  -2923690.37261
  19254631.0154  -22255031.23648 -17254875.26964
  21606275.265     3852069.098 5   3011489.27021
  21498348.632    -6563757.043 6  -4327567.81821
  19521948.9444  -25117115.88647 -19358248.10563
 91  4 22 23  1 29.9950000  0  5G15G 2G19G13G 6
  22255395.1404   -3896214.48245  -2945135.80961
  19252624.1014  -22265577.13848 -17263092.84664
  21611449.343     3879280.257 5   3032692.69021
  21485364.9214   -6631968.47545  -4380719.35861
  19515435.819   -25151347.470 7 -19384922.04223
 91  4 22 23  1 44.9950000  0  5G15G 2G19G13G 6
  22250182.866    -3923607.766 5  -2966481.16021
  19250629.6324  -22276059.11648 -17271260.61264
  21616644.983     3906563.595 5   3053952.36521
  21472400.3824   -6700105.92146  -4433813.19861
  19508932.2884  -25185509.59347 -19411541.84864
 91  4 22 23  1 59.9950000  0  5G15G 2G19G13G 6
  22244987.968    -3950896.251 5  -2987744.86221
  19248643.4214  -22286500.93348 -17279397.08464
  21621845.2104    3933895.25245   3075249.68661
  21459445.398    -6768192.605 6  -4486867.52221
  19502441.7104  -25219625.75247 -19438125.84164
 91  4 22 23  2 14.9950000  0  5G15G 2G19G13G 6
  22239823.023    -3978078.814 6  -3008925.99921
  19246662.7104  -22296901.66748 -17287501.54464
  21627056.3904    3961276.06745   3096585.30361
  21446497.5384   -6836227.37545  -4539881.38761
  19495958.3274  -25253694.75847 -19464673.09164
 91  4 22 23  2 29.9950000  0  5G15G 2G19G13G 6
  22234670.8904   -4005148.41446  -3030019.11461
  19244692.5154  -22307254.70348 -17295568.84064
  21632275.0694    3988712.60345   3117964.31861
  21433563.3194   -6904203.19846  -4592849.31361
  19489486.2574  -25287709.49247 -19491178.05064
 91  4 22 23  2 44.9950000  0  5G15G 2G19G13G 6
  22229530.5934   -4032098.13445  -3051018.87561
  19242733.2494  -22317553.73748 -17303594.04864
  21637511.7964    4016211.29745   3139391.78061
  21420638.593    -6972113.279 5  -4645766.01921
  19483023.7494  -25321663.44647 -19517635.64864
 91  4 22 23  2 59.9950000  0  5G15G 2G19G13G 6
  22224425.9994   -4058921.79445  -3071920.35861
  19240784.7024  -22327792.56148 -17311572.34664
  21642753.4134    4043778.38745   3160872.52561
  21407728.0774   -7039950.86445  -4698626.23961
  19476577.1554  -25355550.02347 -19544040.74663
 91  4 22 23  3 14.9950000  0  5G15G 2G19G13G 6
  22219347.1874   -4085634.54245  -3092735.43861
  19238845.4834  -22337986.71348 -17319515.83264
  21648011.929     4071398.338 5   3182394.49021
  21394828.327    -7107731.214 5  -4751441.84821
  19470136.898   -25389384.436 7 -19570405.19724
 91  4 22 23  3 29.9950000  0  5G15G 2G19G13G 6
  22214287.218    -4112236.019 6  -3113463.79621
  19236914.4604  -22348136.18648 -17327424.50164
  21653278.585     4099070.916 5   3203957.42821
  21381941.1714   -7175453.77845  -4804212.44661
  19463709.1014  -25423166.44847 -19596728.81664
 91  4 22 23  3 44.9950000  0  5G15G 2G19G13G 6
  22209244.530    -4138710.861 5  -3134093.48921
  19234993.4134  -22358226.09048 -17335286.75564
  21658556.327     4126811.245 5   3225573.18521
  21369070.905    -7243103.117 6  -4856925.95921
  19457294.3514  -25456880.75647 -19622999.67864
 91  4 22 23  3 59.9950000  0  5G15G 2G19G13G 6
  22204228.585    -4165056.799 5  -3154622.72821
  19233084.8274  -22368254.30448 -17343100.94164
  21663846.429     4154621.231 5   3247243.21321
  21356210.5074   -7310677.10046  -4909580.78261
  19450891.007   -25490525.098 7 -19649216.02224
 91  4 22 23  4 14.9950000  0  5G15G 2G19G13G 6
  22199238.874    -4191286.692 5  -3175061.54821
  19231186.4294  -22378233.92748 -17350877.25864
  21669151.6554    4182487.65645   3268957.20061
  21343364.2654   -7378188.39346  -4962186.74461
  19444500.413   -25524112.304 7 -19675387.84424
 91  4 22 23  4 29.9950000  0  5G15G 2G19G13G 6
  22194270.8434   -4217412.23445  -3195419.05761
  19229293.9764  -22388176.68248 -17358624.85364
  21674462.5384    4210398.68645   3290705.98661
  21330526.9604   -7445648.35546  -5014752.71661
  19438117.2104  -25557653.89347 -19701524.11964
 91  4 22 23  4 44.9950000  0  5G15G 2G19G13G 6
  22189321.6944   -4243419.50245  -3215684.41861
  19227412.2804  -22398069.16548 -17366333.27364
  21679785.991     4238367.701 5   3312499.91521
  21317700.640    -7513043.206 6  -5067267.95121
  19431745.390   -25591136.089 7 -19727614.11724
 91  4 22 23  4 59.9950000  0  5G15G 2G19G13G 6
  22184397.2574   -4269307.89545  -3235857.12461
  19225539.5304  -22407910.95948 -17374002.19464
  21685120.179     4266395.228 5   3334339.43821
  21304888.358    -7580371.873 6  -5119731.60221
  19425385.007   -25624558.086 7 -19753657.20824
 91  4 22 23  5 14.9950000  0  5G15G 2G19G13G 6
  22179484.343    -4295078.196 5  -3255937.84721
  19223674.5854  -22417703.48548 -17381632.72664
  21690462.819     4294479.716 5   3356223.37521
  21292086.8824   -7647635.18546  -5172144.35361
  19419037.124   -25657921.064 7 -19779654.30724
 91  4 22 23  5 29.9950000  0  5G15G 2G19G13G 6
  22174609.093    -4320729.844 5  -3275926.08121
  19221821.1944  -22427446.05248 -17389224.33264
  21695816.9684    4322621.87445   3378152.21261
  21279301.6404   -7714832.33546  -5224505.52361
  19412699.413   -25691224.044 7 -19805604.65724
 91  4 22 23  5 44.9950000  0  5G15G 2G19G13G 6
  22169741.6244   -4346266.85345  -3295825.03061
  19219976.6874  -22437143.00848 -17396780.39364
  21701185.1324    4350817.28945   3400122.58061
  21266525.194    -7781967.026 6  -5276818.05421
  19406373.171   -25724471.013 7 -19831511.36323
 91  4 22 23  5 59.9950000  0  5G15G 2G19G13G 6
  22164915.0234   -4371679.23345  -3315626.81461
  19218142.2264  -22446784.77848 -17404293.44964
  21706562.5624    4379075.73745   3422142.05261
  21253765.3124   -7849029.33246  -5329074.15661
  19400059.319   -25757652.014 7 -19857366.66124
 91  4 22 23  6 14.9950000  0  5G15G 2G19G13G 6
  22160100.0694   -4396962.43645  -3335327.95761
  19216317.7264  -22456367.06248 -17411760.16064
  21711951.749     4407401.264 5   3444213.78921
  21241018.124    -7916014.682 6  -5381270.31421
  19393758.108   -25790762.512 7 -19883167.03124
 91  4 22 23  6 29.9950000  0  5G15G 2G19G13G 6
  22155319.476    -4422116.331 5  -3354928.35721
  19214505.0854  -22465890.11048 -17419180.70964
  21717351.5074    4435793.64145   3466337.64561
  21228286.257    -7982922.936 6  -5433406.37321
  19387469.413   -25823802.519 7 -19908912.46623
 91  4 22 23  6 44.9950000  0  5G15G 2G19G13G 6
  22150553.882    -4447159.081 6  -3374442.13521
  19212702.1874  -22475372.24548 -17426569.37564
  21722767.5234    4464234.32445   3488499.10061
  21215565.483    -8049771.889 6  -5485496.25521
  19381193.577   -25856789.946 7 -19934616.93124
 91  4 22 23  6 59.9940000  0  5G15G 2G19G13G 6
  22145813.1974   -4472085.46145  -3393865.23461
  19210905.1664  -22484809.56048 -17433923.11464
  21728185.9004    4492724.83545   3510699.42661
  21202858.354    -8116553.318 6  -5537533.49921
  19374926.494   -25889719.144 7 -19960276.02524
 91  4 22 23  7 14.9940000  0  5G15G 2G19G13G 6
  22141083.9714   -4496905.01245  -3413205.12061
  19209116.6434  -22494209.84448 -17441248.00264
  21733619.0334    4521262.25945   3532936.27161
  21190158.307    -8183282.272 6  -5589529.85121
  19368670.229   -25922600.630 7 -19985897.93423
 91  4 22 23  7 29.9940000  0  5G15G 2G19G13G 6
  22136379.3614   -4521604.75145  -3432451.63561
  19207338.0104  -22503561.13348 -17448534.71264
  21739059.627     4549855.983 5   3555217.01821
  21177472.4634   -8249942.68146  -5641472.81461
  19362425.361   -25955420.653 7 -20011471.96124
 91  4 22 23  7 44.9940000  0  5G15G 2G19G13G 6
  22131711.7914   -4546192.92546  -3451611.19161
  19205564.658   -22512872.006 8 -17455789.92324
  21744512.408     4578497.293 5   3577534.81921
  21164799.299    -8316542.678 6  -5693368.68921
  19356187.893   -25988187.573 7 -20037004.60323
 91  4 22 23  7 59.9940000  0  5G15G 2G19G13G 6
  22127052.705    -4570659.765 5  -3470676.20421
  19203803.0654  -22522132.94648 -17463006.22764
  21749973.6434    4607195.79845   3599897.19461
  21152137.4084   -8383072.31946  -5745209.73561
  19349966.236   -26020891.425 7 -20062488.10224
 91  4 22 23  8 14.9940000  0  5G15G 2G19G13G 6
  22122410.682    -4595001.931 5  -3489644.09821
  19202050.8544  -22531341.18548 -17470181.46764
  21755445.221     4635954.256 5   3622306.27021
  21139491.260    -8449528.439 6  -5796993.50621
  19343755.494   -26053529.115 7 -20087920.04223
 91  4 22 23  8 29.9940000  0  5G15G 2G19G13G 6
  22117813.0254   -4619208.00146  -3508505.93161
  19200309.8384  -22540485.59848 -17477306.97364
  21760929.2214    4664783.74245   3644770.73961
  21126861.190    -8515899.531 6  -5848711.01021
  19337557.979   -26086089.191 7 -20113291.50523
 91  4 22 23  8 44.9940000  0  5G15G 2G19G13G 6
  22113230.377    -4643286.035 5  -3527267.98221
  19198580.791   -22549574.367 8 -17484389.11824
  21766431.8224    4693676.12045   3667284.13661
  21114245.408    -8582193.423 6  -5900368.36321
  19331375.611   -26118579.707 7 -20138608.76724
 91  4 22 23  8 59.9940000  0  5G15G 2G19G13G 6
  22108669.182    -4667253.812 5  -3545944.11021
  19196858.096   -22558625.874 8 -17491442.22824
  21771932.1584    4722613.14445   3689832.43061
  21101641.979    -8648427.568 6  -5951979.16021
  19325203.190   -26151018.429 7 -20163885.67123
 91  4 22 23  9 14.9940000  0  5G15G 2G19G13G 6
  22104134.4084   -4691083.57646  -3564512.72661
  19195148.658   -22567612.175 8 -17498444.52524
  21777456.4864    4751622.39745   3712436.90861
  21089056.729    -8714574.196 6  -6003521.75921
  19319045.869   -26183377.395 7 -20189100.42624
 91  4 22 23  9 29.9940000  0  5G15G 2G19G13G 6
  22099625.416    -4714790.557 6  -3582985.66721
  19193447.6354  -22576548.74948 -17505408.07864
  21782988.611     4780688.225 5   3735085.52221
  21076482.1434   -8780648.44746  -6055007.95361
  19312900.307   -26215671.761 7 -20214264.84324
 91  4 22 23  9 44.9940000  0  5G15G 2G19G13G 6
  22095129.8074   -4738375.37545  -3601363.41661
  19191757.244   -22585436.444 8 -17512333.54324
  21788526.4714    4809809.93645   3757777.67761
  21063920.369    -8846650.625 6  -6106438.00121
  19306766.244   -26247901.977 7 -20239379.27323
 91  4 22 23  9 59.9940000  0  5G15G 2G19G13G 6
  22090669.5254   -4761820.89945  -3619632.61161
  19190078.627   -22594258.588 8 -17519207.92624
  21794087.361     4839003.875 5   3780526.08321
  21051378.393    -8912563.723 6  -6157798.64621
  19300647.932   -26280051.226 7 -20264430.61423
 91  4 22 23 10 14.9940000  0  5G15G 2G19G13G 6
  22086236.9004   -4785150.24646  -3637811.27261
  19188407.6114  -22603038.53448 -17526049.43464
  21799647.6904    4868246.99745   3803312.83961
  21038848.408    -8978410.373 6  -6209107.49321
  19294540.705   -26312142.430 7 -20289436.72324
 91  4 22 23 10 29.9940000  0  5G15G 2G19G13G 6
  22081816.5024   -4808352.18945  -3655890.67861
  19186745.7754  -22611765.28548 -17532849.48964
  21805224.5494    4897550.08945   3826146.33861
  21026333.8934   -9044179.44846  -6260355.91661
  19288448.9794  -26344164.34747 -20314388.83964
 91  4 22 23 10 44.9940000  0  5G15G 2G19G13G 6
  22077428.4404   -4831432.13845  -3673875.00361
  19185094.2294  -22620444.63148 -17539612.60464
  21810813.5804    4926907.31445   3849021.96761
  21013831.2604   -9109876.26046  -6311548.00961
  19282367.018   -26376122.426 7 -20339291.21424
 91  4 22 23 10 59.9940000  0  5G15G 2G19G13G 6
  22073062.447    -4854389.573 6  -3691763.87821
  19183452.486   -22629076.155 8 -17546338.45524
  21816403.1974    4956319.09645   3871940.15261
  21001344.275    -9175499.899 6  -6362683.10321
  19276299.0024  -26408015.91247 -20364143.25264
 91  4 22 23 11 14.9940000  0  5G15G 2G19G13G 6
  22068720.5804   -4877209.25646  -3709545.42161
  19181821.3154  -22637645.01548 -17553015.48164
  21822019.2294    4985800.33645   3894912.44261
  20988873.6584   -9241035.18546  -6413749.34061
  19270244.7294  -26439829.59547 -20388933.10464
 91  4 22 23 11 29.9940000  0  5G15G 2G19G13G 6
  22064396.729    -4899905.615 5  -3727230.84821
  19180200.6904  -22646165.72448 -17559654.98464
  21827641.4084    5015336.13845   3917927.25561
  20976414.971    -9306496.472 6  -6464757.93521
  19264202.4714  -26471577.82847 -20413671.95664
 91  4 22 23 11 44.9940000  0  5G15G 2G19G13G 6
  22060097.2294   -4922465.40445  -3744809.87161
  19178589.8774  -22654625.26448 -17566246.82764
  21833270.565     5044939.634 5   3940994.81321
  20963973.650    -9371869.983 6  -6515698.11421
  19258176.0184  -26503247.38947 -20438349.50764
 91  4 22 23 11 59.9940000  0  5G15G 2G19G13G 6
  22055832.018    -4944919.523 5  -3762306.54921
  19176986.3464  -22663054.48648 -17572815.04464
  21838913.4164    5074579.83245   3964090.96661
  20951545.3854   -9437186.53846  -6566593.92361
  19252158.8074  -26534868.82247 -20462989.55364
 91  4 22 23 12 14.9940000  0  5G15G 2G19G13G 6
  22051582.2684   -4967248.17546  -3779705.46161
  19175391.0184  -22671434.35848 -17579344.80664
  21844563.494     5104275.844 5   3987230.61621
  20939130.838    -9502426.540 6  -6617430.09021
  19246153.4244  -26566422.53847 -20487576.83264
 91  4 22 23 12 29.9940000  0  5G15G 2G19G13G 6
  22047362.0964   -4989442.41546  -3796999.64961
  19173808.2754  -22679755.75948 -17585829.01064
  21850219.8614    5134036.67545   4010420.77361
  20926732.5184   -9567580.30946  -6668199.06161
  19240163.6974  -26597899.21247 -20512104.08064
 91  4 22 23 12 44.9940000  0  5G15G 2G19G13G 6
  22043160.2214   -5011510.46946  -3814195.50361
  19172234.6354  -22688027.42948 -17592274.46064
  21855900.9714    5163853.47845   4033654.55461
  20914346.8224   -9632656.12346  -6718907.29061
  19234186.9864  -26629307.30047 -20536577.88064
 91  4 22 23 12 59.9940000  0  5G15G 2G19G13G 6
  22038983.5184   -5033453.91046  -3831294.25361
  19170669.3774  -22696251.31748 -17598682.67964
  21861589.3224    5193724.27045   4056930.39361
  20901976.8224   -9697655.61746  -6769556.06061
  19228223.0804  -26660648.37147 -20560999.46664
 91  4 22 23 13 14.9940000  0  5G15G 2G19G13G 6
  22034836.869    -5055269.626 6  -3848293.46821
  19169114.2604  -22704424.32748 -17605051.25264
  21867280.596     5223652.044 5   4080250.63321
  20889624.4864   -9762575.56646  -6820142.84761
  19222272.7364  -26691919.23447 -20585366.34164
 91  4 22 23 13 29.9940000  0  5G15G 2G19G13G 6
  22030701.635    -5076961.680 6  -3865196.34921
  19167567.2364  -22712550.77848 -17611383.54664
  21872985.3304    5253632.39145   4103611.82861
  20877284.6584   -9827419.65646  -6870670.51361
  19216334.7754  -26723123.74747 -20609681.52063
 91  4 22 23 13 44.9940000  0  5G15G 2G19G13G 6
  22026598.9864   -5098529.16346  -3882002.15061
  19166030.2364  -22720629.94348 -17617678.99064
  21878698.3694    5283666.02345   4127014.55061
  20864958.1904   -9892186.76146  -6921138.21561
  19210408.8304  -26754260.85147 -20633944.16564
 91  4 22 23 13 59.9940000  0  5G15G 2G19G13G 6
  22022526.018    -5119964.511 6  -3898704.98921
  19164502.7444  -22728654.61848 -17623931.98164
  21884428.346     5313760.070 5   4150464.33121
  20852651.158    -9956869.351 6  -6971540.05021
  19204497.9084  -26785323.17247 -20658148.54364
 91  4 22 23 14 14.9940000  0  5G15G 2G19G13G 6
  22018467.854    -5141272.714 6  -3915308.75921
  19162985.3854  -22736630.01248 -17630146.56464
  21890166.572     5343909.289 5   4173957.13421
  20840358.8774  -10021472.16846  -7021879.72961
  19198601.3614  -26816315.52547 -20682298.40064
 91  4 22 23 14 29.9940000  0  5G15G 2G19G13G 6
  22014439.799    -5162457.989 6  -3931816.74921
  19161476.3614  -22744560.47948 -17636326.14664
  21895914.1274    5374109.12645   4197489.35061
  20828079.2754  -10085999.52046  -7072160.60161
  19192716.8854  -26847242.15947 -20706397.05064
 91  4 22 23 14 44.9940000  0  5G15G 2G19G13G 6
  22010430.9404   -5183503.21546  -3948215.59561
  19159978.7364  -22752429.05148 -17642457.49564
  21901668.4794    5404376.51744   4221074.22061
  20815817.7134  -10150433.91146  -7122369.03761
  19186845.815   -26878085.641 7 -20730430.91324
 91  4 22 23 14 59.9940000  0  5G15G 2G19G13G 6
  22006448.9794   -5204426.56146  -3964519.46861
  19158489.3934  -22760254.24448 -17648555.03764
  21907441.0964    5434693.15645   4244697.46561
  20803569.4474  -10214793.36646  -7172519.10161
  19180990.1274  -26908864.19147 -20754414.16564
 91  4 22 23 15 14.9940000  0  5G15G 2G19G13G 6
  22002490.861    -5225221.665 5  -3980723.41921
  19157009.4004  -22768029.87648 -17654613.96764
  21913226.4554    5465064.89845   4268363.67561
  20791338.104   -10279071.417 6  -7222605.71121
  19175146.190   -26939571.364 7 -20778341.80724
 91  4 22 23 15 29.9940000  0  5G15G 2G19G13G 6
  21998560.432    -5245887.447 5  -3996826.60821
  19155539.8774  -22775755.08648 -17660633.60164
  21919009.432     5495492.542 5   4292073.38221
  20779122.479   -10343266.668 6  -7272627.82621
  19169315.604   -26970206.107 7 -20802213.01124
 91  4 22 23 15 44.9940000  0  5G15G 2G19G13G 6
  21994654.275    -5266420.436 6  -4012826.28721
  19154081.3464  -22783426.88948 -17666611.62364
  21924813.674     5525978.984 5   4315828.97021
  20766921.330   -10407375.685 6  -7322582.72121
  19163500.197   -27000765.035 7 -20826025.13724
 91  4 22 23 15 59.9940000  0  5G15G 2G19G13G 6
  21990767.150    -5286829.321 6  -4028729.27621
  19152629.9794  -22791053.87448 -17672554.72364
  21930621.783     5556515.635 4   4339623.66721
  20754736.744   -10471406.732 6  -7372476.87621
  19157698.072   -27031256.420 7 -20849784.63224
 91  4 22 23 16 14.9940000  0  5G15G 2G19G13G 6
  21986913.299    -5307100.038 6  -4044524.61921
  19151188.3934  -22798622.25148 -17678452.15464
  21936448.4404    5587116.20445   4363468.13061
  20742569.979   -10535345.732 6  -7422299.30021
  19151911.971   -27061666.065 7 -20873480.43424
 91  4 22 23 16 29.9940000  0  5G15G 2G19G13G 6
  21983076.674    -5327225.655 5  -4060206.86421
  19149761.0494  -22806125.28548 -17684298.66664
  21942283.307     5617787.343 4   4387367.63521
  20730421.6974  -10599185.62046  -7472044.48961
  19146142.6114  -27091987.08747 -20897107.17864
 91  4 22 23 16 44.9940000  0  5G15G 2G19G13G 6
  21979272.893    -5347231.771 6  -4075795.97421
  19148339.7054  -22813589.01948 -17690114.55464
  21948129.7524    5648502.93745   4411301.74661
  20718286.393   -10662952.137 6  -7521732.52621
  19140384.682   -27122245.143 7 -20920684.86124
 91  4 22 23 16 59.9940000  0  5G15G 2G19G13G 6
  21975489.127    -5367104.577 5  -4091281.26421
  19146931.1274  -22820999.53348 -17695888.97164
  21953982.0414    5679276.78945   4435281.23861
  20706170.135   -10726630.679 6  -7571352.00021
  19134640.299   -27152426.098 7 -20944202.46024
 91  4 22 23 17 14.9940000  0  5G15G 2G19G13G 6
  21971731.1114   -5386835.29545  -4106655.81561
  19145532.0024  -22828348.43748 -17701615.38464
  21959853.283     5710117.345 5   4459312.73621
  20694069.565   -10790212.692 6  -7620896.25421
  19128913.580   -27182521.130 7 -20967653.11224
 91  4 22 23 17 29.9940000  0  5G15G 2G19G13G 6
  21967997.315    -5406452.239 5  -4121941.71021
  19144140.3154  -22835664.20248 -17707315.97064
  21965731.0574    5740996.15444   4483374.02861
  20681983.674   -10853726.074 6  -7670387.03321
  19123198.752   -27212558.474 7 -20991058.81124
 91  4 22 23 17 44.9940000  0  5G15G 2G19G13G 6
  21964298.229    -5425943.073 5  -4137129.32821
  19142755.7444  -22842934.62948 -17712981.23264
  21971616.533     5771925.173 5   4507474.41121
  20669913.205   -10917158.391 6  -7719814.64221
  19117495.377   -27242525.695 7 -21014409.87023
 91  4 22 23 17 59.9940000  0  5G15G 2G19G13G 6
  21960614.1504   -5445313.12545  -4152222.81261
  19141380.1904  -22850165.42248 -17718615.60564
  21977511.7754    5802898.59945   4531609.45961
  20657856.8074  -10980514.88646  -7769183.16661
  19111805.119   -27272428.266 7 -21037710.55124
 91  4 22 23 18 14.9940000  0  5G15G 2G19G13G 6
  21956952.9164   -5464549.63646  -4167212.26061
  19140013.5574  -22857343.83248 -17724209.16664
  21983412.627     5833929.124 4   4555788.96221
  20645815.815   -11043782.513 6  -7818482.45921
  19106129.502   -27302253.063 7 -21060950.63023
 91  4 22 23 18 29.9940000  0  5G15G 2G19G13G 6
  21953310.322    -5483658.200 6  -4182102.00121
  19138656.9324  -22864475.62648 -17729766.40264
  21989328.3074    5865010.85345   4580008.36061
  20633792.533   -11106966.766 6  -7867716.77921
  19100469.440   -27332005.558 7 -21084134.37024
 91  4 22 23 18 44.9940000  0  5G15G 2G19G13G 6
  21949708.2684   -5502623.93946  -4196880.44061
  19137312.0884  -22871546.37648 -17735276.06664
  21995255.2444    5896158.32144   4604278.99561
  20621788.494   -11170052.492 6  -7916874.31321
  19094823.338   -27361670.811 7 -21107250.12823
 91  4 22 23 18 59.9940000  0  5G15G 2G19G13G 6
  21946116.8154   -5521457.96246  -4211556.25061
  19135975.6194  -22878567.25748 -17740746.86964
  22001198.244     5927360.034 5   4628591.88221
  20609801.080   -11233050.695 6  -7965963.66821
  19089191.322   -27391259.879 7 -21130306.52524
 91  4 22 23 19 14.9940000  0  5G15G 2G19G13G 6
  21942561.7604   -5540158.74546  -4226128.25361
  19134648.9794  -22885536.79948 -17746177.68764
  22007149.283     5958617.122 5   4652947.94521
  20597829.2604  -11295959.78446  -8014983.58361
  19083576.955   -27420771.215 7 -21153302.35223
 91  4 22 23 19 29.9940000  0  5G15G 2G19G13G 6
  21939023.3224   -5558740.78845  -4240607.71261
  19133329.5024  -22892470.00048 -17751580.17264
  22013097.5884    5989914.97644   4677335.73961
  20585872.236   -11358793.971 6  -8063945.12421
  19077971.940   -27450219.180 7 -21176248.79524
 91  4 22 23 19 44.9940000  0  5G15G 2G19G13G 6
  21935506.955    -5577196.785 5  -4254988.94021
  19132017.9864  -22899359.53248 -17756948.63264
  22019061.268     6021260.795 5   4701760.90821
  20573931.3694  -11421545.82546  -8112842.51061
  19072381.697   -27479596.251 7 -21199139.99824
 91  4 22 23 19 59.9940000  0  5G15G 2G19G13G 6
  21932033.5184   -5595514.69646  -4269262.57761
  19130717.6664  -22906193.59348 -17762273.86964
  22025038.7834    6052666.24944   4726232.57961
  20562005.7294  -11484202.90246  -8161666.05361
  19066808.682   -27508890.467 7 -21221966.63924
 91  4 22 23 20 14.9940000  0  5G15G 2G19G13G 6
  21928562.2994   -5613710.31245  -4283440.93761
  19129425.4164  -22912988.34048 -17767568.47064
  22031024.080     6084115.062 5   4750738.00821
  20550097.5804  -11546781.04146  -8210428.08361
  19061246.252   -27538117.542 7 -21244740.96024
 91  4 22 23 20 29.9940000  0  5G15G 2G19G13G 6
  21925126.6194   -5631769.38246  -4297512.90361
  19128141.8074  -22919729.66148 -17772821.44364
  22037020.346     6115621.247 5   4775288.14521
  20538206.9554  -11609265.86946  -8259117.40561
  19055700.736   -27567263.027 7 -21267451.71023
 91  4 22 23 20 44.9940000  0  5G15G 2G19G13G 6
  21921721.486    -5649689.752 6  -4311476.75921
  19126869.9004  -22926415.65248 -17778031.30164
  22043026.7684    6147186.70444   4799884.45161
  20526336.6044  -11671655.11446  -8307732.23961
  19050168.932   -27596324.758 7 -21290097.19224
 91  4 22 23 20 59.9940000  0  5G15G 2G19G13G 6
  21918329.416    -5667472.736 5  -4325333.58721
  19125607.7294  -22933047.59548 -17783199.04464
  22049043.6434    6178809.86445   4824525.75561
  20514481.721   -11733949.949 6  -8356273.52121
  19044656.502   -27625303.846 7 -21312678.28123
 91  4 22 23 21 14.9940000  0  5G15G 2G19G13G 6
  21914974.721    -5685128.177 5  -4339091.02321
  19124354.2214  -22939635.71848 -17788332.64464
  22055068.416     6210480.604 4   4849204.11321
  20502641.8544  -11796160.08346  -8404748.80061
  19039154.635   -27654210.160 7 -21335202.66324
 91  4 22 23 21 29.9940000  0  5G15G 2G19G13G 6
  21911628.3384   -5702660.99545  -4352752.90561
  19123107.1194  -22946184.62048 -17793435.68264
  22061109.1114    6242194.26545   4873915.89361
  20490818.260   -11858289.828 6  -8453161.43821
  19033667.705   -27683048.042 7 -21357673.71823
 91  4 22 23 21 44.9940000  0  5G15G 2G19G13G 6
  21908327.1354   -5720050.15846  -4366302.83961
  19121873.0574  -22952673.72148 -17798492.11764
  22067150.541     6273971.253 4   4898677.09121
  20479013.494   -11920318.113 6  -8501495.01421
  19028196.072   -27711796.555 7 -21380075.13624
 91  4 22 23 21 59.9940000  0  5G15G 2G19G13G 6
  21905044.5104   -5737311.86245  -4379753.45861
  19120646.5724  -22959119.76248 -17803515.00164
  22073216.260     6305794.752 4   4923474.47621
  20467227.3384  -11982261.23646  -8549762.22261
  19022738.518   -27740471.981 7 -21402419.60324
 91  4 22 23 22 14.9940000  0  5G15G 2G19G13G 6
  21901782.3544   -5754449.06746  -4393107.06361
  19119427.1354  -22965525.56548 -17808506.53164
  22079272.057     6337661.939 4   4948305.88021
  20455458.752   -12044121.565 6  -8597964.91921
  19017295.682   -27769076.968 7 -21424709.18523
 91  4 22 23 22 29.9940000  0  5G15G 2G19G13G 6
  21898554.143    -5771442.447 5  -4406348.60321
  19118219.9944  -22971872.05548 -17813451.84064
  22085351.260     6369591.727 5   4973186.10021
  20443705.6904  -12105879.85046  -8646088.10861
  19011870.018   -27797592.272 7 -21446928.88124
 91  4 22 23 22 44.9940000  0  5G15G 2G19G13G 6
  21895334.565    -5788296.354 5  -4419481.46321
  19117022.6824  -22978163.62248 -17818354.35664
  22091436.2994    6401579.54644   4998111.56361
  20431971.252   -12167540.112 6  -8694134.90521
  19006459.111   -27826021.881 7 -21469081.80123
 91  4 22 23 22 59.9940000  0  5G15G 2G19G13G 6
  21892164.236    -5805013.536 5  -4432507.79021
  19115836.3464  -22984403.16048 -17823216.32764
  22097531.900     6433622.463 4   5023079.89121
  20420254.049   -12229104.903 6  -8742107.32021
  19001065.354   -27854368.463 7 -21491170.02624
 91  4 22 23 23 14.9940000  0  5G15G 2G19G13G 6
  21888994.3614   -5821599.51545  -4445431.88761
  19114655.7834  -22990596.46048 -17828042.27164
  22103645.1274    6465714.47445   5048086.47561
  20408556.2214  -12290579.71946  -8790009.62361
  18995684.549   -27882637.608 7 -21513197.91023
 91  4 22 23 23 29.9940000  0  5G15G 2G19G13G 6
  21885876.010    -5838051.979 6  -4458251.92921
  19113486.1904  -22996741.33348 -17832830.47864
  22109756.7604    6497857.90244   5073133.22761
  20396875.2604  -12351961.67746  -8837839.56861
  18990321.971   -27910826.593 7 -21535163.33123
 91  4 22 23 23 44.9940000  0  5G15G 2G19G13G 6
  21882757.221    -5854387.604 5  -4470980.94221
  19112324.3614  -23002854.52848 -17837594.00064
  22115886.2134    6530035.98344   5098206.86561
  20385211.1664  -12413267.32046  -8885610.04861
  18984969.041   -27938952.015 7 -21557079.22623
 91  4 22 23 23 59.9940000  0  5G15G 2G19G13G 6
  21879674.213    -5870599.275 5  -4483613.36021
  19111168.9794  -23008929.05648 -17842327.39664
  22122018.166     6562255.241 5   5123312.61321
  20373560.002   -12474489.481 6  -8933315.46921
  18979630.471   -27967006.732 7 -21578940.02123
 91  4 22 23 24 14.9940000  0  5G15G 2G19G13G 6
  21876619.463    -5886651.427 5  -4496121.49521
  19110026.4944  -23014929.67648 -17847003.19364
  22128158.2604    6594551.03243   5148478.06161
  20361932.5804  -12535592.52946  -8980928.08961
  18974311.674   -27994955.116 7 -21600717.96324
 91  4 22 23 24 29.9940000  0  5G15G 2G19G13G 6
  21873599.8934   -5902582.21246  -4508535.04961
  19108890.9244  -23020894.66848 -17851651.23564
  22134308.963     6626884.986 4   5173673.18521
  20350319.0654  -12596614.19046  -9028477.28661
  18969007.846   -28022835.049 7 -21622442.56424
 91  4 22 23 24 44.9940000  0  5G15G 2G19G13G 6
  21870584.572    -5918367.665 5  -4520835.34621
  19107767.9084  -23026800.10348 -17856252.86664
  22140477.8154    6659280.81944   5198916.54561
  20338728.6434  -12657530.24746  -9075944.18461
  18963719.440   -28050622.399 7 -21644095.02024
 91  4 22 23 24 59.9940000  0  5G15G 2G19G13G 6
  21867606.5414   -5934018.80645  -4533030.99761
  19106653.8694  -23032657.37548 -17860816.96564
  22146649.7294    6691727.13943   5224199.25161
  20327154.8854  -12718351.93446  -9123337.57461
  18958446.486   -28078328.226 7 -21665683.95423
 91  4 22 23 25 14.9940000  0  5G15G 2G19G13G 6
  21864655.283    -5949541.008 6  -4545126.17721
  19105546.6434  -23038471.89348 -17865347.75464
  22152836.041     6724218.439 4   5249516.99421
  20315595.900   -12779084.196 6  -9170661.26621
  18953189.643   -28105957.574 7 -21687213.29524
 91  4 22 23 25 29.9940000  0  5G15G 2G19G13G 6
  21861723.7994   -5964942.64346  -4557127.40561
  19104445.6504  -23044252.26348 -17869851.93164
  22159023.7294    6756745.76643   5274862.84361
  20304053.9554  -12839735.13646  -9217921.59061
  18947944.658   -28133518.954 7 -21708689.67224
 91  4 22 23 25 44.9940000  0  5G15G 2G19G13G 6
  21858817.510    -5980211.285 6  -4569025.00021
  19103355.7834  -23049986.42448 -17874320.10064
  22165219.2444    6789321.45843   5300246.32261
  20292530.7054  -12900292.50246  -9265109.00761
  18942715.658   -28160999.779 7 -21730103.28124
 91  4 22 23 25 59.9940000  0  5G15G 2G19G13G 6
  21855935.0024   -5995349.65146  -4580821.08561
  19102272.0104  -23055677.32248 -17878754.56064
  22171431.7914    6821942.44644   5325665.15261
  20281025.729   -12960758.782 6  -9312225.44521
  18937501.252   -28188402.767 7 -21751456.23524
 91  4 22 23 26 14.9940000  0  5G15G 2G19G13G 6
  21853087.190    -6010334.412 6  -4592497.47821
  19101201.5804  -23061301.43348 -17883136.97964
  22177654.268     6854632.009 4   5351137.39821
  20269541.088   -13021110.114 6  -9359252.32021
  18932304.440   -28215704.221 7 -21772730.07724
 91  4 22 23 26 29.9940000  0  5G15G 2G19G13G 6
  21850262.3934   -6025180.34146  -4604065.68361
  19100141.1824  -23066873.72748 -17887479.01964
  22183875.7914    6887375.10444   5376651.35461
  20258074.447   -13081361.106 6  -9406201.00221
  18927126.338   -28242918.648 7 -21793936.10023
 91  4 22 23 26 44.9940000  0  5G15G 2G19G13G 6
  21847464.1664   -6039887.31545  -4615525.61961
  19099091.1824  -23072393.94548 -17891780.48464
  22190124.8154    6920171.80344   5402207.09561
  20246627.541   -13141511.514 6  -9453071.31121
  18921964.408   -28270045.681 7 -21815074.02524
 91  4 22 23 26 59.9940000  0  5G15G 2G19G13G 6
  21844691.557    -6054448.597 6  -4626872.02221
  19098051.6824  -23077855.79748 -17896036.46764
  22196377.0334    6953028.40344   5427809.46761
  20235203.205   -13201554.687 6  -9499858.06021
  18916820.471   -28297078.734 7 -21836138.72724
 91  4 22 23 27 14.9940000  0  5G15G 2G19G13G 6
  21841931.5654   -6068901.47645  -4638133.95461
  19097016.3694  -23083296.72248 -17900276.14464
  22202633.307     6985907.316 4   5453429.26321
  20223790.432   -13261527.326 6  -9546589.84321
  18911686.275   -28324054.995 7 -21857159.16523
 91  4 22 23 27 29.9940000  0  5G15G 2G19G13G 6
  21839220.752    -6083219.494 5  -4649290.79321
  19095988.5414  -23088690.36948 -17904478.98164
  22208895.471     7018834.856 4   5479086.96521
  20212395.760   -13321402.836 6  -9593245.94321
  18906569.541   -28350947.726 7 -21878114.52023
 91  4 22 23 27 44.9940000  0  5G15G 2G19G13G 6
  21836520.5804   -6097392.81845  -4660334.89061
  19094973.2524  -23094026.69748 -17908637.15264
  22215178.260     7051820.854 4   5504790.19321
  20201022.002   -13381170.988 6  -9639818.39321
  18901470.744   -28377746.661 7 -21898996.78423
 91  4 22 23 27 59.9940000  0  5G15G 2G19G13G 6
  21833854.025    -6111423.942 6  -4671268.17121
  19093969.5654  -23099308.83048 -17912753.09264
  22221462.9474    7084862.10444   5530536.45561
  20189669.338   -13440834.433 6  -9686309.25021
  18896387.479   -28404454.421 7 -21919808.00823
 91  4 22 23 28 14.9940000  0  5G15G 2G19G13G 6
  21831206.5024   -6125321.19745  -4682097.17861
  19092972.7834  -23104544.89448 -17916833.13664
  22227759.252     7117950.420 4   5556319.41321
  20178333.596   -13500401.138 6  -9732724.71821
  18891319.838   -28431079.106 7 -21940554.49623
 91  4 22 23 28 29.9940000  0  5G15G 2G19G13G 6
  21828586.072    -6139078.697 5  -4692817.22921
  19091986.0654  -23109729.40548 -17920873.01064
  22234063.393     7151091.093 4   5582143.19521
  20167016.393   -13559865.278 6  -9779060.28121
  18886270.940   -28457614.850 7 -21961231.68123
 91  4 22 23 28 44.9940000  0  5G15G 2G19G13G 6
  21825991.8854   -6152701.03745  -4703432.01261
  19091009.2134  -23114867.10548 -17924876.40764
  22240377.729     7184279.161 3   5608003.87021
  20155719.799   -13619231.293 6  -9825319.37521
  18881237.205   -28484066.244 7 -21981843.14023
 91  4 22 23 28 59.9940000  0  5G15G 2G19G13G 6
  21823433.6114   -6166181.93645  -4713936.54061
  19090041.9794  -23119951.37648 -17928838.17164
  22246714.9864    7217521.36044   5633906.70161
  20144444.197   -13678492.115 6  -9871496.49821
  18876220.463   -28510426.320 7 -22002383.43723
 91  4 22 23 29 14.9940000  0  5G15G 2G19G13G 6
  21820900.7604   -6179535.36146  -4724341.75561
  19089081.6434  -23124996.44648 -17932769.38964
  22253044.7754    7250803.09144   5659840.40361
  20133183.213   -13737661.630 6  -9917602.47221
  18871218.916   -28536709.085 7 -22022863.49923
 91  4 22 23 29 29.9940000  0  5G15G 2G19G13G 6
  21818367.104    -6192763.494 5  -4734649.35921
  19088128.1974  -23130004.88048 -17936672.06064
  22259382.7294    7284121.96043   5685803.01061
  20121940.885   -13796741.918 6  -9963638.93021
  18866232.322   -28562916.667 7 -22043284.97224
 91  4 22 23 29 44.9940000  0  5G15G 2G19G13G 6
  21815875.807    -6205863.143 5  -4744856.82621
  19087182.4554  -23134973.70348 -17940543.87364
  22265733.1974    7317480.67244   5711796.63661
  20110715.104   -13855729.863 6 -10009603.42221
  18861261.260   -28589045.787 7 -22063645.30923
 91  4 22 23 29 59.9940000  0  5G15G 2G19G13G 6
  21813409.1744   -6218832.11746  -4754962.48561
  19086245.2604  -23139900.58048 -17944382.99764
  22272092.0024    7350881.51644   5737823.12261
  20099509.049   -13914622.788 6 -10055493.87721
  18856302.440   -28615093.879 7 -22083942.50723
 91  4 22 23 30 14.9940000  0  5G15G 2G19G13G 6
  21810968.924    -6231675.991 6  -4764970.66221
  19085314.1974  -23144790.98048 -17948193.68964
  22278449.080     7384318.948 3   5763878.13121
  20088318.900   -13973425.823 6 -10101314.28221
  18851360.604   -28641066.088 7 -22104180.57823
 91  4 22 23 30 29.9940000  0  5G15G 2G19G13G 6
  21808552.354    -6244392.556 6  -4774879.64321
  19084390.6044  -23149643.31348 -17951974.73064
  22284818.807     7417794.400 4   5789962.71521
  20077146.330   -14032136.836 6 -10147062.99121
  18846434.408   -28666960.581 7 -22124358.08723
 91  4 22 23 30 44.9940000  0  5G15G 2G19G13G 6
  21806152.6664   -6256965.03045  -4784676.31761
  19083477.9794  -23154440.71848 -17955712.96464
  22291198.2684    7451324.61544   5816090.02261
  20065996.697   -14090738.721 6 -10192726.65421
  18841523.275   -28692760.301 7 -22144461.75023
 91  4 22 23 30 59.9940000  0  5G15G 2G19G13G 6
  21803796.9324   -6269392.80646  -4794360.25661
  19082575.8614  -23159182.72248 -17959408.03064
  22297593.057     7484909.805 4   5842260.14221
  20054862.791   -14149230.920 6 -10238304.86021
  18836633.924   -28718464.441 7 -22164490.93223
 91  4 22 23 31 14.9940000  0  5G15G 2G19G13G 6
  21801445.252    -6281685.876 5  -4803939.24321
  19081682.3464  -23163879.46248 -17963067.82364
  22303996.6744    7518539.80944   5868465.18461
  20043751.697   -14207623.086 6 -10283805.11321
  18831757.025   -28744082.883 7 -22184453.33623
 91  4 22 23 31 29.9940000  0  5G15G 2G19G13G 6
  21799143.3614   -6293843.91846  -4813412.97761
  19080796.1584  -23168530.64248 -17966692.11964
  22310394.143     7552214.759 3   5894705.23821
  20032659.611   -14265914.848 6 -10329227.13121
  18826899.221   -28769614.983 7 -22204348.46623
 91  4 22 23 31 44.9940000  0  5G15G 2G19G13G 6
  21796849.1194   -6305865.94845  -4822780.77761
  19079920.7524  -23173135.29848 -17970280.15964
  22316814.9244    7585935.58244   5920981.02861
  20021586.111   -14324104.788 6 -10374569.80921
  18822057.174   -28795059.568 7 -22224175.40023
 91  4 22 23 31 59.9940000  0  5G15G 2G19G13G 6
  21794576.471    -6317757.421 5  -4832046.79221
  19079052.2684  -23177699.13648 -17973836.39464
  22323236.7914    7619696.55043   5947288.12861
  20010531.307   -14382198.051 6 -10419837.14821
  18817231.565   -28820421.972 7 -22243938.29623
 91  4 22 23 32 14.9940000  0  5G15G 2G19G13G 6
  21792349.3544   -6329509.06045  -4841203.87461
  19078194.6504  -23182212.97048 -17977353.66764
  22329674.736     7653506.629 3   5973633.48321
  19999496.963   -14440185.104 6 -10465021.73521
  18812422.190   -28845692.623 7 -22263629.69723
 91  4 22 23 32 29.9940000  0  5G15G 2G19G13G 6
  21790137.1354   -6341111.93645  -4850245.06161
  19077345.2834  -23186667.92748 -17980825.05764
  22336116.963     7687374.447 3   6000023.80621
  19988482.533   -14498057.153 6 -10510116.70321
  18807632.486   -28870862.672 7 -22283242.70523
 91  4 22 23 32 44.9940000  0  5G15G 2G19G13G 6
  21787960.666    -6352581.956 6  -4859182.70821
  19076505.9474  -23191080.21248 -17984263.20164
  22342569.3224    7721283.81143   6026446.54361
  19977489.908   -14555829.853 6 -10555134.25821
  18802858.619   -28895947.887 7 -22302789.61023
 91  4 22 23 32 59.9940000  0  5G15G 2G19G13G 6
  21785794.846    -6363921.543 5  -4868018.71621
  19075674.5654  -23195452.01848 -17987669.79864
  22349031.5654    7755232.37743   6052899.80161
  19966515.768   -14613504.902 6 -10600075.72421
  18798101.627   -28920950.142 7 -22322271.87023
 91  4 22 23 33 14.9940000  0  5G15G 2G19G13G 6
  21783667.7364   -6375110.46746  -4876737.33261
  19074854.1044  -23199763.27948 -17991029.22164
  22355502.010     7789239.936 3   6079399.02521
  19955561.096   -14671062.209 6 -10644925.43621
  18793362.494   -28945849.237 7 -22341673.74323
 91  4 22 23 33 29.9940000  0  5G15G 2G19G13G 6
  21781565.518    -6386157.649 5  -4885345.49821
  19074042.9794  -23204023.23148 -17994348.66464
  22361985.1504    7823297.17843   6105936.98261
  19944629.025   -14728510.666 6 -10689690.33321
  18788643.385   -28970654.037 7 -22361002.14223
 91  4 22 23 33 44.9940000  0  5G15G 2G19G13G 6
  21779494.940    -6397087.335 6  -4893862.11221
  19073236.9474  -23208256.17148 -17997647.05964
  22368475.861     7857379.908 3   6132494.78121
  19933715.3074  -14785874.10846 -10734388.98961
  18783935.580   -28995388.531 7 -22380275.75623
 91  4 22 23 33 59.9940000  0  5G15G 2G19G13G 6
  21777436.8774   -6407887.56746  -4902277.86161
  19072439.4554  -23212449.91348 -18000914.90764
  22374966.3934    7891500.00043   6159081.68061
  19922816.205   -14843140.368 6 -10779011.91921
  18779244.408   -29020040.355 7 -22399484.95423
 91  4 22 23 34 14.9940000  0  5G15G 2G19G13G 6
  21775405.479    -6418557.986 6  -4910592.45421
  19071649.3384  -23216604.34748 -18004152.12964
  22381464.119     7925657.609 3   6185697.81521
  19911937.955   -14900308.676 6 -10823558.51621
  18774569.127   -29044609.084 7 -22418629.40124
 91  4 22 23 34 29.9940000  0  5G15G 2G19G13G 6
  21773391.2294   -6429107.69645  -4918812.96861
  19070863.7994  -23220728.73348 -18007365.93464
  22387968.5184    7959843.15343   6212335.73661
  19901074.393   -14957388.149 6 -10868035.89621
  18769908.221   -29069103.670 7 -22437716.07324
 91  4 22 23 34 44.9940000  0  5G15G 2G19G13G 6
  21771406.369    -6439526.597 5  -4926931.59921
  19070087.2604  -23224813.20348 -18010548.63464
  22394482.0024    7994066.45843   6239003.09561
  19890231.5414  -15014368.58146 -10912436.11961
  18765264.104   -29093514.059 7 -22456737.14123
 91  4 22 23 34 59.9940000  0  5G15G 2G19G13G 6
  21769456.190    -6449806.078 6  -4934941.53921
  19069317.9324  -23228849.07348 -18013693.46764
  22401005.744     8028335.895 3   6265706.36221
  19879410.2294  -15071241.04346 -10956752.19461
  18760636.182   -29117831.324 7 -22475685.63823
 91  4 22 23 35 14.9940000  0  5G15G 2G19G13G 6
  21767522.916    -6459935.750 5  -4942834.77121
  19068561.9944  -23232826.02248 -18016792.38364
  22407539.6194    8062661.96643   6292453.77061
  19868610.1044  -15127994.83346 -11000975.80261
  18756028.104   -29142044.841 7 -22494553.29923
 91  4 22 23 35 29.9940000  0  5G15G 2G19G13G 6
  21765623.971    -6469929.293 5  -4950621.93321
  19067813.7214  -23236757.75248 -18019856.06764
  22414078.393     8097030.765 3   6319234.50621
  19857829.1354  -15184643.44146 -11045117.44961
  18751437.525   -29166167.985 7 -22513350.53623
 91  4 22 23 35 44.9940000  0  5G15G 2G19G13G 6
  21763750.3304   -6479787.78845  -4958303.84761
  19067074.1504  -23240645.49348 -18022885.47264
  22420621.9084    8131441.05243   6346047.54361
  19847069.7294  -15241187.72046 -11089177.80461
  18746863.299   -29190201.626 7 -22532078.03223
 91  4 22 23 35 59.9940000  0  5G15G 2G19G13G 6
  21761900.0104   -6489508.36045  -4965878.28561
  19066343.8694  -23244486.57148 -18025878.51764
  22427182.143     8165895.079 3   6372894.64321
  19836330.3614  -15297624.81846 -11133154.63961
  18742307.424   -29214142.900 7 -22550733.55023
 91  4 22 23 36 14.9940000  0  5G15G 2G19G13G 6
  21760077.400    -6499103.760 6  -4973355.20521
  19065619.3224  -23248293.63948 -18028845.06164
  22433748.0964    8200380.18943   6399765.99661
  19825607.5804  -15353966.99746 -11177057.51861
  18737766.541   -29238004.228 7 -22569326.77323
 91  4 22 23 36 29.9940000  0  5G15G 2G19G13G 6
  21758269.6904   -6508571.07245  -4980732.30161
  19064901.8384  -23252063.73948 -18031782.79864
  22440314.869     8234899.082 3   6426663.67521
  19814905.4164  -15410210.81346 -11220883.75061
  18733241.752   -29261782.429 7 -22587855.21823
 91  4 22 23 36 44.9940000  0  4G15G 2G13G 6
  21756494.7754   -6517907.60145  -4988007.48961
  19064191.2524  -23255794.53048 -18034689.90464
  19804219.768   -15466353.707 6 -11264631.34521
  18728733.955   -29285474.739 7 -22606316.73723
 91  4 22 23 36 59.9940000  0  4G15G 2G13G 6
  21754734.3614   -6527110.53545  -4995178.57961
  19063489.8074  -23259483.16348 -18037564.16164
  19793556.7134  -15522392.57846 -11308297.88161
  18724242.416   -29309078.161 7 -22624708.99323
 91  4 22 23 37 14.9940000  0  4G15G 2G13G 6
  21753016.4084   -6536176.80545  -5002243.19461
  19062795.5414  -23263126.67348 -18040403.25864
  19782914.4164  -15578324.21247 -11351880.85561
  18719768.900   -29332589.490 7 -22643029.48623
 91  4 22 23 37 29.9940000  0  4G15G 2G13G 6
  21751325.4944   -6545109.24945  -5009203.51261
  19062110.7364  -23266727.89748 -18043209.40164
  19772289.166   -15634151.125 6 -11395382.22921
  18715312.150   -29356011.201 7 -22661280.14723
 91  4 22 23 37 44.9940000  0  4G15G 2G13G 6
  21749645.010    -6553914.723 5  -5016064.91021
  19061431.4164  -23270293.83048 -18045988.04364
  19761685.4084  -15689879.87847 -11438807.11561
  18710870.861   -29379349.947 7 -22679466.16023
 91  4 22 23 37 59.9940000  0  4G15G 2G13G 6
  21747997.3074   -6562583.05645  -5022819.42461
  19060761.0574  -23273814.17048 -18048731.16464
  19751101.799   -15745499.831 7 -11482147.22021
  18706446.846   -29402595.259 7 -22697579.37023
 91  4 22 23 38 14.9940000  0  4G15G 2G13G 6
  21746379.236    -6571105.346 5  -5029460.13321
  19060102.4944  -23277280.07548 -18051431.86564
  19740539.166   -15801002.152 6 -11525395.67421
  18702042.627   -29425738.054 7 -22715612.69823
 91  4 22 23 38 29.9940000  0  4G15G 2G13G 6
  21744785.658    -6579500.434 5  -5036001.74221
  19059449.4474  -23280710.42248 -18054104.85764
  19729998.025   -15856405.582 7 -11568567.06221
  18697655.744   -29448796.985 7 -22733580.67423
 91  4 22 23 38 44.9940000  0  4G15G 2G13G 6
  21743208.2914   -6587759.50345  -5042437.35061
  19058804.5334  -23284096.60148 -18056743.43664
  19719473.080   -15911701.065 6 -11611654.34021
  18693284.346   -29471763.189 7 -22751476.39823
 91  4 22 23 38 59.9930000  0  4G15G 2G13G 6
  21741662.0444   -6595876.05745  -5048761.93561
  19058171.5994  -23287432.38448 -18059342.74164
  19708975.317   -15966878.513 7 -11654649.64221
  18688933.919   -29494628.935 7 -22769293.84523
 91  4 22 23 39 14.9930000  0  4G15G 2G13G 6
  21740138.1924   -6603849.15645  -5054974.70061
  19057545.7004  -23290716.76948 -18061901.99764
  19698494.302   -16021943.397 7 -11697557.23721
  18684600.567   -29517395.317 7 -22787033.86323
 91  4 22 23 39 29.9930000  0  4G15G 2G13G 6
  21738649.5604   -6611695.55446  -5061088.78761
  19056926.9824  -23293966.31848 -18064434.11064
  19688035.450   -16076908.938 7 -11740387.42121
  18680285.411   -29540077.464 7 -22804708.24423
 91  4 22 23 39 44.9930000  0  4G15G 2G13G 6
  21737185.1924   -6619410.83146  -5067100.65261
  19056316.7784  -23297176.68348 -18066935.68864
  19677596.607   -16131770.327 7 -11783136.44821
  18675985.903   -29562670.890 7 -22822313.49323
 91  4 22 23 39 59.9930000  0  4G15G 2G13G 6
  21735744.6224   -6627000.61846  -5073014.77061
  19055712.4824  -23300353.51248 -18069411.13464
  19667175.286   -16186533.050 7 -11825808.59021
  18671702.122   -29585180.980 7 -22839853.80223
 91  4 22 23 40 14.9930000  0  4G15G 2G13G 6
  21734324.7164   -6634436.68646  -5078809.10561
  19055118.7164  -23303468.44248 -18071838.34964
  19656777.349   -16241168.390 7 -11868381.47621
  18667439.583   -29607579.145 7 -22857306.90223
 91  4 22 23 40 29.9930000  0  4G15G 2G13G 6
  21732936.2084   -6641724.37446  -5084487.82461
  19054537.1224  -23306527.09248 -18074221.70764
  19646404.849   -16295681.804 7 -11910859.35021
  18663199.146   -29629870.550 7 -22874676.80923
 91  4 22 23 40 44.9930000  0  4G15G 2G13G 6
  21731574.513    -6648873.792 5  -5090058.78121
  19053964.3644  -23309539.65848 -18076569.15664
  19636052.099   -16350082.939 7 -11953249.73521
  18658972.950   -29652065.077 7 -22891971.23123
 91  4 22 23 40 59.9930000  0  4G15G 2G13G 6
  21730230.8804   -6655894.87645  -5095529.73461
  19053395.6854  -23312516.31148 -18078888.62164
  19625720.357   -16404381.578 7 -11995560.25521
  18654768.067   -29674172.580 7 -22909197.84223
 91  4 22 23 41 14.9930000  0  4G15G 2G13G 6
  21728930.107    -6662780.698 6  -5100895.31021
  19052839.4194  -23315449.98348 -18081174.59964
  19615407.286   -16458570.507 7 -12037785.28921
  18650578.216   -29696185.932 7 -22926351.08623
 91  4 22 23 41 29.9930000  0  4G15G 2G13G 6
  21727647.9114   -6669521.24346  -5106147.64461
  19052290.2714  -23318330.49748 -18083419.15164
  19605118.388   -16512639.290 7 -12079916.69621
  18646408.739   -29718094.730 7 -22943422.86423
 91  4 22 23 41 44.9930000  0  4G15G 2G13G 6
  21726384.669    -6676121.086 5  -5111290.35621
  19051751.5134  -23321162.91948 -18085626.23264
  19594850.450   -16566592.651 7 -12121958.17421
  18642259.646   -29739903.777 7 -22960416.91223
 91  4 22 23 41 59.9930000  0  4G15G 2G13G 6
  21725166.3804   -6682574.75545  -5116319.18661
  19051223.2244  -23323941.61248 -18087791.44264
  19584607.817   -16620424.761 7 -12163905.16921
  18638128.817   -29761606.981 7 -22977328.48923
 91  4 22 23 42 14.9930000  0  4G15G 2G13G 6
  21723960.6384   -6688887.62745  -5121238.27561
  19050703.2864  -23326672.03048 -18089919.03864
  19574385.177   -16674140.642 7 -12205761.59221
  18634017.583   -29783209.648 7 -22994161.72023
 91  4 22 23 42 29.9930000  0  4G15G 2G13G 6
  21722788.5754   -6695063.32245  -5126050.49561
  19050193.0054  -23329357.62148 -18092011.70364
  19564185.442   -16727743.808 7 -12247530.18621
  18629925.9974  -29804714.95047 -23010919.09063
 91  4 22 23 42 44.9930000  0  4G15G 2G13G 6
  21721633.083    -6701110.484 5  -5130762.52521
  19049686.8644  -23332007.31448 -18094076.39764
  19554004.200   -16781242.797 7 -12289217.60721
  18625850.8644  -29826131.70747 -23027607.46163
 91  4 22 23 42 59.9930000  0  4G15G 2G13G 6
  21720507.9194   -6707033.69845  -5135378.02261
  19049190.1144  -23334625.44948 -18096116.50264
  19543842.403   -16834641.945 7 -12330827.22621
  18621790.2324  -29847463.95447 -23044229.98463
 91  4 22 23 43 14.9930000  0  4G15G 2G13G 6
  21719406.0284   -6712817.25245  -5139884.65661
  19048699.9744  -23337196.25348 -18098119.72464
  19533703.3574  -16887925.11647 -12372346.47661
  18617750.6074  -29868695.64147 -23060774.14063
 91  4 22 23 43 29.9930000  0  4G15G 2G13G 6
  21718338.536    -6718466.539 5  -5144286.67821
  19048219.8174  -23339725.20148 -18100090.33464
  19523584.169   -16941097.342 6 -12413779.27621
  18613727.7554  -29889831.98547 -23077244.00863
 91  4 22 23 43 44.9930000  0  4G15G 2G13G 6
  21717283.653    -6723976.218 5  -5148579.90521
  19047747.1464  -23342207.28948 -18102024.42664
  19513487.763   -16994153.068 6 -12455121.29521
  18609724.6384  -29910867.73947 -23093635.50463
 91  4 22 23 43 59.9930000  0  4G15G 2G13G 6
  21716262.6614   -6729354.59945  -5152770.84861
  19047283.5754  -23344650.70748 -18103928.38964
  19503413.896   -17047100.475 7 -12496378.91021
  18605739.388   -29931810.745 7 -23109954.71023
 91  4 22 23 44 14.9930000  0  4G15G 2G13G 6
  21715264.200    -6734584.905 5  -5156846.38221
  19046828.7474  -23347038.41448 -18105788.94464
  19493361.732   -17099922.521 6 -12537538.84921
  18601775.0604  -29952643.84347 -23126188.28463
 91  4 22 23 44 29.9930000  0  4G15G 2G13G 6
  21714294.552    -6739665.375 5  -5160805.16721
  19046384.7004  -23349368.89148 -18107604.90164
  19483333.200   -17152617.334 7 -12578599.63121
  18597832.1614  -29973365.23047 -23142334.81263
 91  4 22 23 44 44.9930000  0  4G15G 2G13G 6
  21713365.036    -6744603.409 5  -5164652.97821
  19045949.9194  -23351649.51048 -18109382.01164
  19473328.7634  -17205192.09547 -12619566.88561
  18593909.7554  -29993982.05947 -23158399.86163
 91  4 22 23 44 59.9930000  0  4G15G 2G13G 6
  21712445.2084   -6749403.25245  -5168393.10361
  19045524.5914  -23353884.43148 -18111123.50964
  19463346.708   -17257650.328 7 -12660443.32121
  18590005.2324  -30014498.22047 -23174386.47463
 91  4 22 23 45 14.9930000  0  4G15G 2G13G 6
  21711556.607    -6754077.438 5  -5172035.31021
  19045104.9114  -23356086.49348 -18112839.40164
  19453383.466   -17310004.879 7 -12701238.97521
  18586118.3334  -30034926.27347 -23190304.42963
 91  4 22 23 45 29.9930000  0  4G15G 2G13G 6
  21710702.599    -6758614.485 5  -5175570.67321
  19044695.3574  -23358243.97648 -18114520.56464
  19443441.8334  -17362243.94347 -12741944.63761
  18582249.4274  -30055254.43947 -23206144.54963
 91  4 22 23 45 44.9930000  0  4G15G 2G13G 6
  21709858.5214   -6763022.06245  -5179005.13461
  19044291.8334  -23360364.59448 -18116173.00264
  19433522.153   -17414374.933 7 -12782566.08921
  18578398.3884  -30075489.98947 -23221912.49863
 91  4 22 23 45 59.9930000  0  4G15G 2G13G 6
  21709039.888    -6767284.044 5  -5182326.15021
  19043897.8174  -23362432.34248 -18117784.23664
  19423626.216   -17466381.463 7 -12823090.55621
  18574568.6694  -30095616.69047 -23237595.63363
 91  4 22 23 46 14.9930000  0  4G15G 2G13G 6
  21708260.0674   -6771400.63446  -5185533.87261
  19043515.5054  -23364447.13648 -18119354.20964
  19413752.3804  -17518263.26647 -12863517.84061
  18570760.8724  -30115634.47047 -23253193.89163
 91  4 22 23 46 29.9930000  0  4G15G 2G13G 6
  21707498.2864   -6775387.35245  -5188640.38461
  19043139.7554  -23366424.56048 -18120895.06264
  19403900.794   -17570035.522 7 -12903859.75421
  18566968.1464  -30135558.43447 -23268719.04863
 91  4 22 23 46 44.9930000  0  4G15G 2G13G 6
  21706764.8644   -6779236.86346  -5191640.02261
  19042771.2164  -23368357.53048 -18122401.27464
  19394071.7634  -17621690.69247 -12944110.44661
  18563196.0604  -30155381.08447 -23284165.25963
 91  4 22 23 46 59.9930000  0  4G15G 2G13G 6
  21706062.755    -6782937.786 5  -5194523.84321
  19042412.8494  -23370234.47748 -18123863.83164
  19384266.0134  -17673217.09147 -12984260.78561
  18559445.294   -30175090.799 7 -23299523.46723
 91  4 22 23 47 14.9930000  0  4G15G 2G13G 6
  21705386.5524   -6786492.11345  -5197293.44461
  19042066.7864  -23372057.39848 -18125284.29464
  19374484.2324  -17724616.86947 -13024312.46461
  18555715.4974  -30194689.38947 -23314795.08363
 91  4 22 23 47 29.9930000  0  4G15G 2G13G 6
  21704735.3414   -6789921.37545  -5199965.60461
  19041725.6144  -23373847.76148 -18126679.38164
  19364725.0994  -17775911.22347 -13064281.99061
  18552003.2714  -30214198.06547 -23329996.63963
 91  4 22 23 47 44.9930000  0  4G15G 2G13G 6
  21704113.622    -6793213.242 6  -5202530.68321
  19041394.3254  -23375593.38648 -18128039.61264
  19354984.9664  -17827087.59547 -13104159.59061
  18548309.927   -30233604.320 7 -23345118.38223
 91  4 22 23 47 59.9930000  0  4G15G 2G13G 6
  21703513.0674   -6796380.49345  -5204998.65761
  19041068.0524  -23377306.88448 -18129374.80764
  19345267.1534  -17878158.03947 -13143954.64161
  18544634.372   -30252920.615 7 -23360170.02823
 91  4 22 23 48 14.9930000  0  4G15G 2G13G 6
  21702931.2004   -6799413.56045  -5207362.09561
  19040748.3174  -23378978.74248 -18130677.55864
  19335570.6144  -17929113.16347 -13183659.84361
  18540978.153   -30272137.248 7 -23375144.01723
 91  4 22 23 48 29.9930000  0  4G15G 2G13G 6
  21702378.153    -6802290.994 5  -5209604.24221
  19040443.6384  -23380587.40448 -18131931.06264
  19325899.4034  -17979931.04347 -13223258.09861
  18537343.6464  -30291232.39547 -23390023.34463
 91  4 22 23 48 44.9930000  0  4G15G 2G13G 6
  21701853.935    -6805035.856 5  -5211743.09221
  19040146.1464  -23382156.12648 -18133153.44864
  19316251.4584  -18030634.77847 -13262767.40461
  18533730.388   -30310228.979 7 -23404825.86223
 91  4 22 23 48 59.9930000  0  4G15G 2G13G 6
  21701366.630    -6807638.586 6  -5213771.19921
  19039856.2244  -23383675.08448 -18134337.05664
  19306626.3174  -18081214.47147 -13302180.05761
  18530135.138   -30329117.137 7 -23419543.89223
 91  4 22 23 49 14.9930000  0  4G15G 2G13G 6
  21700896.083    -6810112.240 5  -5215698.72221
  19039574.5524  -23385157.31048 -18135492.04364
  19297021.9974  -18131682.70147 -13341505.85861
  18526558.5754  -30347909.69447 -23434187.43063
 91  4 22 23 49 29.9930000  0  4G15G 2G13G 6
  21700446.497    -6812450.538 5  -5217520.77221
  19039301.0214  -23386596.63048 -18136613.59264
  19287441.5834  -18182032.99047 -13380739.75761
  18523002.0524  -30366600.00047 -23448751.29663
 91  4 22 23 49 44.9930000  0  4G15G 2G13G 6
  21700033.8574   -6814654.75745  -5219238.33861
  19039034.0284  -23387994.20948 -18137702.61964
  19277881.5364  -18232266.48147 -13419882.64261
  18519464.435   -30385189.062 7 -23463236.26623
 91  4 22 23 49 59.9930000  0  4G15G 2G13G 6
  21699634.450    -6816719.074 5  -5220846.88921
  19038777.1774  -23389344.45748 -18138754.76164
  19268345.5994  -18282377.26947 -13458929.91461
  18515948.521   -30403671.059 7 -23477637.81023
 91  4 22 23 50 14.9930000  0  4G15G 2G13G 6
  21699271.7324   -6818654.04445  -5222354.64861
  19038526.4664  -23390657.70048 -18139778.06864
  19258831.5754  -18332375.41547 -13497889.41661
  18512449.849   -30422056.004 7 -23491963.72823
 91  4 22 23 50 29.9930000  0  4G15G 2G13G 6
  21698925.7634   -6820454.37045  -5223757.51061
  19038285.9894  -23391928.53348 -18140768.33364
  19249338.6774  -18382255.38647 -13536756.83561
  18508971.591   -30440338.329 7 -23506209.68323
 91  4 22 23 50 44.9930000  0  4G15G 2G13G 6
  21698603.614    -6822122.979 5  -5225057.69721
  19038050.6384  -23393159.92148 -18141727.85664
  19239869.9274  -18432020.14047 -13575534.47161
  18505510.466   -30458520.836 7 -23520377.85723
 91  4 22 23 50 59.9930000  0  4G15G 2G13G 6
  21698311.692    -6823661.583 5  -5226256.62421
  19037824.3024  -23394353.48948 -18142657.90664
  19230421.1074  -18481670.85147 -13614223.24562
  18502069.458   -30476605.042 7 -23534469.43323
 91  4 22 23 51 14.9930000  0  4G15G 2G13G 6
  21698057.8024   -6825038.78745  -5227329.73761
  19037608.5364  -23395478.08548 -18143534.21764
  19221000.1774  -18531176.11747 -13652798.68961
  18498652.966   -30494559.499 7 -23548459.90323
 91  4 22 23 51 29.9930000  0  4G15G 2G13G 6
  21697817.4424   -6826274.87845  -5228292.92161
  19037406.6854  -23396553.66148 -18144372.32564
  19211604.2474  -18580555.62847 -13691276.13861
  18495256.794   -30512403.886 7 -23562364.60823
 91  4 22 23 51 44.9930000  0  4G15G 2G13G 6
  21697613.575    -6827373.389 5
  19037208.4824  -23397583.56848
  19202230.3104  -18629812.73347 -13729658.20861
  18491880.6384  -30530141.31247 -23576185.96963
 91  4 22 23 51 59.9930000  0  4G15G 2G13G 6
  21697427.8884   -6828331.44445
  19037022.0674  -23398565.25448
  19192880.9744  -18678944.35347 -13767942.49461
  18488526.3644  -30547768.80347 -23589921.66463
 91  4 22 23 52 14.9930000  0  4G15G 2G13G 6
  21697270.0444   -6829151.99145  -5230534.77861
  19036843.5754  -23399501.59048 -18146669.41164
  19183555.1774  -18727953.50647 -13806131.35561
  18485192.630   -30565289.262 7 -23603573.95723
 91  4 22 23 52 29.9930000  0  4G15G 2G13G 6
  21697140.130    -6829835.067 5  -5231067.04321
  19036676.6384  -23400392.40948 -18147363.55564
  19174251.7864  -18776839.49547 -13844224.24962
  18481879.2474  -30582702.30047 -23617142.54863
 91  4 22 23 52 44.9930000  0  4G15G 2G13G 6
  21697037.4034   -6830380.03145  -5231491.67361
  19036514.5134  -23401236.80148 -18148021.51864
  19164973.9354  -18825601.30347 -13882220.37461
  18478585.2394  -30600006.66047 -23630626.45663
 91  4 22 23 52 59.9930000  0  4G15G 2G13G 6
  21696963.6304   -6830775.12645  -5231799.52961
  19036363.1924  -23402023.06048 -18148634.18664
  19155719.3724  -18874227.17047 -13920110.57162
  18475316.958   -30617190.680 7 -23644016.58323
 91  4 22 23 53 14.9930000  0  4G15G 2G13G 6
  21696916.607    -6831032.664 6  -5232000.19021
  19036223.4354  -23402763.65548 -18149211.27264
  19146489.5134  -18922729.15447 -13957904.23761
  18472066.7944  -30634266.38347 -23657322.31863
 91  4 22 23 53 29.9930000  0  4G15G 2G13G 6
  21696891.091    -6831148.126 6
  19036093.9194  -23403454.06848 -18149749.25464
  19137284.646   -18971102.635 7 -13995597.78321
  18468837.7244  -30651229.04047 -23670539.96263
 91  4 22 23 53 44.9930000  0  4G15G 2G13G 6
  21696896.927    -6831116.887 5
  19035971.0284  -23404089.58848 -18150244.46264
  19128105.208   -19019342.719 7 -14033187.36821
  18465634.4664  -30668073.82847 -23683665.76263
 91  4 22 23 53 59.9930000  0  4G15G 2G13G 6
  21696926.005    -6830968.063 6
  19035854.5834  -23404699.18848 -18150719.47464
  19118944.732   -19067478.294 7 -14070695.52321
  18462444.521   -30684829.379 7 -23696722.02123
 91  4 22 23 54 14.9930000  0  4G15G 2G13G 6
  21696977.8574   -6830685.68545
  19035746.6694  -23405266.72348 -18151161.71064
  19109808.817   -19115492.888 7 -14108109.40721
  18459276.8884  -30701479.37947 -23709696.03863
 91  4 22 23 54 29.9930000  0  4G15G 2G13G 6
  21697051.3964   -6830273.32345  -5231408.41761
  19035649.7944  -23405795.87348 -18151574.03564
  19100693.138   -19163390.131 7 -14145431.85021
  18456127.1304  -30718027.44547 -23722590.62663
 91  4 22 23 54 44.9930000  0  4G15G 2G13G 6
  21697160.474    -6829736.016 5  -5230989.72321
  19035551.2864  -23406291.63448 -18151960.34464
  19091600.474   -19211174.453 7 -14182666.30521
  18452997.2714  -30734478.13847 -23735409.33463
 91  4 22 23 54 59.9930000  0  4G15G 2G13G 6
  21697292.2634   -6829035.41445  -5230443.78161
  19035472.1774  -23406715.53348 -18152290.65264
  19082535.482   -19258807.346 7 -14219782.76121
  18449893.6924  -30750792.74947 -23748122.01263
 91  4 22 23 55 14.9930000  0  4G15G 2G13G 6
  21697453.0994   -6828178.14045  -5229775.77961
  19035402.3964  -23407074.27648 -18152570.19564
  19073498.083   -19306295.470 7 -14256786.41321
  18446812.4034  -30766977.94847 -23760733.84563
 91  4 22 23 55 29.9930000  0  4G15G 2G13G 6
  21697645.013    -6827182.643 5  -5229000.04621
  19035343.9744  -23407386.07348 -18152813.15964
  19064487.114   -19353656.734 7 -14293691.21221
  18443753.1694  -30783051.69247 -23773258.83363
 91  4 22 23 55 44.9930000  0  4G15G 2G13G 6
  21697855.802    -6826056.133 5  -5228122.22221
  19035293.8104  -23407658.06848 -18153025.10364
  19055496.646   -19400898.127 7 -14330502.60821
  18440714.6074  -30799020.91947 -23785702.37763
 91  4 22 23 55 59.9930000  0  4G15G 2G13G 6
  21698100.5444   -6824778.95545  -5227127.02661
  19035254.0444  -23407870.36748 -18153190.52764
  19046533.482   -19447999.655 7 -14367205.01121
  18437700.9424  -30814865.69047 -23798048.94763
 91  4 22 23 56 14.9930000  0  4G15G 2G13G 6
  21698365.771    -6823387.347 5  -5226042.63821
  19035217.3104  -23408059.15348 -18153337.63264
  19037590.044   -19494997.153 7 -14403826.35421
  18434701.4114  -30830621.88247 -23810326.49163
 91  4 22 23 56 29.9930000  0  4G15G 2G13G 6
  21698652.2554   -6821859.04345  -5224851.73661
  19035188.3574  -23408202.04748
  19028671.419   -19541868.133 7 -14440349.11721
  18431725.0914  -30846266.85647 -23822517.37563
 91  4 22 23 56 44.9930000  0  4G15G 2G13G 6
  21698965.6464   -6820194.30945  -5223554.53561
  19035171.5674  -23408299.53948
  19019776.075   -19588612.903 7 -14476773.53421
  18428768.6614  -30861800.84147 -23834621.76863
 91  4 22 23 56 59.9930000  0  4G15G 2G13G 6
  21699314.333    -6818399.885 5  -5222156.26521
  19035157.9584  -23408358.25748
  19010903.114   -19635237.866 7 -14513104.59321
  18425832.9664  -30877230.17647 -23846644.61963
 91  4 22 23 57 14.9930000  0  4G15G 2G13G 6
  21699684.6774   -6816469.29745  -5220651.91261
  19035153.6144  -23408371.61048
  19002054.700   -19681736.391 7 -14549337.12822
  18422918.0524  -30892548.21347 -23858580.74363
 91  4 22 23 57 29.9930000  0  4G15G 2G13G 6
  21700071.7164   -6814407.32445  -5219045.15261
  19035162.3574  -23408344.16548
  18993229.388   -19728112.835 7 -14585474.53821
  18420022.786   -30907759.298 7 -23870433.52723
 91  4 22 23 57 44.9930000  0  4G15G 2G13G 6
  21700494.794    -6812209.103 5  -5217332.23021
  19035176.9504  -23408270.99348
  18984429.107   -19774362.186 7 -14621512.91421
  18417148.9974  -30922858.37147 -23882199.02963
 91  4 22 23 57 59.9930000  0  4G15G 2G13G 6
  21700939.403    -6809879.770 6  -5215517.15821
  19035197.4584  -23408157.25748
  18975651.200   -19820489.272 7 -14657456.01621
  18414296.1144  -30937850.32447 -23893881.06363
 91  4 22 23 58 14.9930000  0  4G15G 2G13G 6
  21701405.7164   -6807400.67245  -5213585.36161
  19035230.4274  -23407984.07248
  18966900.286   -19866475.078 7 -14693289.02922
  18411466.7244  -30952716.17347 -23905464.83563
 91  4 22 23 58 29.9930000  0  4G15G 2G13G 6
  21701909.3804   -6804771.92346  -5211536.96861
  19035275.4504  -23407751.67748
  18958176.333   -19912319.585 7 -14729011.94422
  18408663.2714  -30967455.82547 -23916950.27163
 91  4 22 23 58 44.9930000  0  4G15G 2G13G 6
  21702436.232    -6802012.926 5  -5209387.07421
  19035327.1464  -23407479.21948 -18152885.75464
  18949475.310   -19958042.030 7 -14764639.74122
  18405878.3494  -30982088.26047 -23928352.16063
 91  4 22 23 58 59.9930000  0  4G15G 2G13G 6
  21702983.1774   -6799111.51145  -5207126.21561
  19035389.3414  -23407154.50548 -18152632.73664
  18940800.005   -20003629.947 7 -14800162.71522
  18403117.6304  -30996601.16047 -23939660.90763
 91  4 22 23 59 14.9930000  0  4G15G 2G13G 6
  21703565.482    -6796072.613 5  -5204758.21621
  19035459.6614  -23406782.18648 -18152342.62264
  18932148.942   -20049087.630 7 -14835584.20922
  18400377.8174  -31010999.05347 -23950880.03663
 91  4 22 23 59 29.9930000  0  4G15G 2G13G 6
  21704170.896    -6792897.253 5  -5202283.89921
  19035540.1774  -23406363.37048 -18152016.27664
  18923523.841   -20094416.003 7 -14870904.94022
  18397658.2324  -31025282.56747 -23962010.04063
 91  4 22 23 59 44.9930000  0  4G15G 2G13G 6
  21704799.263    -6789575.279 5  -5199695.34021
  19035627.9034  -23405887.72948 -18151645.65464
  18914924.810   -20139604.735 7 -14906116.86322
  18394964.3804  -31039441.46847 -23973042.94063
 91  4 22 23 59 59.9930000  0  4G15G 2G13G 6
  21705457.8254   -6786110.97945  -5196995.86561
  19035729.9584  -23405359.69548 -18151234.20664
  18906350.872   -20184657.961 7 -14941223.19522
  18392292.4824  -31053479.84847 -23983981.93663
 91  4 23  0  0 14.9930000  0  4G15G 2G13G 6
  21706144.122    -6782514.199 5  -5194193.17821
  19035838.8414  -23404788.67448 -18150789.26264
  18897802.122   -20229585.002 7 -14976231.20321
  18389642.4424  -31067406.95747 -23994834.22663
 91  4 23  0  0 29.9930000  0  4G15G 2G13G 6
  21706856.6074   -6778774.54845  -5191279.16161
  19035955.6304  -23404164.34848 -18150302.77764
  18889278.427   -20274375.419 7 -15011132.75122
  18387016.1464  -31081212.27547 -24005591.61263
 91  4 23  0  0 44.9930000  0  4G15G 2G13G 6
  21707595.622    -6774890.623 5  -5188252.71621
  19036088.0214  -23403484.77448 -18149773.24564
  18880781.333   -20319027.197 7 -15045926.26922
  18384412.3174  -31094893.80147 -24016252.53963
 91  4 23  0  0 59.9930000  0  4G15G 2G13G 6
  21708360.3494   -6770870.62446  -5185120.23761
  19036224.1384  -23402758.40048 -18149207.24464
  18872308.372   -20363548.187 7 -15080617.87322
  18381831.1694  -31108459.61147 -24026823.29763
 91  4 23  0  1 14.9930000  0  4G15G 2G13G 6
  21709148.458    -6766712.228 5  -5181879.90921
  19036373.1534  -23401982.85948 -18148602.93564
  18863861.567   -20407936.108 7 -15115205.78722
  18379271.9664  -31121907.20547 -24037301.93763
 91  4 23  0  1 29.9930000  0  4G15G 2G13G 6
  21709965.9354   -6762412.64145  -5178529.55861
  19036532.2714  -23401155.25948 -18147958.05864
  18855441.044   -20452187.989 7 -15149687.70122
  18376735.3964  -31135233.40547 -24047685.98463
 91  4 23  0  1 44.9930000  0  4G15G 2G13G 6
  21710814.4744   -6757971.21945  -5175068.69861
  19036696.8174  -23400274.89848 -18147272.07364
  18847046.880   -20496303.161 7 -15184063.08622
  18374222.9664  -31148437.59247 -24057974.95963
 91  4 23  0  1 59.9930000  0  4G15G 2G13G 6
  21711687.1614   -6753403.04245  -5171509.07161
  19036871.4744  -23399356.78648 -18146556.66964
  18838674.278   -20540296.205 7 -15218343.30422
  18371730.6774  -31161534.37247 -24068180.24063
 91  4 23  0  2 14.9930000  0  4G15G 2G13G 6
  21712576.7714   -6748701.55045  -5167845.55361
  19037055.6924  -23398394.03048 -18145806.47564
  18830328.349   -20584160.270 7 -15252523.02322
  18369260.4034  -31174516.89247 -24078296.48363
 91  4 23  0  2 29.9930000  0  4G15G 2G13G 6
  21713500.427    -6743865.011 5  -5164076.80121
  19037247.6304  -23397384.85948 -18145020.11664
  18822006.2084  -20627893.35547 -15286600.68062
  18366811.3964  -31187383.09347 -24088322.08763
 91  4 23  0  2 44.9930000  0  4G15G 2G13G 6
  21714443.6304   -6738886.26945  -5160197.23061
  19037450.2784  -23396322.19348 -18144192.07664
  18813710.419   -20671488.174 7 -15320570.59922
  18364386.5054  -31200125.47547 -24098251.21363
 91  4 23  0  2 59.9930000  0  4G15G 2G13G 6
  21715420.4744   -6733766.31345  -5156207.65761
  19037662.5674  -23395206.85448 -18143322.98764
  18805439.833   -20714945.455 7 -15354433.34322
  18361985.6774  -31212744.94747 -24108084.55963
 91  4 23  0  3 14.9930000  0  4G15G 2G13G 6
  21716418.6464   -6728518.12645  -5152118.13261
  19037882.0054  -23394051.74348 -18142422.90764
  18797194.7714  -20758278.10747 -15388198.97862
  18359604.4584  -31225254.20347 -24117832.02663
 91  4 23  0  3 29.9930000  0  4G15G 2G13G 6
  21717437.2784   -6723130.64245  -5147920.09661
  19038110.9894  -23392845.26548 -18141482.80364
  18788974.247   -20801474.226 7 -15421858.21922
  18357247.7944  -31237641.42547 -24127484.39963
 91  4 23  0  3 44.9930000  0  4G15G 2G13G 6
  21718496.3174   -6717601.12845  -5143611.37661
  19038352.3174  -23391584.73048 -18140500.57264
  18780780.3884  -20844531.15347 -15455409.00462
  18354914.8884  -31249903.88547 -24137039.55763
 91  4 23  0  3 59.9930000  0  4G15G 2G13G 6
  21719580.997    -6711923.760 6  -5139187.45721
  19038602.6464  -23390264.16848 -18139471.57164
  18772613.8804  -20887442.55047 -15488846.38762
  18352606.3414  -31262035.29647 -24146492.60063
 91  4 23  0  4 14.9930000  0  4G15G 2G13G 6
  21720687.4034   -6706101.48945  -5134650.61761
  19038865.2944  -23388886.44048 -18138398.02564
  18764475.4744  -20930211.22647 -15522172.55862
  18350321.2474  -31274038.38347 -24155845.64863
 91  4 23  0  4 29.9930000  0  4G15G 2G13G 6
  21721816.771    -6700153.629 5  -5130015.89721
  19039134.2244  -23387470.68748 -18137294.84564
  18756361.3964  -20972856.08247 -15555402.25062
  18348058.9584  -31285932.25147 -24165113.59363
 91  4 23  0  4 44.9930000  0  4G15G 2G13G 6
  21722975.8494   -6694075.60446  -5125279.79561
  19039410.8254  -23386012.32747 -18136158.46664
  18748269.607   -21015372.584 7 -15588531.92122
  18345816.2324  -31297711.94847 -24174292.56963
 91  4 23  0  4 59.9930000  0  4G15G 2G13G 6
  21724158.060    -6687860.793 5  -5120437.06021
  19039698.2164  -23384504.49147 -18134983.53364
  18740205.7324  -21057753.83347 -15621556.20462
  18343597.8254  -31309370.51347 -24183377.16563
 91  4 23  0  5 14.9930000  0  4G15G 2G13G 6
  21725369.7474   -6681502.46946  -5115482.53761
  19039995.6614  -23382940.25247 -18133764.65164
  18732168.4194  -21099992.62047 -15654469.47762
  18341404.4424  -31320900.90347 -24192361.87863
 91  4 23  0  5 29.9930000  0  4G15G 2G13G 6
  21726600.5444   -6675009.79645  -5110423.30261
  19040303.7784  -23381328.76048 -18132508.94864
  18724154.4584  -21142097.94447 -15687278.75262
  18339232.8494  -31332311.98847 -24201253.62963
 91  4 23  0  5 44.9930000  0  4G15G 2G13G 6
  21727860.6694   -6668384.12045  -5105260.44861
  19040618.4974  -23379671.04048 -18131217.22464
  18716168.0674  -21184070.83547 -15719984.83862
  18337084.1924  -31343604.75647 -24210053.18163
 91  4 23  0  5 59.9930000  0  4G15G 2G13G 6
  21729144.0754   -6661633.23045  -5100000.01161
  19040941.3254  -23377974.87948 -18129895.54864
  18708204.8804  -21225918.79347 -15752593.57062
  18334956.3804  -31354786.78347 -24218766.44463
 91  4 23  0  6 14.9930000  0  4G15G 2G13G 6
  21730456.7554   -6654754.25745  -5094639.75561
  19041271.8724  -23376237.23247 -18128541.53964
  18700264.6854  -21267638.74547 -15785102.55562
  18332850.1464  -31365854.83347 -24227390.89263
 91  4 23  0  6 29.9930000  0  4G15G 2G13G 6
  21731790.575    -6647727.385 5  -5089164.29421
  19041612.9584  -23374438.36747 -18127139.82764
  18692353.4034  -21309210.83947 -15817496.33162
  18330769.1464  -31376789.04647 -24235911.05163
 91  4 23  0  6 44.9930000  0  4G15G 2G13G 6
  21733155.1224   -6640582.84145  -5083597.05261
  19041963.0214  -23372608.27348 -18125713.78564
  18684465.9424  -21350664.90647 -15849798.13862
  18328708.3254  -31387619.19447 -24244350.12363
 91  4 23  0  6 59.9930000  0  4G15G 2G13G 6
  21734536.9114   -6633298.16945  -5077920.71861
  19042321.2394  -23370724.37948 -18124245.82363
  18676603.3254  -21391978.23247 -15881990.27362
  18326671.6854  -31398322.60047 -24252690.43463
 91  4 23  0  7 14.9930000  0  4G15G 2G13G 6
  21735952.5524   -6625875.56245  -5072136.83161
  19042688.5444  -23368788.64648 -18122737.46364
  18668769.0674  -21433152.53947 -15914074.08262
  18324658.1924  -31408900.99847 -24260933.33763
 91  4 23  0  7 29.9930000  0  4G15G 2G13G 6
  21737388.153    -6618313.291 5  -5066244.16221
  19043068.5284  -23366799.35848 -18121187.37263
  18660961.0134  -21474186.15447 -15946048.26362
  18322669.6924  -31419352.47347 -24269077.33963
 91  4 23  0  7 44.9930000  0  4G15G 2G13G 6
  21738848.8494   -6610626.07945  -5060254.12661
  19043454.2244  -23364771.11148 -18119606.92364
  18653175.5134  -21515093.50847 -15977924.05762
  18320702.3024  -31429691.48647 -24277133.70863
 91  4 23  0  7 59.9930000  0  4G15G 2G13G 6
  21740342.3414   -6602808.11745  -5054162.19961
  19043848.7554  -23362697.50948 -18117991.13264
  18645416.9114  -21555868.28047 -16009696.54162
  18318757.2554  -31439911.65547 -24285097.46963
 91  4 23  0  8 14.9930000  0  4G15G 2G13G 6
  21741851.888    -6594859.512 5  -5047968.49621
  19044251.6074  -23360578.64848 -18116340.07464
  18637682.6304  -21596510.43047 -16041365.68362
  18316835.4974  -31450012.97447 -24292968.62563
 91  4 23  0  8 29.9930000  0  4G15G 2G13G 6
  21743390.7004   -6586775.37345  -5041669.17261
  19044665.0674  -23358409.50548 -18114649.84164
  18629975.3724  -21637014.79947 -16072927.46462
  18314936.4274  -31459990.08047 -24300742.98963
 91  4 23  0  8 44.9930000  0  4G15G 2G13G 6
  21744957.107    -6578553.341 5  -5035262.38621
  19045087.4584  -23356187.44848 -18112918.37164
  18622294.1924  -21677378.65647 -16104379.75662
  18313061.9034  -31469840.24147 -24308418.43763
 91  4 23  0  8 59.9930000  0  4G15G 2G13G 6
  21746548.825    -6570197.294 5  -5028751.18521
  19045519.9504  -23353916.23347 -18111148.60264
  18614638.2244  -21717605.60447 -16135725.36262
  18311210.8104  -31479566.99947 -24315997.72963
 91  4 23  0  9 14.9930000  0  4G15G 2G13G 6
  21748161.2004   -6561719.91545  -5022145.40661
  19045959.3644  -23351608.76647 -18109350.58164
  18607007.4114  -21757708.44847 -16166974.27262
  18309381.6534  -31489183.18747 -24323490.85963
 91  4 23  0  9 29.9930000  0  4G15G 2G13G 6
  21749796.317    -6553106.258 5  -5015433.46921
  19046408.1384  -23349250.03247 -18107512.61464
  18599402.8174  -21797671.99147 -16198114.62662
  18307575.2004  -31498673.56647 -24330885.95863
 91  4 23  0  9 44.9930000  0  4G15G 2G13G 6
  21751463.2864   -6544355.43345  -5008614.60061
  19046866.7004  -23346838.62248 -18105633.60664
  18591824.3804  -21837494.76447 -16229145.29562
  18305793.9744  -31508036.68547 -24338181.89563
 91  4 23  0  9 59.9930000  0  4G15G 2G13G 6
  21753157.974    -6535462.217 5  -5001684.82221
  19047335.833   -23344369.177 7 -18103709.37124
  18584275.4974  -21877171.25447 -16260061.97862
  18304035.7864  -31517266.87747 -24345374.25363
 91  4 23  0 10 14.9930000  0  4G15G 2G13G 6
  21754870.7714   -6526430.50745  -4994647.12661
  19047817.2004  -23341845.52148 -18101742.89864
  18576752.4974  -21916705.27347 -16290867.64262
  18302305.1224  -31526367.87147 -24352465.93963
 91  4 23  0 10 29.9920000  0  4G15G 2G13G 6
  21756618.9384   -6517268.64245  -4987508.02361
  19048306.3834  -23339275.15547 -18099740.02564
  18569253.9304  -21956101.61247 -16321566.02562
  18300596.9144  -31535346.42347 -24359462.21363
 91  4 23  0 10 44.9920000  0  4G15G 2G13G 6
  21758387.3594   -6507971.28845  -4980263.31761
  19048804.6954  -23336653.59447 -18097697.26264
  18561782.9924  -21995361.09247 -16352157.76562
  18298912.6414  -31544199.30747 -24366360.56563
 91  4 23  0 10 59.9920000  0  4G15G 2G13G 6
  21760178.7114   -6498551.21445  -4972922.98061
  19049309.9064  -23333992.75347 -18095623.88764
  18554337.0864  -22034492.55747 -16382649.75062
  18297248.6494  -31552937.59847 -24373169.62663
 91  4 23  0 11 14.9920000  0  4G15G 2G13G 6
  21761997.539    -6488993.367 5  -4965475.31821
  19049827.1494  -23331277.58447 -18093508.18363
  18546917.3834  -22073481.03247 -16413030.31862
  18295611.5004  -31561546.10147 -24379877.55163
 91  4 23  0 11 29.9920000  0  4G15G 2G13G 6
  21763844.039    -6479306.936 5  -4957927.43321
  19050352.1884  -23328517.09747 -18091357.16164
  18539523.6564  -22112335.52847 -16443306.48462
  18293995.9774  -31570033.73147 -24386491.29163
 91  4 23  0 11 44.9920000  0  4G15G 2G13G 6
  21765705.3204   -6469496.28445  -4950282.74661
  19050885.5004  -23325715.66648 -18089174.23964
  18532154.7664  -22151060.35347 -16473481.61162
  18292402.5784  -31578404.61247 -24393014.05963
 91  4 23  0 11 59.9920000  0  4G15G 2G13G 6
  21767606.1724   -6459553.44045  -4942535.10761
  19051427.3364  -23322864.97748 -18086952.93464
  18524811.6644  -22189647.13347 -16503549.17162
  18290834.2664  -31586650.27147 -24399439.24763
 91  4 23  0 12 14.9920000  0  4G15G 2G13G 6
  21769521.234    -6449480.438 5  -4934685.98221
  19051979.9384  -23319967.00848 -18084694.78864
  18517493.7424  -22228097.80547 -16533510.67062
  18289289.0084  -31594772.72147 -24405768.43563
 91  4 23  0 12 29.9920000  0  4G15G 2G13G 6
  21771462.2814   -6439266.45645  -4926727.02961
  19052542.3204  -23317010.46847 -18082391.00364
  18510204.4224  -22266400.89847 -16563357.17662
  18287768.8524  -31602760.40547 -24411992.60563
 91  4 23  0 12 44.9920000  0  4G15G 2G13G 6
  21773426.0314   -6428940.64545  -4918680.97361
  19053109.8594  -23314024.40147 -18080064.20763
  18502938.6724  -22304585.24447 -16593111.15162
  18286268.8364  -31610642.41547 -24418134.43463
 91  4 23  0 12 59.9920000  0  4G15G 2G13G 6
  21775412.203    -6418485.435 5  -4910534.00321
  19053687.6254  -23310991.45448 -18077700.88264
  18495699.0004  -22342633.65847 -16622759.20162
  18284793.0244  -31618400.91247 -24424180.02363
 91  4 23  0 13 14.9920000  0  4G15G 2G13G 6
  21777428.203    -6407904.156 5  -4902288.86921
  19054274.4614  -23307914.37647 -18075303.17064
  18488483.4454  -22380548.75847 -16652303.37662
  18283338.0634  -31626038.89047 -24430131.69663
 91  4 23  0 13 29.9920000  0  4G15G 2G13G 6
  21779467.656    -6397188.329 5  -4893938.87221
  19054869.586   -23304784.537 8 -18072864.34424
  18481296.2584  -22418321.66847 -16681736.75062
  18281909.5164  -31633547.32547 -24435982.42463
 91  4 23  0 13 44.9920000  0  4G15G 2G13G 6
  21781534.8364   -6386338.28645  -4885484.28661
  19055475.031   -23301602.275 7 -18070384.67724
  18474135.5084  -22455952.55647 -16711059.45962
  18280505.7504  -31640926.48747 -24441732.42963
 91  4 23  0 13 59.9920000  0  4G15G 2G13G 6
  21783625.6884   -6375350.36145  -4876922.25361
  19056090.0004  -23298363.55847 -18067861.01264
  18467001.7974  -22493437.53647 -16740268.47362
  18279126.0314  -31648172.21547 -24447378.45363
 91  4 23  0 14 14.9920000  0  4G15G 2G13G 6
  21785741.2274   -6364235.02145  -4868260.95961
  19056715.7664  -23295078.69147 -18065301.38764
  18459895.3914  -22530786.72347 -16769371.67762
  18277771.2194  -31655294.72747 -24452928.46663
 91  4 23  0 14 29.9920000  0  4G15G 2G13G 6
  21787882.734    -6352985.050 5  -4859494.73421
  19057350.2274  -23291740.42747 -18062700.15163
  18452814.7194  -22567992.79847 -16798363.36662
  18276441.7584  -31662286.74647 -24458376.80063
 91  4 23  0 14 44.9920000  0  4G15G 2G13G 6
  21790038.406    -6341620.056 5  -4850638.91321
  19057993.5864  -23288368.04748 -18060072.33463
  18445758.1884  -22605075.07347 -16827258.58562
  18275131.3754  -31669167.30847 -24463738.28263
 91  4 23  0 14 59.9920000  0  4G15G 2G13G 6
  21792229.9224   -6330126.64145  -4841682.97661
  19058644.2504  -23284947.75548 -18057407.18464
  18438727.4454  -22642019.76647 -16856046.60062
  18273845.9774  -31675922.73547 -24469002.25563
 91  4 23  0 15 14.9920000  0  4G15G 2G13G 6
  21794441.9384   -6318505.82945  -4832627.80861
  19059303.5864  -23281480.74048 -18054705.62664
  18431722.8284  -22678828.01547 -16884728.29062
  18272584.3364  -31682553.89347 -24474169.39463
 91  4 23  0 15 29.9920000  0  4G15G 2G13G 6
  21796677.5244   -6306759.60445  -4823474.95061
  19059973.4384  -23277968.74948 -18051969.02163
  18424743.8444  -22715501.47547 -16913304.95962
  18271345.0164  -31689062.32247 -24479240.90363
 91  4 23  0 15 44.9920000  0  4G15G 2G13G 6
  21798935.024    -6294885.543 5  -4814222.40421
  19060648.7584  -23274408.66348 -18049194.93964
  18417790.914   -22752037.016 7 -16941774.15522
  18270131.2504  -31695445.11947 -24484214.51463
 91  4 23  0 15 59.9920000  0  4G15G 2G13G 6
  21801225.1494   -6282870.22345  -4804859.81561
  19061337.8834  -23270787.19747 -18046373.02863
  18410869.3284  -22788421.39047 -16970125.55262
  18268942.9384  -31701688.73447 -24489079.67563
 91  4 23  0 16 14.9920000  0  4G15G 2G13G 6
  21803536.164    -6270719.538 5  -4795391.75821
  19062038.5704  -23267110.17248 -18043507.82563
  18403972.2664  -22824660.01447 -16998363.38762
  18267779.6254  -31707798.73747 -24493840.72363
 91  4 23  0 16 29.9920000  0  4G15G 2G13G 6
  21805871.2664   -6258456.64945  -4785836.23861
  19062744.7114  -23263400.59748 -18040617.25563
  18397100.297   -22860776.075 7 -17026505.72222
  18266637.9454  -31713798.06947 -24498515.52863
 91  4 23  0 16 44.9920000  0  4G15G 2G13G 6
  21808227.1174   -6246069.34145  -4776183.78561
  19063458.8054  -23259645.76648 -18037691.42464
  18390252.7114  -22896756.89647 -17054542.66862
  18265522.2114  -31719673.89947 -24503094.10363
 91  4 23  0 16 59.9920000  0  4G15G 2G13G 6
  21810603.3594   -6233556.28345  -4766433.36061
  19064181.6804  -23255844.23348 -18034729.19963
  18383431.0394  -22932600.68347 -17082472.83862
  18264426.0474  -31725424.66147 -24507575.22363
 91  4 23  0 17 14.9920000  0  4G15G 2G13G 6
  21813013.688    -6220916.459 5  -4756584.16521
  19064915.2664  -23251994.57547 -18031729.47363
  18376636.313   -22968305.982 7 -17110295.09222
  18263355.4144  -31731048.90947 -24511957.75663
 91  4 23  0 17 29.9920000  0  4G15G 2G13G 6
  21815439.3204   -6208147.09945  -4746634.03461
  19065657.1174  -23248094.26247 -18028690.27763
  18369869.375   -23003870.373 7 -17138007.55422
  18262309.5704  -31736543.98247 -24516239.63863
 91  4 23  0 17 44.9920000  0  4G15G 2G13G 6
  21817892.9304   -6195255.29145  -4736588.45361
  19066408.2894  -23244149.96647 -18025616.80564
  18363127.164   -23039300.578 7 -17165615.45022
  18261287.4224  -31741916.52247 -24520426.03463
 91  4 23  0 17 59.9920000  0  4G15G 2G13G 6
  21820373.469    -6182240.002 5  -4726446.72521
  19067168.2584  -23240160.29547 -18022507.98064
  18356410.727   -23074595.000 7 -17193117.54422
  18260288.5004  -31747164.87447 -24524515.66463
 91  4 23  0 18 14.9920000  0  4G15G 2G13G 6
  21822875.727    -6169093.585 5  -4716202.72621
  19067936.6414  -23236117.34847 -18019357.63963
  18349722.359   -23109745.628 7 -17220507.59022
  18259314.1024  -31752281.24947 -24528502.45563
 91  4 23  0 18 29.9920000  0  3G 2G13G 6
  19068716.7114  -23232021.67347 -18016166.21063
  18343059.508   -23144753.080 7 -17247786.07122
  18258366.7034  -31757265.95547 -24532386.64663
 91  4 23  0 18 44.9920000  0  3G 2G13G 6
  19069506.1024  -23227871.15147 -18012932.04463
  18336425.594   -23179615.148 7 -17274951.27222
  18257442.9144  -31762116.65047 -24536166.41663
 91  4 23  0 18 59.9920000  0  3G 2G13G 6
  19070306.4224  -23223662.07347 -18009652.25363
  18329820.969   -23214328.264 7 -17302000.39822
  18256547.5784  -31766829.64847 -24539838.88763
 91  4 23  0 19 14.9920000  0  3G 2G13G 6
  19071117.0004  -23219401.39547 -18006332.25063
  18323241.555   -23248899.304 7 -17328938.81822
  18255675.3444  -31771411.94547 -24543409.51363
 91  4 23  0 19 29.9920000  0  3G 2G13G 6
  19071937.5634  -23215087.79547 -18002971.01063
  18316690.930   -23283326.972 7 -17355765.52322
  18254827.2744  -31775861.95547 -24546877.05663
 91  4 23  0 19 44.9920000  0  3G 2G13G 6
  19072768.3204  -23210721.89247 -17999569.01663
  18310166.172   -23317611.826 7 -17382480.94022
  18254007.1414  -31780180.19347 -24550241.92263
 91  4 23  0 19 59.9920000  0  3G 2G13G 6
  19073608.7114  -23206309.93447 -17996131.13263
  18303668.024   -23351759.870 7 -17409089.75122
  18253208.8524  -31784372.84147 -24553508.92263
 91  4 23  0 20 14.9920000  0  3G 2G13G 6
  19074457.6094  -23201851.32247 -17992656.89563
  18297195.055   -23385770.666 7 -17435591.62422
  18252434.8754  -31788439.20147 -24556677.52463
 91  4 23  0 20 29.9920000  0  3G 2G13G 6
  19075314.3834  -23197343.34747 -17989144.19363
  18290750.563   -23419641.297 7 -17461984.27122
  18251685.5944  -31792376.45347 -24559745.51563
 91  4 23  0 20 44.9920000  0  3G 2G13G 6
  19076181.6094  -23192788.72247 -17985595.13863
  18284330.797   -23453374.523 7 -17488269.85422
  18250960.6024  -31796187.23847 -24562714.96063
 91  4 23  0 20 59.9920000  0  3G 2G13G 6
  19077058.5394  -23188183.44547 -17982006.62063
  18277938.930   -23486966.521 7 -17514445.39122
  18250259.2814  -31799867.46647 -24565582.68263
 91  4 23  0 21 14.9920000  0  3G 2G13G 6
  19077940.7744  -23183535.75147 -17978385.04363
  18271571.070   -23520425.385 7 -17540517.18322
  18249584.6024  -31803425.43247 -24568355.13063
 91  4 23  0 21 29.9920000  0  3G 2G13G 6
  19078835.9384  -23178831.71147 -17974719.56363
  18265232.453   -23553737.021 7 -17566474.25622
  18248933.1334  -31806846.97847 -24571021.27463
 91  4 23  0 21 44.9920000  0  3G 2G13G 6
  19079742.2584  -23174081.39247 -17971018.02563
  18258919.844   -23586911.438 7 -17592324.40022
  18248304.0704  -31810142.03347 -24573588.85263
 91  4 23  0 21 59.9920000  0  3G 2G13G 6
  19080657.9064  -23169271.41147 -17967269.99363
  18252635.156   -23619935.437 7 -17618057.34122
  18247703.6564  -31813297.14147 -24576047.38563
 91  4 23  0 22 14.9920000  0  3G 2G13G 6
  19081584.1564  -23164398.43647 -17963472.87863
  18246380.336   -23652805.543 7 -17643670.36422
  18247131.0004  -31816309.00747 -24578394.30162
 91  4 23  0 22 29.9920000  0  3G 2G13G 6
  19082519.0004  -23159482.32347 -17959642.14663
  18240151.359   -23685541.873 7 -17669179.14222
  18246581.2974  -31819197.51947 -24580645.09663
 91  4 23  0 22 44.9920000  0  3G 2G13G 6
  19083464.2814  -23154514.17047 -17955770.86963
  18233948.649   -23718135.441 7 -17694576.68022
  18246057.4304  -31821953.57947 -24582792.68163
 91  4 23  0 22 59.9920000  0  3G 2G13G 6
  19084415.6644  -23149514.50947 -17951875.03963
  18227769.141   -23750606.677 7 -17719878.89322
  18245554.5554  -31824597.71647 -24584853.05563
 91  4 23  0 23 14.9920000  0  3G 2G13G 6
  19085379.4924  -23144458.26747 -17947935.11863
  18221617.391   -23782930.476 7 -17745066.22422
  18245076.7344  -31827104.52047 -24586806.41663
 91  4 23  0 23 29.9920000  0  3G 2G13G 6
  19086350.0784  -23139357.96347 -17943960.86763
  18215493.313   -23815119.435 7 -17770148.48222
  18244621.6884  -31829486.67647 -24588662.64763
 91  4 23  0 23 44.9920000  0  3G 2G13G 6
  19087329.742   -23134202.003 7 -17939943.24823
  18209395.008   -23847161.830 7 -17795116.53522
  18244195.1954  -31831732.44447 -24590412.60463
 91  4 23  0 23 59.9920000  0  3G 2G13G 6
  19088319.414   -23128997.000 7 -17935887.41623
  18203324.242   -23879064.496 7 -17819975.71122
  18243794.8364  -31833848.38047 -24592061.39463
 91  4 23  0 24 14.9920000  0  3G 2G13G 6
  19089317.297   -23123758.189 7 -17931805.24023
  18197277.547   -23910842.486 7 -17844737.73422
  18243412.9454  -31835849.67547 -24593620.84763
 91  4 23  0 24 29.9920000  0  3G 2G13G 6
  19090324.828   -23118472.678 7 -17927686.67323
  18191256.633   -23942482.783 7 -17869392.46322
  18243054.3524  -31837723.23547 -24595080.77262
 91  4 23  0 24 44.9920000  0  3G 2G13G 6
  19091339.906   -23113131.937 7 -17923525.07123
  18185263.656   -23973976.959 7 -17893933.33022
  18242727.1334  -31839460.35247 -24596434.37563
 91  4 23  0 24 59.9920000  0  3G 2G13G 6
  19092368.391   -23107731.778 7 -17919317.17123
  18179297.500   -24005320.809 7 -17918357.06822
  18242421.2744  -31841056.90147 -24597678.44562
 91  4 23  0 25 14.9920000  0  3G 2G13G 6
  19093402.1094  -23102287.76347 -17915075.09363
  18173359.836   -24036530.004 7 -17942675.87022
  18242143.2274  -31842528.58447 -24598825.21962
 91  4 23  0 25 29.9920000  0  3G 2G13G 6
  19094450.766   -23096783.246 7 -17910785.87623
  18167449.391   -24067587.762 7 -17966876.67522
  18241887.4454  -31843858.47147 -24599861.50163
 91  4 23  0 25 44.9920000  0  3G 2G13G 6
  19095503.805   -23091242.546 7 -17906468.45923
  18161563.805   -24098518.401 7 -17990978.42322
  18241660.2974  -31845070.98547 -24600806.32763
 91  4 23  0 25 59.9920000  0  3G 2G13G 6
  19096568.047   -23085654.655 7 -17902114.27723
  18155704.539   -24129311.095 7 -18014972.68522
  18241451.688   -31846154.979 7 -24601651.00723
 91  4 23  0 26 14.9920000  0  3G 2G13G 6
  19097643.055   -23080013.616 7 -17897718.68123
  18149871.188   -24159959.804 7 -18038854.75122
  18241269.6724  -31847104.39147 -24602390.81663
 91  4 23  0 26 29.9920000  0  3G 2G13G 6
  19098725.781   -23074325.378 7 -17893286.30223
  18144064.899   -24190470.415 7 -18062629.20122
  18241115.5314  -31847925.05947 -24603030.30663
 91  4 23  0 26 44.9920000  0  3G 2G13G 6
  19099814.617   -23068597.086 7 -17888822.72023
  18138283.680   -24220850.083 7 -18086301.62622
  18240982.3364  -31848624.20847 -24603575.10663
 91  4 23  0 26 59.9920000  0  3G 2G13G 6
  19100913.695   -23062816.093 7 -17884318.06723
  18132530.328   -24251086.241 7 -18109862.22122
  18240875.0244  -31849189.00647 -24604015.21963
 91  4 23  0 27 14.9920000  0  3G 2G13G 6
  19102024.352   -23056980.194 7 -17879770.62923
  18126804.914   -24281176.839 7 -18133309.39222
  18240793.7664  -31849617.31947 -24604348.98063
 91  4 23  0 27 29.9920000  0  3G 2G13G 6
  19103143.539   -23051095.440 7 -17875185.12523
  18121105.289   -24311128.009 7 -18156647.92322
  18240738.5554  -31849915.30747 -24604581.18862
 91  4 23  0 27 44.9920000  0  3G 2G13G 6
  19104276.438   -23045152.071 7 -17870553.94823
  18115433.891   -24340929.918 7 -18179870.14022
  18240709.320   -31850072.808 7
 91  4 23  0 27 59.9920000  0  3G 2G13G 6
  19105412.961   -23039169.468 7 -17865892.19823
  18109786.992   -24370602.040 7 -18202991.22722
  18240699.914   -31850109.479 7
 91  4 23  0 28 14.9920000  0  3G 2G13G 6
  19106561.750   -23033136.985 7 -17861191.58023
  18104166.742   -24400133.569 7 -18226002.76522
  18240717.844   -31850014.318 7
 91  4 23  0 28 29.9920000  0  3G 2G13G 6
  19107717.555   -23027073.322 7 -17856466.66623
  18098570.914   -24429543.326 7 -18248919.41222
  18240755.4694  -31849806.02347
 91  4 23  0 28 44.9920000  0  3G 2G13G 6
  19108881.359   -23020958.170 7 -17851701.63123
  18093001.250   -24458811.015 7 -18271725.36022
  18240822.9924  -31849464.32747
 91  4 23  0 28 59.9920000  0  3G 2G13G 6
  19110051.656   -23014794.841 7 -17846899.05823
  18087458.438   -24487939.959 7 -18294423.19122
  18240912.008   -31848992.545 7 -24603862.23522
 91  4 23  0 29 14.9920000  0  3G 2G13G 6
  19111239.141   -23008562.830 7 -17842042.96423
  18081946.109   -24516909.612 7 -18316996.90222
  18241030.078   -31848370.065 7 -24603377.19923
 91  4 23  0 29 29.9920000  0  3G 2G13G 6
  19112434.836   -23002282.359 7 -17837149.10823
  18076459.516   -24545740.368 7 -18339462.37822
  18241172.914   -31847616.962 7 -24602790.38422
 91  4 23  0 29 44.9920000  0  3G 2G13G 6
  19113638.172   -22995950.875 7 -17832215.50123
  18070999.531   -24574429.490 7 -18361817.49822
  18241344.430   -31846730.778 7 -24602099.86222
 91  4 23  0 29 59.9920000  0  3G 2G13G 6
  19114853.883   -22989573.919 7 -17827246.46523
  18065566.500   -24602982.688 7 -18384066.70022
  18241533.484   -31845717.110 7 -24601310.00823
 91  4 23  0 30 14.9920000  0  3G 2G13G 6
  19116075.031   -22983153.209 7 -17822243.33123
  18060157.930   -24631402.049 7 -18406211.61122
  18241752.156   -31844577.766 7 -24600422.22223
 91  4 23  0 30 29.9920000  0  3G 2G13G 6
  19117304.484   -22976685.088 7 -17817203.25423
  18054776.719   -24659683.621 7 -18428249.15722
  18241994.828   -31843308.779 7 -24599433.42322
 91  4 23  0 30 44.9920000  0  3G 2G13G 6
  19118545.938   -22970167.832 7 -17812124.89123
  18049420.836   -24687825.522 7 -18450177.86822
  18242258.547   -31841908.402 7 -24598342.23223
 91  4 23  0 30 59.9920000  0  3G 2G13G 6
  19119795.953   -22963599.708 7 -17807006.88823
  18044092.0164  -24715826.21747 -18471996.54762
  18242552.727   -31840374.831 7 -24597147.25923
 91  4 23  0 31 14.9920000  0  3G 2G13G 6
  19121053.899   -22956978.102 7 -17801847.21223
  18038791.5004  -24743683.04647 -18493703.12762
  18242871.774   -31838705.357 7 -24595846.38723
 91  4 23  0 31 29.9920000  0  3G 2G13G 6
  19122322.891   -22950312.115 7 -17796652.95423
  18033515.906   -24771405.500 7 -18515304.99722
  18243213.477   -31836909.443 7 -24594446.99023
 91  4 23  0 31 44.9920000  0  3G 2G13G 6
  19123601.367   -22943601.156 7 -17791423.65023
  18028267.695   -24798992.849 7 -18536801.59022
  18243577.391   -31834986.243 7 -24592948.41123
 91  4 23  0 31 59.9920000  0  3G 2G13G 6
  19124885.844   -22936848.474 7 -17786161.83823
  18023041.891   -24826448.443 7 -18558195.51822
  18243966.531   -31832938.955 7 -24591353.13823
 91  4 23  0 32 14.9920000  0  3G 2G13G 6
  19126179.164   -22930048.509 7 -17780863.17723
  18017843.711   -24853766.760 7 -18579482.47922
  18244381.524   -31830761.918 7 -24589656.75823
 91  4 23  0 32 29.9920000  0  3G 2G13G 6
  19127483.906   -22923189.467 7 -17775518.48923
  18012672.578   -24880936.087 7 -18600653.34222
  18244823.680   -31828443.358 7 -24587850.10822
 91  4 23  0 32 44.9920000  0  3G 2G13G 6
  19128800.320   -22916279.410 7 -17770134.04423
  18007529.094   -24907964.470 7 -18621714.37622
  18245290.024   -31825991.303 7 -24585939.43023
 91  4 23  0 32 59.9920000  0  3G 2G13G 6
  19130122.234   -22909323.935 7 -17764714.21123
  18002411.977   -24934857.743 7 -18642670.13322
  18245783.258   -31823411.292 7 -24583929.04423
 91  4 23  0 33 14.9920000  0  3G 2G13G 6
  19131458.867   -22902306.835 7 -17759246.35523
  17997323.219   -24961599.545 7 -18663507.85922
  18246298.914   -31820687.267 7 -24581806.44323
 91  4 23  0 33 29.9920000  0  3G 2G13G 6
  19132805.836   -22895237.438 7 -17753737.74823
  17992261.3524  -24988199.24147 -18684234.85762
  18246841.070   -31817828.368 7 -24579578.74523
 91  4 23  0 33 44.9920000  0  3G 2G13G 6
  19134156.836   -22888121.106 7 -17748192.57123
  17987226.727   -25014662.335 7 -18704855.41122
  18247412.438   -31814840.061 7 -24577250.20722
 91  4 23  0 33 59.9920000  0  3G 2G13G 6
  19135522.391   -22880956.508 7 -17742609.78123
  17982216.109   -25040987.760 7 -18725368.68522
  18248005.602   -31811721.058 7 -24574819.83223
 91  4 23  0 34 14.9920000  0  3G 2G13G 6
  19136896.031   -22873746.586 7 -17736991.67423
  17977231.9384  -25067177.90947 -18745776.55762
  18248621.430   -31808474.003 7 -24572289.67323
 91  4 23  0 34 29.9920000  0  3G 2G13G 6
  19138275.3134  -22866486.34147 -17731334.35363
  17972275.664   -25093228.159 7 -18766075.41222
  18249268.149   -31805094.255 7 -24569656.11723
 91  4 23  0 34 44.9920000  0  3G 2G13G 6
  19139666.359   -22859180.181 7 -17725641.25723
  17967342.945   -25119143.313 7 -18786269.00022
  18249933.336   -31801585.981 7 -24566922.41523
